[[{"header":{"parameterUnit":"m.s-1","parameterCategory":1,"la1":31.0,"la2":29.5877,"lo1":-88.7671,"lo2":-86.6584,"dy":0.0162,"dx":0.0185,"nx":115,"ny":88,"refTime":"2026-05-03T12:00:00:Z","depth":0,"parameterNumber":2,"parameterNumberName":"U-component_of_WINDS"},"data":[0.0,0.0,0.0,0.0,0.0,0.0,0.0,0.0,0.0,0.0,0.0,0.0,0.0,0.0,0.0,0.0,0.0,0.0,0.0,0.0,0.0,0.0,0.0,0.0,0.0,0.0,0.0,0.0,0.0,0.0,0.0,0.0,0.0,0.0,0.0,0.0,0.0,0.0,0.0,0.0,0.0,0.0,0.0,0.0,0.0,0.0,0.0,0.0,0.0,0.0,0.0,0.0,0.0,0.0,0.0,0.0,0.0,0.0,0.0,0.0,0.0,0.0,0.0,0.0,0.0,0.0,0.0,0.0,0.0,0.0,0.0,0.0,0.0,0.0,0.0,0.0,0.0,0.0,0.0,0.0,0.0,0.0,0.0,0.0,0.0,0.0,0.0,0.0,0.0,0.0,0.0,0.0,0.0,0.0,0.0,0.0,0.0,0.0,0.0,0.0,0.0,0.0,0.0,0.0,0.0,0.0,0.0,0.0,0.0,0.0,0.0,0.0,0.0,0.0,0.0,0.0,0.0,0.0,0.0,0.0,0.0,0.0,0.0,0.0,0.0,0.0,0.0,0.0,0.0,0.0,0.0,0.0,0.0,0.0,0.0,0.0,0.0,0.0,0.0,0.0,0.0,0.0,0.0,0.0,0.0,0.0,0.0,0.0,0.0,0.0,0.0,0.0,0.0,0.0,0.0,0.0,0.0,0.0,0.0,0.0,0.0,0.0,0.0,0.0,0.0,0.0,0.0,0.0,0.0,0.0,0.0,0.0,0.0,0.0,0.0,0.0,0.0,0.0,0.0,0.0,0.0,0.0,0.0,0.0,0.0,0.0,0.0,0.0,0.0,0.0,0.0,0.0,0.0,0.0,0.0,0.0,0.0,0.0,0.0,0.0,0.0,0.0,0.0,0.0,0.0,0.0,0.0,0.0,0.0,0.0,0.0,0.0,0.0,0.0,0.0,0.0,0.0,0.0,0.0,0.0,0.0,0.0,0.0,0.0,0.0,0.0,0.0,0.0,0.0,0.0,0.0,0.0,0.0,0.0,0.0,0.0,0.0,0.0,0.0,0.0,0.0,0.0,0.0,0.0,0.0,0.0,0.0,0.0,0.0,0.0,0.0,0.0,0.0,0.0,0.0,0.0,0.0,0.0,0.0,0.0,0.0,0.0,0.0,0.0,0.0,0.0,0.0,0.0,0.0,0.0,0.0,0.0,0.0,0.0,0.0,0.0,0.0,0.0,0.0,0.0,0.0,0.0,0.0,0.0,0.0,0.0,0.0,0.0,0.0,0.0,0.0,0.0,0.0,0.0,0.0,0.0,0.0,0.0,0.0,0.0,0.0,0.0,0.0,0.0,0.0,0.0,0.0,0.0,0.0,0.0,0.0,0.0,0.0,0.0,0.0,0.0,0.0,0.0,0.0,0.0,0.0,0.0,0.0,0.0,0.0,0.0,0.0,0.0,0.0,0.0,0.0,0.0,0.0,0.0,0.0,0.0,0.0,0.0,0.0,0.0,0.0,0.0,0.0,0.0,0.0,0.0,0.0,0.0,0.0,0.0,0.0,0.0,0.0,0.0,0.0,0.0,0.0,0.0,0.0,0.0,0.0,0.0,0.0,0.0,0.0,0.0,0.0,0.0,0.0,0.0,0.0,0.0,0.0,0.0,0.0,0.0,0.0,0.0,0.0,0.0,0.0,0.0,0.0,0.0,0.0,0.0,0.0,0.0,0.0,0.0,0.0,0.0,0.0,0.0,0.0,0.0,0.0,0.0,0.0,0.0,0.0,0.0,0.0,0.0,0.0,0.0,0.0,0.0,0.0,0.0,0.0,0.0,0.0,0.0,0.0,0.0,0.0,0.0,0.0,0.0,0.0,0.0,0.0,0.0,0.0,0.0,0.0,0.0,0.0,0.0,0.0,0.0,0.0,0.0,0.0,0.0,0.0,0.0,0.0,0.0,0.0,0.0,0.0,0.0,0.0,0.0,0.0,0.0,0.0,0.0,0.0,0.0,0.0,0.0,0.0,0.0,0.0,0.0,0.0,0.0,0.0,0.0,0.0,0.0,0.0,0.0,0.0,0.0,0.0,0.0,0.0,0.0,0.0,0.0,0.0,0.0,0.0,0.0,0.0,0.0,0.0,0.0,0.0,0.0,0.0,0.0,0.0,0.0,0.0,0.0,0.0,0.0,0.0,0.0,0.0,0.0,0.0,0.0,0.0,0.0,0.0,0.0,0.0,0.0,0.0,0.0,0.0,0.0,0.0,0.0,0.0,0.0,0.0,0.0,0.0,0.0,0.0,0.0,0.0,0.0,0.0,0.0,0.0,0.0,0.0,0.0,0.0,0.0,0.0,0.0,0.0,0.0,0.0,0.0,0.0,0.0,0.0,0.0,0.0,0.0,0.0,0.0,0.0,0.0,0.0,0.0,0.0,0.0,0.0,0.0,0.0,0.0,0.0,0.0,0.0,0.0,0.0,0.0,0.0,0.0,0.0,0.0,0.0,0.0,0.0,0.0,0.0,0.0,0.0,0.0,0.0,0.0,0.0,0.0,0.0,0.0,0.0,0.0,0.0,0.0,0.0,0.0,0.0,0.0,0.0,0.0,0.0,0.0,0.0,0.0,0.0,0.0,0.0,0.0,0.0,0.0,0.0,0.0,0.0,0.0,0.0,0.0,0.0,0.0,0.0,0.0,0.0,0.0,0.0,0.0,0.0,0.0,0.0,0.0,0.0,0.0,0.0,0.0,0.0,0.0,0.0,0.0,0.0,0.0,0.0,0.0,0.0,0.0,0.0,0.0,0.0,0.0,0.0,0.0,0.0,0.0,0.0,0.0,0.0,0.0,0.0,0.0,0.0,0.0,0.0,0.0,0.0,0.0,0.0,0.0,0.0,0.0,0.0,0.0,0.0,0.0,0.0,0.0,0.0,0.0,0.0,0.0,0.0,0.0,0.0,0.0,0.0,0.0,0.0,0.0,0.0,0.0,0.0,0.0,0.0,0.0,0.0,0.0,0.0,0.0,0.0,0.0,0.0,0.0,0.0,0.0,0.0,0.0,0.0,0.0,0.0,0.0,0.0,0.0,0.0,0.0,0.0,0.0,0.0,0.0,0.0,0.0,0.0,0.0,0.0,0.0,0.0,0.0,0.0,0.0,0.0,0.0,0.0,0.0,0.0,0.0,0.0,0.0,0.0,0.0,0.0,0.0,0.0,0.0,0.0,0.0,0.0,0.0,0.0,0.0,0.0,0.0,0.0,0.0,0.0,0.0,0.0,0.0,0.0,0.0,0.0,0.0,0.0,0.0,0.0,0.0,0.0,0.0,0.0,0.0,0.0,0.0,0.0,0.0,0.0,0.0,0.0,0.0,0.0,0.0,0.0,0.0,0.0,0.0,0.0,0.0,0.0,0.0,0.0,0.0,0.0,0.0,0.0,0.0,0.0,0.0,0.0,0.0,0.0,0.0,0.0,0.0,0.0,0.0,0.0,0.0,0.0,0.0,0.0,0.0,0.0,0.0,0.0,0.0,0.0,0.0,0.0,0.0,0.0,0.0,0.0,0.0,0.0,0.0,0.0,0.0,0.0,0.0,0.0,0.0,0.0,0.0,0.0,0.0,0.0,0.0,0.0,0.0,0.0,0.0,0.0,0.0,0.0,0.0,0.0,0.0,0.0,0.0,0.0,0.0,0.0,0.0,0.0,0.0,0.0,0.0,0.0,0.0,0.0,0.0,0.0,0.0,0.0,0.0,0.0,0.0,0.0,0.0,0.0,0.0,0.0,0.0,0.0,0.0,0.0,0.0,0.0,0.0,0.0,0.0,0.0,0.0,0.0,0.0,0.0,0.0,0.0,0.0,0.0,0.0,0.0,0.0,0.0,0.0,0.0,0.0,0.0,0.0,0.0,0.0,0.0,0.0,0.0,0.0,0.0,0.0,0.0,0.0,0.0,0.0,0.0,0.0,0.0,0.0,0.0,0.0,0.0,0.0,0.0,0.0,0.0,0.0,0.0,0.0,0.0,0.0,0.0,0.0,0.0,0.0,0.0,0.0,0.0,0.0,0.0,0.0,0.0,0.0,0.0,0.0,0.0,0.0,0.0,0.0,0.0,0.0,0.0,0.0,0.0,0.0,0.0,0.0,0.0,0.0,0.0,0.0,0.0,0.0,0.0,0.0,0.0,0.0,0.0,0.0,0.0,0.0,0.0,0.0,0.0,0.0,0.0,0.0,0.0,0.0,0.0,0.0,0.0,0.0,0.0,0.0,0.0,0.0,0.0,0.0,0.0,0.0,-0.2258,0.0,0.0,0.0,0.0,0.0,0.0,0.0,0.0,0.0,0.0,0.0,0.0,0.0,0.0,0.0,0.0,0.0,0.0,0.0,0.0,0.0,0.0,0.0,0.0,0.0,0.0,0.0,0.0,0.0,0.0,0.0,0.0,0.0,0.0,0.0,0.0,0.0,0.0,0.0,0.0,0.0,0.0,0.0,0.0,0.0,0.0,0.0,0.0,0.0,0.0,0.0,0.0,0.0,0.0,0.0,0.0,0.0,0.0,0.0,0.0,0.0,0.0,0.0,0.0,0.0,0.0,0.0,0.0,0.0,0.0,0.0,0.0,0.0,0.0,0.0,0.0,0.0,0.0,0.0,0.0,0.0,0.0,0.0,0.0,0.0,0.0,0.0,0.0,0.0,0.0,0.0,0.0,0.0,0.0,0.0,0.0,0.0,0.0,0.0,0.0,0.0,0.0,0.0,0.0,0.0,0.0,0.0,0.0,0.0,0.0,0.0893,-0.0712,-0.1476,-0.1828,-0.1789,0.0,0.0,0.0,0.0,0.0,0.0,0.0,0.0,0.0,0.0,0.0,0.0,0.0,0.0,0.0,0.0,0.0,0.0,0.0,0.0,0.0,0.0,0.0,0.0,0.0,0.0,0.0,0.0,0.0,0.0,0.0,0.0,0.0,0.0,0.0,0.0,0.0,0.0,0.0,0.0,0.0,0.0,0.0,0.0,0.0,0.0,0.0,0.0,0.0,0.0,0.0,0.0,0.0,0.0,0.0,0.0,0.0,0.0,0.0,0.0,0.0,0.0,0.0,0.0,0.0,0.0,0.0,0.0,0.0,0.0,0.0,0.0,0.0,0.0,0.0,0.0,0.0,0.0,0.0,0.0,0.0,0.0,0.0,0.0,0.0,0.0,0.0,0.0,0.0,0.0,0.0,0.0,0.0,0.0,0.0,0.0,0.0,0.0,0.0,0.0,0.0,0.0,0.0,0.0,0.0,0.0,0.0,0.0,0.0,0.0,0.0,0.0,-0.0623,-0.1258,-0.1353,0.0,0.0,0.0,0.0,0.0,0.0,0.0,0.0,0.0,0.0,0.0,0.0,0.0,0.0,0.0,0.0,0.0,0.0,0.0,0.0,0.0,0.0,0.0,0.0,0.0,0.0,0.0,0.0,0.0,0.0,0.0,0.0,0.0,0.0,0.0,0.0,0.0,0.0,0.0,0.0,0.0,0.0,0.0,0.0,0.0,0.0,0.0,0.0,0.0,0.0,0.0,0.0,0.0,0.0,0.0,0.0,0.0,0.0,0.0,0.0,0.0,0.0,0.0,0.0,0.0,0.0,0.0,0.0,0.0,0.0,0.0,0.0,0.0,0.0,0.0,0.0,0.0,0.0,0.0,0.0,0.0,0.0,0.0,0.0,0.0,0.0,0.0,0.0,0.0,0.0,0.0,0.0,0.0,0.0,0.0,0.0,0.0,0.0,0.0,0.0,0.0,0.0,0.0,0.0,0.0,0.0,0.0,0.0,0.0,0.0,0.2434,0.1317,0.024,0.0,-0.0907,0.0,0.0,0.0,0.0,0.0,0.0,0.0,0.0,0.0,0.0,0.0,0.0,0.0,0.0,0.0,0.0,0.0,0.0,0.0,0.0,0.0,0.0,0.0,0.0,0.0,0.0,0.0,0.0,0.0,0.0,0.0,0.0,0.0,0.0,0.0,0.0,0.0,0.0,0.0,0.0,0.0,0.0,0.0,0.0,0.0,0.0,0.0,0.0,0.0,0.0,0.0,0.0,0.0,0.0,0.0,0.0,0.0,0.0,0.0,0.0,0.0,0.0,0.0,0.0,0.0,0.0,0.0,0.0,0.0,0.0,0.0,0.0,0.0,0.0,0.0,0.0,0.0,0.0,0.0,0.0,0.0,0.0,0.0,0.0,0.0,0.0,0.0,0.0,0.0,0.0,0.0,0.0,0.0,0.0,0.0,0.0,0.0,0.0,0.0,0.0,0.0,0.0,0.0,0.0,0.0,0.0,0.0,0.0,0.0,0.0,0.0,0.1812,0.0703,0.003,0.0,0.0,0.0,0.0,0.0,0.0,0.0,0.0,0.0,0.0,0.0,0.0,0.0,0.0,0.0,0.0,0.0,0.0,0.0,0.0,0.0,0.0,0.0,0.0,0.0,0.0,0.0,0.0,0.0,0.0,0.0,0.0,0.0,0.0,0.0,0.0,0.0,0.0,0.0,0.0,0.0,0.0,0.0,0.0,0.0,0.0,0.0,0.0,0.0,0.0,0.0,0.0,0.0,0.0,0.0,0.0,0.0,0.0,0.0,0.0,0.0,0.0,0.0,0.0,0.0,0.0,0.0,0.0,0.0,0.0,0.0,0.0,0.0,0.0,0.0,0.0,0.0,0.0,0.0,0.0,0.0,0.0,0.0,0.0,0.0,0.0,0.0,0.0,0.0,0.0,0.0,0.0,0.0,0.0,0.0,0.0,0.0,0.0,0.0,0.0,0.0,0.0,0.0,0.0,0.0,0.0,0.0,0.0,0.0,0.0,0.5111,0.0,0.203,0.0985,0.0422,0.025,0.0,0.0,0.0,0.0,0.0,0.0,0.0,0.0,0.0,0.0,0.0,0.0,0.0,0.0,0.0,0.0,0.0,0.0,0.0,0.0,0.0,0.0,0.0,0.0,0.0,0.0,0.0,0.0,0.0,0.0,0.0,0.0,0.0,0.0,0.0,0.0,0.0,0.0,0.0,0.0,0.0,0.0,0.0,0.0,0.0,0.0,0.0,0.0,0.0,0.0,0.0,0.0,0.0,0.0,0.0,0.0,0.0,0.0,0.0,0.0,0.0,0.0,0.0,0.0,0.0,0.0,0.0,0.0,0.0,0.0,0.0,0.0,0.0,0.0,0.0,0.0,0.0,0.0,0.0,0.0,0.0,0.0,0.0,0.0,0.0,0.0,0.0,0.0,0.0,0.0,0.0,0.0,0.0,0.0,0.0,0.0,0.0,0.0,0.0,0.0,0.0,0.0,0.0,0.0,0.0,0.0,0.0,0.0,0.0,0.323,0.2447,0.1762,0.1063,0.0599,0.0,0.0,0.0,0.0,0.0,0.0,0.0,0.0,0.0,0.0,0.0,0.0,0.0,0.0,0.0,0.0,0.0,0.0,0.0,0.0,0.0,0.0,0.0,0.0,0.0,0.0,0.0,0.0,0.0,0.0,0.0,0.0,0.0,0.0,0.0,0.0,0.0,0.0,0.0,0.0,0.0,0.0,0.0,0.0,0.0,0.0,0.0,0.0,0.0,0.0,0.0,0.0,0.0,0.0,0.0,0.0,0.0,0.0,0.0,0.0,0.0,0.0,0.0,0.0,0.0,0.0,0.0,0.0,0.0,0.0,0.0,0.0,0.0,0.0,0.0,0.0,0.0,0.0,0.0,0.0,0.0,0.0,0.0,0.0,0.0,0.0,0.0,0.0,0.0,0.0,0.0,0.0,0.0,0.0,0.0,0.0,0.0,0.0,0.0,0.0,0.0,0.0,0.0,0.0,0.0,0.0,0.0,0.0,0.0,0.4818,0.4484,0.3746,0.2801,0.1642,0.1174,0.0,0.0,0.0,0.0,0.0,0.0,0.0,0.0,0.0,0.0,0.0,0.0,0.0,0.0,0.0,0.0,0.0,0.0,0.0,0.0,0.0,0.0,0.0,0.0,0.0,0.0,0.0,0.0,0.0,0.0,0.0,0.0,0.0,0.0,0.0,0.0,0.0,0.0,0.0,0.0,0.0,0.0,0.0,0.0,0.0,0.0,0.0,0.0,0.0,0.0,0.0,0.0,0.0,0.0,0.0,0.0,0.0,0.0,0.0,0.0,0.0,0.0,0.0,0.0,0.0,0.0,0.0,0.0,0.0,0.0,0.0,0.0,0.0,0.0,0.0,0.0,0.0,0.0,0.0,0.0,0.0,0.0,0.0,0.0,0.0,0.0,0.0,0.0,0.0,0.0,0.0,0.0,0.0,0.0,0.0,0.0,0.0,0.0,0.0,0.0,0.0,0.0,0.0,0.0,0.0,0.0,0.0,0.0,0.0,0.4948,0.0,0.4813,0.0,0.2246,0.1596,0.0,0.0,0.0,0.0,0.0,0.0,0.0,0.0,0.0,0.0,0.0,0.0,0.0,0.0,0.0,0.0,0.0,0.0,0.0,0.0,0.0,0.0,0.0,0.0,0.0,0.0,0.0,0.0,0.0,0.0,0.0,0.0,0.0,0.0,0.0,0.0,0.0,0.0,0.0,0.0,0.0,0.0,0.0,0.0,0.0,0.0,0.0,0.0,0.0,0.0,0.0,0.0,0.0,0.0,0.0,0.0,0.0,0.0,0.0,0.0,0.0,0.0,0.0,0.0,0.0,0.0,0.0,0.0,0.0,0.0,0.0,0.0,0.0,0.0,0.0,0.0,0.0,0.0,0.0,0.0,0.0,0.0,0.0,0.0,0.0,0.0,0.0,0.0,0.0,0.0,0.0,0.0,0.0,0.0,0.0,0.0,0.0,0.0,0.0,0.0,0.0,0.0,0.0,0.0,0.0,0.0,0.0,0.0,0.0,0.4045,0.5295,0.5305,0.3953,0.2764,0.1846,0.0,0.0,0.0,0.0,0.0,0.0,0.0,0.0,0.0,0.0,0.0,0.0,0.0,0.0,0.0,0.0,0.0,0.0,0.0,0.0,0.0,0.0,0.0,0.0,0.0,0.0,0.0,0.0,0.0,0.0,0.0,0.0,0.0,0.0,0.0,0.0,0.0,0.0,0.0,0.0,0.0,0.0,0.0,0.0,0.0,0.0,0.0,0.0,0.0,0.0,0.0,0.0,0.0,0.0,0.0,0.0,0.0,0.0,0.0,0.0,0.0,0.0,0.0,0.0,0.0,0.0,0.0,0.0,0.0,0.0,0.0,0.0,0.0,0.0,0.0,0.0,0.0,0.0,0.0,0.0,0.0,0.0,0.0,0.0,0.0,0.0,0.0,0.0,0.0,0.0,0.0,0.0,0.0,0.0,0.0,0.0,0.0,0.0,0.0,0.0,0.0,0.0,0.0,0.0,0.0,0.0,0.0,0.0,0.0,0.5274,0.5541,0.5333,0.4528,0.2781,0.1775,0.0,0.0,0.0,0.0,0.0,0.0,0.0,0.0,0.0,0.0,0.0,0.0,0.0,0.0,0.0,0.0,0.0,0.0,0.0,0.0,0.0,0.0,0.0,0.0,0.0,0.0,0.0,0.0,0.0,0.0,0.0,0.0,0.0,0.0,0.0,0.0,0.0,0.0,0.0,0.0,0.0,0.0,0.0,0.0,0.0,0.0,0.0,0.0,0.0,0.0,0.0,0.0,0.0,0.0,0.0,0.0,0.0,0.0,0.0,0.0,0.0,0.0,0.0,0.0,0.0,0.0,0.0,0.0,0.0,0.0,0.0,0.0,0.0,0.0,0.0,0.0,0.0,0.0,0.0,0.0,0.0,0.0,0.0,0.0,0.0,0.0,0.0,0.0,0.0,0.0,0.0,0.0,0.0,0.0,0.0,0.0,0.0,0.0,0.0,0.0,0.0,0.0,0.0,0.0,0.0,0.0,0.0,0.0,0.0,0.7184,0.6919,0.6427,0.562,0.3721,0.2489,0.2032,0.0,0.0,0.0,0.0,0.0,0.0,0.0,0.0,0.0,0.0,0.0,0.0,0.0,0.0,0.0,0.0,0.0,0.0,0.0,0.0,0.0,0.0,0.0,0.0,0.0,0.0,0.0,0.0,0.0,0.0,0.0,0.0,0.0,0.0,0.0,0.0,0.0,0.0,0.0,0.0,0.0,0.0,0.0,0.0,0.0,0.0,0.0,0.0,0.0,0.0,0.0,0.0,0.0,0.0,0.0,0.0,0.0,0.0,0.0,0.0,0.0,0.0,0.0,0.0,0.0,0.0,0.0,0.0,0.0,0.0,0.0,0.0,0.0,0.0,0.0,0.0,0.0,0.0,0.0,0.0,0.0,0.0,0.0,0.0,0.0,0.0,0.0,0.0,0.0,0.0,0.0,0.0,0.0,0.0,0.0,0.0,0.0,0.0,0.0,0.0,0.0,0.0,0.0,0.0,0.0,0.0,0.0,0.0,0.9495,0.9151,0.8353,0.7071,0.5347,0.3814,0.0,0.0,0.0,0.0,0.0,0.0,0.0,0.0,0.0,0.0,0.0,0.0,0.0,0.0,0.0,0.0,0.0,0.0,0.0,0.0,0.0,0.0,0.0,0.0,0.0,0.0,0.0,0.0,0.0,0.0,0.0,0.0,0.0,0.0,0.0,0.0,0.0,0.0,0.0,0.0,0.0,0.0,0.0,0.0,0.0,0.0,0.0,0.0,0.0,0.0,0.0,0.0,0.0,0.0,0.0,0.0,0.0,0.0,0.0,0.0,0.0,0.0,0.0,0.0,0.0,0.0,0.0,0.0,0.0,0.0,0.0,0.0,0.0,0.0,0.0,0.0,0.0,0.0,0.0,0.0,0.0,0.0,0.0,0.0,0.0,0.0,0.0,0.0,0.0,0.0,0.0,0.0,0.0,0.0,0.0,0.0,0.0,0.0,0.0,0.0,0.0,0.0,0.0,0.0,0.0,0.0,0.0,0.0,0.0,1.0657,1.0811,0.9963,0.8059,0.6105,0.4482,0.0,0.0,0.0,0.0,0.0,0.0,0.0,0.0,0.0,0.0,0.0,0.0,0.0,0.0,0.0,0.0,0.0,0.0,0.0,0.0,0.0,0.0,0.0,0.0,0.0,0.0,0.0,0.0,0.0,0.0,0.0,0.0,0.0,0.0,0.0,0.0,0.0,0.0,0.0,0.0,0.0,0.0,0.0,0.0,0.0,0.0,0.0,0.0,0.0,0.0,0.0,0.0,0.0,0.0,0.0,0.0,0.0,0.0,0.0,0.0,0.0,0.0,0.0,0.0,0.0,0.0,0.0,0.0,0.0,0.0,0.0,0.0,0.0,0.0,0.0,0.0,0.0,0.0,0.0,0.0,0.0,0.0,0.0,0.0,0.0,0.0,0.0,0.0,0.0,0.0,0.0,0.0,0.0,0.0,0.0,0.0,0.0,0.0,0.0,0.0,0.0,0.0,0.0,0.0,0.0,0.0,0.0,0.0,0.9472,1.142,1.2079,1.1483,0.9564,0.7323,0.5432,0.0,0.0,0.0,0.0,0.0,0.0,0.0,0.0,0.0,0.0,0.0,0.0,0.0,0.0,0.0,0.0,0.0,0.0,0.0,0.0,0.0,0.0,0.0,0.0,0.0,0.0,0.0,0.0,0.0,0.0,0.0,0.0,0.0,0.0,0.0,0.0,0.0,0.0,0.0,0.0,0.0,0.0,0.0,0.0,0.0,0.0,0.0,0.0,0.0,0.0,0.0,0.0,0.0,0.0,0.0,0.0,0.0,0.0,0.0,0.0,0.0,0.0,0.0,0.0,0.0,0.0,0.0,0.0,0.0,0.0,0.0,0.0,0.0,0.0,0.0,0.0,0.0,0.0,0.0,0.0,0.0,0.0,0.0,0.0,0.0,0.0,0.0,0.0,0.0,0.0,0.0,0.0,0.0,0.0,0.0,0.0,0.0,0.0,0.0,0.0,0.0,0.0,0.0,0.0,0.0,0.0,0.0,0.0,0.9738,1.1998,1.2971,1.2721,1.1162,0.8687,0.6511,0.0,0.0,0.0,0.0,0.0,0.0,0.0,0.0,0.0,0.0,0.0,0.0,0.0,0.0,0.0,0.0,0.0,0.0,0.0,0.0,0.0,0.0,0.0,0.0,0.0,0.0,0.0,0.0,0.0,0.0,0.0,0.0,0.0,0.0,0.0,0.0,0.0,0.0,0.0,0.0,0.0,0.0,0.0,0.0,0.0,0.0,0.0,0.0,0.0,0.0,0.0,0.0,0.0,0.0,0.0,0.0,0.0,0.0,0.0,0.0,0.0,0.0,0.0,0.0,0.0,0.0,0.0,0.0,0.0,0.0,0.0,0.0,0.0,0.0,0.0,0.0,0.0,0.0,0.0,0.0,0.0,0.0,0.0,0.0,0.0,0.0,0.0,0.0,0.0,0.0,0.0,0.0,0.0,0.0,0.0,0.0,0.0,0.0,0.0,0.0,0.0,0.0,0.0,0.0,0.0,0.0,0.0,0.0,1.1288,1.3461,1.3359,1.2696,1.1525,0.9375,0.7357,0.0,0.0,0.0,0.0,0.0,0.0,0.0,0.0,0.0,0.0,0.0,0.0,0.0,0.0,0.0,0.0,0.0,0.0,0.0,0.0,0.0,0.0,0.0,0.0,0.0,0.0,0.0,0.0,0.0,0.0,0.0,0.0,0.0,0.0,0.0,0.0,0.0,0.0,0.0,0.0,0.0,0.0,0.0,0.0,0.0,0.0,0.0,0.0,0.3943,0.0,0.0,0.0,0.0,0.0,0.0,0.0,0.0,0.0,0.0,0.0,0.0,0.0,0.0,0.0,0.0,0.0,0.0,0.0,0.0,0.0,0.0,0.0,0.0,0.0,0.0,0.0,0.0,0.0,0.0,0.0,0.0,0.0,0.0,0.0,0.0,0.0,0.0,0.0,0.0,0.0,0.0,0.0,0.0,0.0,0.0,0.0,0.0,0.0,0.0,0.0,0.0,0.0,0.0,0.0,0.0,0.0,0.0,0.0,1.1878,1.3505,1.3169,1.2541,1.158,0.977,0.7971,0.0,0.0,0.0,0.0,0.0,0.0,0.0,0.0,0.0,0.0,0.0,0.0,0.0,0.0,0.0,0.0,0.0,0.0,0.0,0.0,0.0,0.0,0.0,0.0,0.0,0.0,0.0,0.0,0.0,0.0,0.0,0.0,0.0,0.0,0.0,0.0,0.0,0.0,0.0,0.0,0.0,0.0,0.0,0.0,0.0,0.0,0.0,0.0,0.0,0.0,0.0,0.0,0.0,0.0,0.0,0.0,0.0,0.0,0.0,0.0,0.0,0.0,0.0,0.0,0.0,0.0,0.0,0.0,0.0,0.0,0.0,0.0,0.0,0.0,0.0,0.0,0.0,0.0,0.0,0.0,0.0,0.0,0.0,0.0,0.0,0.0,0.0,0.0,0.0,0.0,0.0,0.0,0.0,0.0,0.0,0.0,0.0,0.0,0.0,0.0,0.0,0.0,0.0,0.0,0.0,0.0,0.0,1.056,1.2007,1.3197,1.2903,1.2318,1.1531,0.9909,0.8297,0.6731,0.0,0.0,0.0,0.0,0.0,0.0,0.0,0.0,0.0,0.0,0.0,0.0,0.0,0.0,0.0,0.0,0.0,0.0,0.0,0.0,0.0,0.0,0.0,0.0,0.0,0.0,0.0,0.0,0.0,0.0,0.0,0.0,0.0,0.0,0.0,0.0,0.0,0.0,0.6275,0.6876,0.0,0.0,0.0,0.0,0.0,0.0,0.0,0.0,0.6453,0.0,0.0,0.0,0.0,0.0,0.0,0.0,0.0,0.0,0.0,0.0,0.0,0.0,0.0,0.0,0.0,0.0,0.0,0.0,0.0,0.0,0.0,0.0,0.0,0.0,0.0,0.0,0.0,0.0,0.0,0.0,0.0,0.0,0.0,0.0,0.0,0.0,0.0,0.0,0.0,0.0,0.0,0.0,0.0,0.0,0.0,0.0,0.0,0.0,0.0,0.0,0.0,0.0,0.0,0.0,0.0,1.0543,1.0752,1.1879,1.4027,1.3187,1.2212,1.1191,0.9616,0.8087,0.667,0.0,0.0,0.0,0.0,0.0,0.0,0.0,0.0,0.0,0.0,0.0,0.0,0.0,0.0,0.0,0.0,0.0,0.0,0.0,0.0,0.0,0.0,0.0,0.0,0.0,0.0,0.0,0.0,0.0,0.0,0.0,0.0,0.0,0.0,0.0,0.0,0.0,0.0,0.0,0.861,0.865,0.0,0.0,0.0,0.0,0.0,0.0,0.0,0.0,0.6756,0.0,0.0,0.0,0.0,0.0,0.0,0.0,0.0,0.0,0.0,0.0,0.0,0.0,0.0,0.0,0.0,0.0,0.0,0.0,0.0,0.0,0.0,0.0,0.0,0.0,0.0,0.0,0.0,0.0,0.0,0.0,0.0,0.0,0.0,0.0,0.0,0.0,0.0,0.0,0.0,0.0,0.0,0.0,0.0,0.0,0.0,0.0,0.0,0.0,0.0,0.0,0.0,0.0,0.0,0.0,1.0388,1.158,1.2798,1.4057,1.32,1.2116,1.0915,0.9298,0.7788,0.0,0.0,0.0,0.0,0.0,0.0,0.0,0.0,0.0,0.0,0.0,0.0,0.0,0.0,0.0,0.0,0.0,0.0,0.0,0.0,0.0,0.0,0.0,0.0,0.0,0.0,0.0,0.0,0.0,0.0,0.0,0.0,0.0,0.0,0.0,0.0,0.0,0.0,0.0,0.0,0.9921,1.0352,1.0064,0.0,0.0,0.0,0.0,0.0,0.0,0.8258,0.7972,0.0,0.0,0.0,0.0,0.0,0.0,0.0,0.0,0.0,0.0,0.0,0.0,0.0,0.0,0.0,0.0,0.0,0.0,0.0,0.0,0.0,0.0,0.0,0.0,0.0,0.0,0.0,0.0,0.0,0.0,0.0,0.0,0.0,0.0,0.0,0.0,0.0,0.0,0.0,0.0,0.0,0.0,0.0,0.0,0.0,0.0,0.0,0.0,0.0,0.0,0.0,0.0,0.0,0.0,0.0,1.0015,1.2168,1.3517,1.3951,1.3093,1.1964,1.0615,0.8947,0.747,0.0,0.0,0.0,0.0,0.0,0.0,0.0,0.0,0.0,0.0,0.0,0.0,0.0,0.0,0.0,0.0,0.0,0.0,0.0,0.0,0.0,0.0,0.0,0.0,0.0,0.0,0.0,0.0,0.0,0.0,0.0,0.0,0.0,0.0,0.0,0.0,0.0,0.0,0.0,0.0,0.0,1.1808,1.1586,1.1102,0.0,0.0,0.0,0.0,1.0288,1.0256,0.0,0.0,0.0,0.0,0.0,0.0,0.0,0.0,0.0,0.0,0.0,0.0,0.0,0.0,0.0,0.0,0.0,0.0,0.0,0.0,0.0,0.0,0.0,0.0,0.0,0.0,0.0,0.0,0.0,0.0,0.0,0.0,0.0,0.0,0.0,0.0,0.0,0.0,0.0,0.0,0.0,0.0,0.0,0.0,0.0,0.0,0.0,0.0,0.0,0.0,0.0,0.0,0.0,0.0,0.0,0.0,0.9979,1.16,1.2949,1.3885,1.2853,1.1627,1.0294,0.8499,0.707,0.0,0.0,0.0,0.0,0.0,0.0,0.0,0.0,0.0,0.0,0.0,0.0,0.0,0.0,0.0,0.0,0.0,0.0,0.0,0.0,0.0,0.0,0.0,0.0,0.0,0.0,0.0,0.0,0.0,0.0,0.0,0.0,0.0,0.0,0.0,0.0,0.0,0.0,0.0,0.0,0.0,1.2195,1.3024,1.3075,1.2518,0.0,0.0,0.0,1.2272,1.2297,0.0,0.0,0.0,0.0,0.0,0.0,0.0,0.0,0.0,0.0,0.0,0.0,0.0,0.0,0.0,0.0,0.0,0.0,0.0,0.0,0.0,0.0,0.0,0.0,0.0,0.0,0.0,0.0,0.0,0.0,0.0,0.0,0.0,0.0,0.0,0.0,0.0,0.0,0.0,0.0,0.0,0.0,0.0,0.0,0.0,0.0,0.0,0.0,0.0,0.0,0.0,0.0,0.0,0.0,0.0,0.9215,1.0096,1.2499,1.377,1.3748,1.2729,1.1596,1.0277,0.8462,0.7001,0.0,0.0,0.0,0.0,0.0,0.0,0.0,0.0,0.0,0.0,0.0,0.0,0.0,0.0,0.0,0.0,0.0,0.0,0.0,0.0,0.0,0.0,0.0,0.0,0.0,0.0,0.0,0.0,0.0,0.0,0.0,0.0,0.0,0.0,0.0,0.0,0.0,0.0,0.0,0.0,0.0,0.0,1.3278,1.3396,0.0,0.0,0.0,1.2267,1.2052,0.0,0.0,0.0,0.0,0.0,0.0,0.0,0.0,0.0,0.0,0.0,0.0,0.0,0.0,0.0,0.0,0.0,0.0,0.0,0.0,0.0,0.0,0.0,0.0,0.0,0.0,0.0,0.0,0.0,0.0,0.0,0.0,0.0,0.0,0.0,0.0,0.0,0.0,0.0,0.0,0.0,0.0,0.0,0.0,0.0,0.0,0.0,0.0,0.0,0.0,0.0,0.0,0.0,0.0,0.0,0.0,0.0,1.0164,1.3261,1.4475,1.3612,1.2678,1.157,1.0317,0.8679,0.0,0.0,0.0,0.0,0.0,0.0,0.0,0.0,0.0,0.0,0.0,0.0,0.0,0.0,0.0,0.0,0.0,0.0,0.0,0.0,0.0,0.0,0.0,0.0,0.0,0.0,0.0,0.0591,0.0,0.0,0.0,0.0,0.0,0.0,0.0,0.0,0.0,0.0,0.0,0.0,0.0,0.0,1.277,1.3328,1.404,1.3919,0.0,0.0,1.2987,1.253,1.3981,1.4059,0.0,0.0,0.0,0.0,0.0,0.0,0.0,0.0,0.0,0.0,0.0,0.0,0.0,0.0,0.0,0.0,0.0,0.0,0.0,0.0,0.0,0.0,0.0,0.0,0.0,0.0,0.0,0.0,0.0,0.0,0.0,0.0,0.0,0.0,0.0,0.0,0.0,0.0,0.0,0.0,0.0,0.0,0.0,0.0,0.0,0.0,0.0,0.0,0.0,0.0,0.0,0.0,0.0,0.0,0.0,1.0211,1.3261,1.4482,1.3612,1.2696,1.1596,1.033,0.9218,0.8287,0.0,0.0,0.0,0.0,0.0,0.0,0.0,0.0,0.0,0.0,0.0,0.0,0.0,0.0,0.0,0.0,0.0,0.0,0.0,0.0,0.0,0.0,0.0,0.0,0.0,0.0,0.0,0.0,0.0,0.0,0.0,0.0,0.0,0.0,0.0,0.0,0.0,0.0,0.0,0.0,0.0,1.3345,1.3396,1.5747,1.6748,0.0,0.0,1.4577,1.4891,1.5902,1.5517,1.2184,0.0,0.0,0.0,0.0,0.0,0.0,0.0,0.0,0.0,0.0,0.0,0.0,0.0,0.0,0.0,0.0,0.0,0.0,0.0,0.0,0.0,0.0,0.0,0.0,0.0,0.0,0.0,0.0,0.0,0.0,0.0,0.0,0.0,0.0,0.0,0.0,0.0,0.0,0.0,0.0,0.0,0.0,0.0,0.0,0.0,0.0,0.0,0.0,0.0,0.0,0.0,0.0,0.0,1.0073,1.0144,1.3261,1.4482,1.3611,1.2678,1.1703,1.0688,0.957,0.8537,0.0,0.0,0.0,0.0,0.0,0.0,0.0,0.0,0.0,0.0,0.0,0.0,0.0,0.0,0.0,0.0,0.0,0.0,0.0,0.0,0.0,0.0,0.0,0.0,0.0,0.0,0.0,0.0,0.8418,0.8366,0.702,0.0,0.0,0.0,0.0,0.0,0.0,0.0,0.0,0.0,0.0,1.3735,1.4649,1.6509,0.0,0.0,1.5137,1.5316,1.4694,1.5483,1.5051,1.1728,0.9521,0.0,0.0,0.0,0.0,0.0,0.0,0.0,0.0,0.0,0.0,0.0,0.0,0.0,0.0,0.0,0.0,0.0,0.0,0.0,0.0,0.0,0.0,0.0,0.0,0.0,0.0,0.0,0.0,0.0,0.0,0.0,0.0,0.0,0.0,0.0,0.0,0.0,0.0,0.0,0.0,0.0,0.0,0.0,0.0,0.0,0.0,0.0,0.0,0.0,0.0,0.0,0.0,1.0101,1.014,1.3281,1.4482,1.3614,1.2695,1.178,1.0922,0.9893,0.9031,0.0,0.0,0.0,0.0,0.0,0.0,0.0,0.0,0.0,0.0,0.0,0.0,0.0,0.0,0.0,0.0,0.0,0.0,0.0,0.0,0.0,0.0,0.0,0.0,0.0,0.0,0.0,0.0,0.7824,0.7715,0.5828,0.0,0.0,0.0,0.0,0.0,0.0,0.0,0.0,0.0,0.0,1.4303,1.546,1.6675,1.6919,1.5214,1.5213,1.5153,1.45,1.4841,1.4318,1.182,0.0,0.0,0.0,0.0,0.0,0.0,0.0,0.0,0.0,0.0,0.0,0.0,0.0,0.0,0.0,0.0,0.0,0.0,0.0,0.0,0.0,0.0,0.0,0.0,0.0,0.0,0.0,0.0,0.0,0.0,0.4705,0.0,0.0,0.0,0.0,0.0,0.0,0.0,0.0,0.0,0.0,0.0,0.0,0.0,0.0,0.0,0.0,0.0,0.0,0.0,0.0,0.0,0.0,0.0,1.0245,1.3319,1.4463,1.3596,1.2677,1.1785,1.0931,1.0233,0.9869,0.9797,0.0,0.0,0.0,0.0,0.0,0.0,0.0,0.0,0.0,0.0,0.0,0.0,0.0,0.0,0.0,0.0,0.0,0.0,0.0,0.0,0.0,0.0,0.0,0.0,0.0,0.0,0.7055,0.7231,0.6978,0.0,0.0,0.0,0.0,0.0,0.0,0.0,0.0,0.0,0.0,1.4336,1.5172,1.557,1.6298,1.6602,1.5866,1.4707,1.4113,1.4692,1.4288,1.36,0.0,0.0,0.0,0.0,0.0,0.0,0.0,0.0,0.0,0.0,0.0,0.0,0.0,0.0,0.0,0.0,0.0,0.0,0.0,0.0,0.0,0.0,0.0,0.0,0.0,0.0,0.0,0.7222,0.6723,0.0,0.0,0.0,0.0,0.0,0.0,0.0,0.0,0.0,0.0,0.0,1.0716,1.1263,0.0,0.0,0.0,0.0,0.0,0.0,0.0,0.0,0.0,0.0,0.0,0.0,1.0442,1.1067,1.3428,1.4361,1.3611,1.2547,1.1646,1.0908,1.0246,0.97,0.9311,0.0,0.0,0.0,0.0,0.0,0.0,0.0,0.0,0.0,0.0,0.0,0.0,0.0,0.0,0.0,0.0,0.0,0.0,0.0,0.0,0.0,0.0,0.0,0.0,0.0,0.7802,0.0,0.0,0.0,0.0,0.0,0.0,0.0,0.0,0.0,0.0,0.0,1.2058,1.4548,1.4355,1.4569,1.6187,1.7,1.7076,0.0,0.0,0.0,0.0,0.0,0.0,0.0,0.0,0.0,0.0,0.0,0.0,0.0,0.0,1.4784,1.2411,1.2189,1.2543,1.3031,0.0,0.0,0.0,0.0,0.0,0.0,0.0,0.0,0.0,0.0,0.0,0.0,0.0,0.0,0.8873,0.0,0.8293,0.0,0.0,0.0,0.0,0.0,0.0,0.0,0.0,1.1391,1.2201,1.248,1.3013,1.2964,0.0,1.2122,1.0642,0.0,0.0,0.0,0.0,0.0,0.0,0.0,0.0,1.0914,1.1506,1.3522,1.4271,1.3593,1.2597,1.1691,1.0917,1.0374,0.9875,0.9497,0.9217,0.8677,0.0,0.0,0.0,0.0,0.0,0.0,0.0,0.0,0.0,0.0,0.0,0.0,0.0,0.0,0.0,0.0,0.0,0.0,0.0,0.0,0.0,0.0,0.0,0.8116,0.0,0.0,0.0,0.0,0.0,0.0,0.0,0.0,0.0,1.1887,1.2145,1.3244,1.5779,1.5028,1.4648,1.5911,0.0,0.0,0.0,0.0,0.0,0.0,0.0,1.4213,1.4696,1.6965,1.8341,1.7204,1.4677,1.4208,1.8582,0.0,0.0,1.4903,1.4502,1.4824,1.5304,1.5464,1.5656,1.6121,1.6392,1.6018,0.0,0.0,0.0,0.0,0.0,0.0,0.0,0.0,1.036,0.9875,0.0,0.9875,0.0,0.0,0.0,0.0,0.0,0.0,0.0,0.0,1.4141,1.4922,1.416,1.4124,1.4129,1.4082,1.3268,1.2461,1.1582,1.082,0.0,0.0,0.0,0.0,0.0,0.0,1.1523,1.1683,1.359,1.4261,1.3609,1.2811,1.1913,1.0944,1.058,1.0404,1.0407,1.0211,0.9765,0.9052,0.8651,0.0,0.0,0.0,0.0,0.0,0.0,0.0,0.0,0.0,0.0,0.0,0.0,0.0,0.0,0.0,0.0,0.0,0.0,0.0,0.0,0.7316,0.0,0.0,0.0,0.0,0.0,0.0,0.0,0.0,0.0,0.0,1.7076,1.5744,1.5134,1.6823,0.0,0.0,0.0,0.0,1.5814,1.5873,1.6952,1.71,1.5306,1.4393,1.4743,1.7202,0.0,0.0,2.2175,2.0964,2.0356,2.1989,2.2231,2.1431,1.8471,1.7356,1.6937,1.6999,1.7202,1.7242,1.7311,1.785,1.8013,1.3642,0.0,0.0,0.0,0.0,1.1706,1.2193,1.2986,1.2981,1.2493,1.1691,1.1868,0.0,0.0,0.0,0.0,0.0,0.0,1.2225,1.3379,1.4141,1.4648,1.5039,1.4973,1.4979,1.4997,1.4743,1.4456,1.4219,1.3991,1.2231,0.9043,0.0,0.0,0.0,0.0,1.2125,1.3242,1.4061,1.4169,1.352,1.266,1.177,1.092,1.0794,1.077,1.0753,1.0717,1.0353,0.9688,0.9989,0.0,0.0,0.0,0.0,0.0,0.0,0.0,0.0,0.0,0.0,0.0,0.0,0.0,0.0,0.0,0.0,0.0,0.0,0.0,0.8925,1.0957,1.1196,0.0,0.0,0.0,0.0,0.0,0.0,0.0,0.0,0.0,1.747,1.5863,1.4997,0.0,0.0,1.5184,1.5899,1.5902,1.6114,1.7026,0.0,0.0,0.0,1.6563,1.6314,1.9466,2.1738,2.2564,2.0931,2.1184,2.1775,2.2276,2.3156,2.3241,2.1437,2.0411,2.0123,2.0567,2.1145,2.1742,2.2207,2.2149,2.1529,1.6258,1.4803,1.4104,1.4028,1.4333,1.4353,1.4828,1.5644,1.5621,1.511,1.4329,1.4599,1.3387,1.1211,1.2651,0.0,0.0,0.0,1.4355,1.5644,1.5644,1.5937,1.6387,1.6011,1.5835,1.5854,1.549,1.5279,1.5295,1.4953,1.3499,1.1043,0.0,0.0,1.1309,1.2147,1.3039,1.3934,1.4223,1.41,1.3595,1.2516,1.1715,1.1236,1.1036,1.0898,1.0897,1.0897,1.0717,1.0335,1.043,1.0063,0.0,0.0,0.0,0.0,0.0,0.0,0.0,0.0,0.0,0.0,0.0,0.7273,0.0,0.0,0.0,0.0,0.6664,0.8779,1.0656,1.1313,0.0,0.0,0.0,0.0,0.0,0.0,0.0,1.0156,1.295,1.572,1.7526,1.6982,1.6686,1.7467,1.6089,1.5284,1.6095,0.0,1.6638,1.8942,2.0289,2.0824,2.0126,1.903,1.9405,2.272,2.3777,2.3971,2.2987,2.3004,2.3376,2.3985,2.4763,2.5084,2.4205,2.3456,2.3026,2.338,2.3646,2.3938,2.4139,2.3803,2.309,1.8114,1.8029,1.6456,1.619,1.6775,1.6794,1.7245,1.7969,1.791,1.7443,1.6772,1.7472,1.6042,1.3319,1.6573,0.0,1.6816,1.6797,1.7207,1.8008,1.8008,1.8008,1.7969,1.7105,1.6697,1.6669,1.5861,1.5445,1.5368,1.4595,1.4123,1.3994,1.4065,1.3651,1.287,1.3601,1.3986,1.3917,1.4122,1.4042,1.368,1.2399,1.1758,1.1721,1.1205,1.0934,1.0916,1.092,1.0897,1.0873,1.0298,1.0273,1.0725,0.0,0.0,0.0,0.0,0.0,0.0,0.0,0.0,0.0,0.0,0.0,0.0,0.0,0.0,0.0,0.9704,0.0,1.0636,0.9518,0.0,0.0,0.0,1.3132,1.3597,1.4324,1.4611,1.4173,0.0,0.0,1.7849,0.0,1.9572,1.9704,1.7579,1.6033,1.612,1.6215,1.7524,2.1409,2.2754,2.2697,2.1205,2.1541,2.3079,2.5799,2.6133,2.5862,2.6234,2.5524,2.5304,2.6251,2.6674,2.664,2.6674,2.5947,2.5593,2.5225,2.4903,2.4473,2.4033,2.3606,2.3303,1.9712,1.9789,1.9378,1.8593,1.7618,1.7618,1.775,1.791,1.7909,1.7782,1.7598,1.7733,1.7374,1.6728,1.8072,1.8312,1.7695,1.7695,1.7793,1.8008,1.8008,1.8008,1.7988,1.7716,1.7587,1.7562,1.7279,1.6798,1.622,1.6009,1.5228,1.3983,1.3994,1.3613,1.285,1.3,1.3388,1.397,1.3738,1.3541,1.3391,1.253,1.2095,1.2056,1.1519,1.1206,1.1219,1.1015,1.0897,1.0897,1.0753,1.0729,1.0897,1.0271,0.0,0.0,0.0,0.0,0.0,0.0,0.0,0.0,0.0,0.828,0.7877,0.0,0.9447,0.0,0.7875,1.0246,1.0859,0.9704,0.0,0.0,1.4174,1.6089,1.6595,1.6993,1.6515,1.4613,1.7235,1.9722,2.1063,2.1448,2.1606,2.1591,2.0432,1.9412,1.9078,1.8889,2.0086,2.3503,2.4509,2.4244,2.3117,2.3919,2.5173,2.6505,2.6539,2.6505,2.6674,2.642,2.6302,2.6623,2.6708,2.6708,2.6708,2.6522,2.6236,2.5737,2.5603,2.5469,2.4931,2.4411,2.4171,2.0017,2.0215,2.0215,1.9671,1.8811,1.8958,1.9027,1.9,1.9052,1.9055,1.9005,1.8969,1.8996,1.9088,1.947,1.9472,1.916,1.916,1.916,1.916,1.916,1.916,1.9121,1.869,1.8484,1.8458,1.7946,1.7472,1.7048,1.7042,1.6542,1.5606,1.5618,1.5071,1.3876,1.3134,1.2927,1.3284,1.3157,1.3196,1.3392,1.2736,1.2194,1.1808,1.1243,1.0786,1.0518,1.0299,1.0177,1.0278,1.0934,1.1164,1.092,1.094,0.9242,0.0,0.0,0.0,0.0,0.0,0.0,0.0,0.0,0.0,0.0,0.0,1.1307,0.0,0.9961,1.1059,1.1417,1.2297,1.3167,1.4005,1.7067,1.9031,1.8964,1.9415,1.9225,1.791,1.9552,2.1178,2.2173,2.2327,2.2327,2.231,2.182,2.138,2.1174,2.1462,2.2824,2.5389,2.5855,2.5671,2.4955,2.5582,2.628,2.6624,2.6708,2.6708,2.6708,2.6708,2.6708,2.6708,2.6708,2.6708,2.6708,2.6708,2.647,2.5908,2.554,2.5275,2.4934,2.4792,2.4792,1.9654,1.999,1.999,1.9943,1.9901,2.0194,2.0345,2.0354,2.0441,2.0447,2.039,2.0425,2.0441,2.0512,2.0564,2.0608,2.0605,2.0605,2.0605,2.0605,2.0605,2.0605,2.0566,1.9756,1.9376,1.9308,1.8477,1.7977,1.7879,1.7984,1.7862,1.7553,1.7535,1.676,1.5189,1.3628,1.2708,1.2388,1.2629,1.2987,1.3474,1.2738,1.1973,1.1235,1.0651,1.0095,0.9569,0.9351,0.9332,0.9584,1.0722,1.1213,1.0694,1.0018,0.8873,0.0,0.6992,0.0,0.0,0.0,0.0,0.0,0.0,0.0,0.0,1.138,1.1806,1.3532,1.3853,1.3515,1.2466,1.5663,1.783,1.8003,2.0408,2.1801,2.1092,2.1564,2.199,2.2096,2.1555,2.149,2.2181,2.2327,2.2327,2.2327,2.2412,2.2361,2.2412,2.3469,2.4938,2.6505,2.6708,2.6539,2.6505,2.6624,2.6657,2.6691,2.6708,2.6708,2.6708,2.6708,2.6708,2.6708,2.6708,2.6708,2.6708,2.6708,2.647,2.5872,2.5427,2.5005,2.4592,2.4632,2.4672,1.9492,1.9828,1.9847,1.9816,1.9823,1.9885,2.0003,2.0158,2.0288,2.0348,2.041,2.0443,2.0472,2.0504,2.0568,2.0601,2.0605,2.0605,2.0605,2.0605,2.0605,2.0605,2.0586,2.035,2.0221,2.0165,1.9958,1.9485,1.8773,1.9475,1.8756,1.6766,1.6734,1.6234,1.5209,0.0,0.0,0.0,1.2725,1.2932,1.2904,1.1608,1.0831,1.0655,0.9967,0.0,0.9805,0.9536,0.9484,0.9802,0.9541,0.0,0.0,0.0,0.0,0.0,0.0,0.0,0.0,0.0,0.0,0.0,1.2243,1.1366,1.0505,1.0836,1.2229,1.4902,1.6255,1.6407,1.5071,1.6627,1.9152,2.2424,2.3381,2.3695,2.3511,2.307,2.2997,2.3656,2.3294,2.2772,2.236,2.2327,2.2327,2.2395,2.2818,2.2919,2.2446,2.3951,2.5456,2.6471,2.6708,2.6708,2.6708,2.6708,2.6708,2.6708,2.6708,2.6708,2.6708,2.6708,2.6708,2.6708,2.6708,2.6708,2.6708,2.6708,2.6539,2.6049,2.6139,2.5928,2.4697,2.4142,2.3837,2.0071,0.0,2.0141,1.9931,0.0,1.965,1.9755,1.9874,2.0103,2.0257,2.0418,2.0481,2.0516,2.0511,2.0579,2.0605,2.0605,2.0605,2.0605,2.0605,2.0605,2.0605,2.0605,2.0547,2.0486,2.0404,2.0357,2.01,1.9684,2.0077,1.9634,1.8388,1.8388,1.7946,1.7061,1.5687,1.4312,1.2952,1.2881,1.3012,1.328,1.2167,1.1317,1.0891,0.0,0.0,0.0,0.0,0.0,0.0,0.0,0.0,0.0,0.0,0.0,1.2157,1.2236,1.1214,0.9026,1.0619,1.2553,1.4328,1.4298,1.3145,1.0737,1.2246,1.4242,1.6458,1.7349,1.7781,1.7742,1.7774,1.9512,2.3579,2.419,2.419,2.4153,2.3841,2.3637,2.3767,2.3656,2.3193,2.2422,2.2327,2.2479,2.2818,2.3257,2.3646,2.3816,2.4678,2.5727,2.6539,2.6708,2.6708,2.6708,2.6708,2.6708,2.6708,2.6708,2.6708,2.6708,2.6708,2.6708,2.6708,2.6708,2.6708,2.6708,2.6708,2.6624,2.6401,2.6245,2.6052,2.5297,2.4776,2.4225,2.0722,2.0656,2.0688,2.0335,1.9761,1.993,2.0029,2.0087,0.0,0.0,0.0,2.0529,2.0582,2.0723,2.0644,2.0605,2.0605,2.0605,2.0605,2.0605,2.0605,2.0605,2.0605,2.0547,2.0479,2.0387,2.034,2.0312,2.0292,2.0292,2.0277,2.0269,2.0277,1.9869,1.8939,1.7356,1.58,1.4268,1.3238,1.3037,1.3651,1.2742,1.1893,1.1171,1.0672,1.0122,0.9603,0.9408,0.9408,0.9559,0.951,0.8952,0.7996,1.1043,1.3177,1.3752,1.3803,1.3118,1.1661,1.2923,1.4374,1.5756,1.6072,1.4951,1.2107,1.4246,1.6385,1.7928,1.79,1.8415,1.9905,1.9469,2.0326,2.3857,2.419,2.419,2.419,2.419,2.3998,2.3602,2.3473,2.3153,2.2432,2.2446,2.2716,2.3342,2.3866,2.4425,2.527,2.5659,2.6031,2.6573,2.6708,2.6708,2.6708,2.6708,2.6708,2.6708,2.6708,2.6708,2.6708,2.6708,2.6708,2.6708,2.6708,2.6708,2.6708,2.6708,2.6708,2.6708,2.6297,2.5888,2.5924,2.5652,2.495,2.0714,2.1204,2.1497,2.1564,2.1454,2.1471,2.1659,2.1802,2.0581,2.0545,2.138,2.0711,2.0845,2.1562,2.0898,2.0605,2.0605,2.0605,2.0605,0.0,2.0605,2.0605,2.0605,2.0605,2.0518,2.0406,2.0386,2.0369,2.0312,2.0292,2.0225,2.0078,2.0225,1.985,1.9016,1.8488,1.7763,1.6743,1.415,1.2846,1.2917,1.1545,1.074,1.0607,1.0235,0.9964,0.9832,0.985,0.9802,0.9839,0.9983,1.0078,1.016,1.072,1.2273,1.5001,1.5291,1.4651,1.3225,1.4462,1.5758,1.6766,1.6928,1.6348,1.5143,1.5784,1.708,1.8825,1.8388,1.8631,2.0615,2.2213,2.332,2.406,2.419,2.419,2.419,2.419,2.4012,2.3552,2.3348,2.3014,2.2494,2.2835,2.3308,2.3799,2.4644,2.5592,2.6184,2.6505,2.6573,2.6674,2.6708,2.6708,2.6708,2.6708,2.6708,2.6708,2.6708,2.6708,2.6708,2.6708,2.6708,2.6708,2.6708,2.6708,2.6708,2.6708,2.6708,2.6708,2.6556,2.6401,2.6104,2.5961,2.5411,2.1691,2.1976,2.2319,2.2189,2.1784,2.1881,2.2062,2.2237,2.1684,2.1752,2.2197,2.1477,2.1629,2.236,2.1163,2.0859,2.1289,2.0776,2.0567,2.0605,2.0566,2.0566,2.0605,2.0605,2.0537,2.0387,2.0386,2.035,2.0292,2.0292,2.0197,2.0022,2.0078,1.9933,1.9531,1.8916,1.8396,1.796,1.5832,1.4494,1.4048,1.3006,1.2253,1.1856,1.1404,1.1425,1.1933,1.1818,1.1989,1.2545,1.2787,1.2528,1.1749,1.1975,1.3527,1.6522,1.6796,1.626,1.5044,1.6274,1.7366,1.8056,1.8128,1.7986,1.7648,1.7577,1.8075,1.9235,2.0382,2.1316,2.1633,2.3148,2.419,2.419,2.419,2.419,2.419,2.419,2.3974,2.3435,2.3265,2.2982,2.2377,2.2936,2.3748,2.4441,2.5524,2.6336,2.664,2.6708,2.6708,2.6708,2.6708,2.6708,2.6708,2.6708,2.6708,2.6708,2.6708,2.6708,2.6708,2.6708,2.6708,2.6708,2.6708,2.6708,2.6708,2.6708,2.6708,2.6708,2.6708,2.659,2.6453,2.6383,2.5693,2.2534,2.2668,2.3103,2.2941,2.2439,2.2554,2.2727,2.2925,2.3149,2.3333,2.3321,2.2238,2.2227,2.2914,2.1533,2.1152,2.1484,2.1064,2.0718,2.0586,2.0526,2.0547,2.0605,2.0605,2.0537,2.0406,2.0379,2.035,2.0312,2.0292,2.0197,2.0012,1.9934,1.9943,1.9984,1.9222,1.8825,1.8787,1.7533,1.6355,1.5398,1.4653,1.4027,1.3519,1.3039,1.3147,1.3897,1.3727,1.4003,1.475,1.5053,1.4546,1.3231,1.3602,1.5071,1.7456,1.7922,1.765,1.6973,1.7807,1.8569,1.8966,1.9002,1.9067,1.9243,1.8982,1.8914,1.9557,2.2173,2.3654,2.2932,2.3524,2.419,2.419,2.419,2.419,2.419,2.419,2.3955,2.3346,2.3348,2.3193,2.2675,2.3241,2.4357,2.5423,2.6283,2.6774,2.6725,2.6708,2.6708,2.6708,2.6708,2.6708,2.6708,2.6708,2.6708,2.6708,2.6708,2.6708,2.6708,2.6708,2.6708,2.6708,2.6708,2.6708,2.6708,2.6708,2.6708,2.6708,2.6708,2.6657,2.647,2.6315,2.5892,2.241,2.3176,2.3771,2.4137,2.4199,2.4385,2.4566,2.4719,2.5011,2.5187,2.4947,2.2765,2.2288,2.2915,2.2191,2.1445,2.0955,2.1394,2.127,2.0669,2.0523,2.0527,2.0605,2.0605,2.0518,2.0406,2.0379,2.0369,2.0292,2.0304,2.0197,1.9993,1.9762,1.9755,1.9934,1.9656,1.9551,1.9665,1.8828,1.7684,1.625,1.5279,1.4893,1.4982,1.4688,1.4603,1.4729,1.4664,1.4696,1.4804,1.5103,1.5042,1.4708,1.5121,1.612,1.7681,1.8249,1.8473,1.8403,1.8609,1.8807,1.8966,1.9055,1.9157,1.9329,1.9295,1.9261,1.9953,2.2373,2.4005,2.4023,2.4135,2.419,2.419,2.419,2.419,2.4208,2.419,2.3937,2.3277,2.3819,2.3762,2.3044,2.4241,2.5671,2.6415,2.6928,2.7083,2.6758,2.6708,2.6708,2.6708,2.6708,2.6708,2.6708,2.6708,2.6708,2.6708,2.6708,2.6708,2.6708,2.6708,2.6708,2.6708,2.6708,2.6708,2.6708,2.6708,2.6708,2.6691,2.6657,2.6556,2.6139,2.5762,2.5259,2.2479,2.3253,2.3714,2.4135,2.4491,2.4795,2.4981,2.5069,2.5299,2.5466,2.5361,2.3909,2.3734,2.4503,2.2728,2.2188,2.268,2.1543,2.1127,2.1212,2.0718,2.0495,2.0586,2.0605,2.0518,2.0406,2.0379,2.035,2.0296,2.0188,2.0041,1.989,1.9774,1.9767,1.9869,1.9695,1.9675,1.9767,1.9282,1.8574,1.7665,1.6551,1.5792,1.5452,1.5168,1.5341,1.5844,1.5786,1.5962,1.6525,1.6686,1.6703,1.6564,1.6773,1.7301,1.8197,1.8469,1.8642,1.8717,1.8842,1.9017,1.9166,1.962,1.9981,2.0246,2.0556,2.1125,2.2208,2.3419,2.419,2.419,2.419,2.419,2.419,2.419,2.4208,2.419,2.4612,2.4629,2.4046,2.4527,2.4919,2.4823,2.6022,2.7122,2.7417,2.756,2.7409,2.6858,2.6708,2.6708,2.6708,2.6708,2.6708,2.6708,2.6708,2.6708,2.6708,2.6708,2.6708,2.6708,2.6708,2.6708,2.6708,2.6708,2.6708,2.6708,2.6708,2.6708,2.6657,2.6367,2.6068,2.5221,2.5144,2.4973,2.2539,2.3275,2.3741,2.4174,2.4591,2.4831,2.505,2.5199,2.5351,2.5513,2.5524,2.4947,2.5033,2.5332,2.3496,2.3143,2.3638,2.1978,2.1359,2.1664,2.0822,2.0475,2.0586,2.0605,2.0518,2.0406,2.0379,2.0369,2.0296,2.0087,1.9954,1.9863,1.9836,1.9809,1.9778,1.9656,1.9649,1.9688,1.9402,1.9057,1.8607,1.7673,1.6804,1.6251,1.6011,1.6254,1.6944,1.6792,1.7043,1.7738,1.7789,1.7789,1.7789,1.7789,1.8103,1.8698,1.8752,1.8771,1.8929,1.9033,1.9295,1.9714,2.0262,2.0759,2.129,2.1656,2.2537,2.3859,2.419,2.419,2.419,2.419,2.419,2.419,2.419,2.4263,2.4538,2.5047,2.5063,2.4699,2.5156,2.5858,2.6416,2.7477,2.8254,2.7936,2.7936,2.7823,2.721,2.6971,2.6858,2.6725,2.6708,2.6708,2.6708,2.6708,2.6708,2.6708,2.6708,2.6708,2.6708,2.6708,2.6708,2.6708,2.6708,2.6708,2.6708,2.6708,2.6758,2.6668,2.6409,2.5938,2.544,2.508,2.4436,2.2511,2.3533,2.4192,2.4572,2.4771,2.4832,2.5038,2.5389,2.5453,2.5524,2.561,2.5601,2.5653,2.5644,2.4629,2.3852,2.3226,2.2859,2.2326,2.1745,2.0842,2.0475,2.0586,2.0605,2.0536,2.0406,2.0386,2.0369,2.0304,2.0115,1.9982,1.9975,1.9865,1.9809,1.9786,1.9656,1.9596,1.9582,1.9264,1.9019,1.8931,1.8403,1.7952,1.7618,1.7631,1.7597,1.7726,1.7721,1.7755,1.7794,1.7789,1.7789,1.7789,1.7816,1.8296,1.9097,1.9084,1.9067,1.9227,1.9314,1.9714,2.0574,2.0704,2.1106,2.2226,2.2189,2.2666,2.4061,2.419,2.419,2.419,2.419,2.4245,2.43,2.4281,2.4649,2.5273,2.5284,2.5111,2.5243,2.5772,2.6417,2.7152,2.8254,2.8507,2.8228,2.821,2.8237,2.7908,2.753,2.7147,2.6825,2.6708,2.6708,2.6708,2.6708,2.6708,2.6742,2.6776,2.6742,2.6708,2.6708,2.6708,2.6708,2.6708,2.6708,2.6708,2.6741,2.6831,2.678,2.6687,2.626,2.5731,2.4589,2.413,2.2723,2.3856,2.4538,2.4858,2.4943,2.5099,2.5297,2.5466,2.5539,2.5583,2.5664,2.5703,2.5703,2.5684,2.5332,2.4686,2.3805,2.2667,2.1968,2.1636,2.0812,2.0475,2.0584,2.0568,2.0482,2.0413,2.0366,2.0331,2.0304,2.0233,2.0109,1.9986,1.9846,1.9809,1.9774,1.9656,1.9596,1.9601,1.9442,1.928,1.9018,1.8825,1.8506,1.81,1.7883,1.7789,1.7789,1.7789,1.7789,1.7789,1.7789,1.7789,1.7861,1.8417,1.8893,1.9243,1.9246,1.923,1.9363,1.9785,2.0299,2.0849,2.1694,2.2226,2.2813,2.3144,2.3584,2.4043,2.419,2.419,2.419,2.419,2.4484,2.5129,2.5531,2.5805,2.6109,2.6304,2.6314,2.6251,2.6627,2.7233,2.7794,2.8515,2.8863,2.8694,2.8718,2.87,2.8551,2.8191,2.7574,2.6891,2.6708,2.686,2.7402,2.6945,2.6725,2.686,2.6945,2.6996,2.6996,2.6928,2.6911,2.6826,2.6793,2.7432,2.7683,2.7574,2.7493,2.6848,2.6717,2.6758,2.6016,2.547,2.5167,2.3285,2.4242,2.4807,2.4998,2.5056,2.5225,2.5397,2.5524,2.5572,2.5628,2.5703,2.5703,2.5703,2.5684,2.5605,2.5087,2.4244,2.3002,2.2476,2.2425,2.1637,2.1153,2.1,2.094,2.0732,2.0421,2.0339,2.0292,2.0292,2.0292,2.0227,2.0115,1.9935,1.9836,1.9778,1.9656,1.9569,1.9513,1.9499,1.9353,1.9117,1.9033,1.8825,1.845,1.8108,1.7879,1.7811,1.7905,1.7905,1.7816,1.7861,1.7883,1.7905,1.8753,1.9286,1.9323,1.9546,1.9546,1.9473,2.0317,2.1216,2.1896,2.252,2.307,2.3382,2.3896,2.4153,2.419,2.419,2.419,2.4428,2.5126,2.5788,2.5974,2.6431,2.6888,2.6976,2.709,2.7069,2.7032,2.7531,2.8013,2.8201,2.8658,2.8929,2.8975,2.8975,2.8975,2.8923,2.8528,2.7848,2.699,2.7298,2.7521,2.7896,2.7777,2.7776,2.7929,2.7791,2.7689,2.7503,2.7368,2.7283,2.7097,2.7467,2.8266,2.8577,2.8458,2.7904,2.7146,2.7344,2.755,2.707,2.6736,2.6447,2.4169,2.4771,2.4949,2.5075,2.5126,2.5177,2.5317,2.5572,2.5601,2.5701,2.5859,2.5742,2.5742,2.5742,2.5634,2.5082,2.4456,2.4147,2.3936,2.375,2.3123,2.2372,2.1707,2.176,2.1278,2.0458,2.0312,2.0292,2.0292,2.0285,2.0285,2.0241,2.006,1.9871,1.9797,1.9669,1.9527,1.9394,1.938,1.9335,1.9253,1.913,1.8988,1.8914,1.8487,1.8141,1.7861,1.8107,1.8086,1.7905,1.804,1.8061,1.8035,1.8771,1.9286,1.9399,2.0023,2.0097,1.9803,2.0996,2.2446,2.3456,2.3437,2.3419,2.3951,2.4153,2.419,2.419,2.419,2.419,2.4649,2.6796,2.7882,2.636,2.6964,2.7567,2.7706,2.7476,2.7271,2.7568,2.8264,2.8682,2.8471,2.8682,2.8975,2.8975,2.9085,2.9108,2.902,2.8724,2.7917,2.7641,2.8109,2.8722,2.8747,2.8699,2.8989,2.9191,2.8963,2.8789,2.8501,2.8349,2.8518,2.8431,2.8732,2.9423,2.8809,2.8645,2.8398,2.7915,2.8247,2.8311,2.7966,2.7601,2.7493,2.453,2.5037,2.5252,2.5357,2.5365,2.5423,2.5522,2.561,2.5648,2.6002,2.6406,2.5957,2.5996,2.625,2.5829,2.5322,2.5053,2.4957,2.437,2.3435,2.3069,2.2566,2.1995,2.23,2.2034,2.1158,2.0562,2.0292,2.0292,2.0285,2.0225,2.0079,1.9941,1.9809,1.9669,1.9707,1.965,1.9536,1.9599,1.9599,1.9495,1.9313,1.9143,1.9018,1.8967,1.877,1.8371,1.8103,1.7997,1.8061,1.8146,1.8249,1.8432,1.8946,1.9271,1.9415,2.0244,2.151,2.2501,2.2593,2.307,2.3914,2.3933,2.3933,2.4135,2.419,2.419,2.419,2.419,2.419,2.4722,2.7108,2.8493,2.8073,2.8294,2.8466,2.8498,2.8466,2.8236,2.7921,2.8482,2.8858,2.8815,2.897,2.9067,2.914,2.947,2.9696,2.9216,2.9394,3.0064,3.0547,3.0568,3.007,3.0024,3.0055,3.0283,3.0208,2.9972,2.9688,2.9414,2.9431,2.9617,2.9415,2.9782,2.9686,2.9114,2.8777,2.8511,2.8602,2.8715,2.8639,2.8575,2.8367,2.8174,2.4722,2.5229,2.5427,2.5511,2.5534,2.5582,2.5614,2.564,2.567,2.6191,2.6738,2.6406,2.6398,2.6685,2.6209,2.5736,2.5418,2.5262,2.4656,2.3822,2.3796,2.3385,2.2694,2.2724,2.2399,2.1573,2.1004,2.0581,2.0285,2.0233,2.0125,1.9992,1.9821,1.9695,1.9609,1.9682,1.9682,1.9623,1.9682,1.9682,1.9582,1.9413,1.9261,1.9134,1.915,1.9052,1.8734,1.833,1.8184,1.831,1.8333,1.843,1.8623,1.9031,1.9286,1.958,2.0737,2.2334,2.3878,2.3657,2.3639,2.4098,2.419,2.419,2.419,2.419,2.419,2.419,2.419,2.4667,2.6062,2.7618,2.8915,2.8968,2.8956,2.8998,2.8975,2.8975,2.8821,2.8507,2.8743,2.8952,2.8994,2.9324,2.9475,2.9659,3.0191,3.0558,3.0137,3.0305,3.1438,3.2289,3.2277,3.1817,3.1391,3.1432,3.1583,3.1304,3.0936,3.0544,3.0192,3.0391,3.0572,2.9323,2.9175,2.9085,2.8607,2.8607,2.8498,2.8779,2.9012,2.8873,2.8732,2.8685,2.8448,2.4813,2.5399,2.5479,2.5593,2.5708,2.5661,2.5698,2.5793,2.5699,2.6172,2.6816,2.6831,2.6824,2.6851,2.6629,2.6149,2.5475,2.513,2.4996,2.4912,2.4982,2.4659,2.4043,2.3198,2.2382,2.1773,2.1504,2.1004,2.0285,2.0096,1.9984,1.9914,1.9744,1.9601,1.9569,1.9596,1.963,1.9636,1.9636,1.9636,1.9609,1.9413,1.9289,1.9274,1.9137,1.9091,1.9146,1.8949,1.8729,1.8641,1.8659,1.8679,1.8734,1.9064,1.9286,1.9418,2.1412,2.2941,2.397,2.4116,2.4098,2.4171,2.419,2.419,2.419,2.419,2.419,2.4245,2.463,2.5866,2.8101,2.8893,2.9003,2.8998,2.8998,2.8975,2.8975,2.8975,2.8929,2.8929,2.8975,2.8975,2.9053,2.9641,3.0246,3.087,3.1237,3.1219,3.1274,3.1422,3.2232,3.2693,3.2944,3.2832,3.2222,3.2161,3.2237,3.1847,3.1431,3.0985,3.0768,3.0965,3.074,2.9524,2.8496,2.8352,2.8415,2.8463,2.8732,2.9088,2.9134,2.8996,2.8966,2.8966,2.8574,2.5061,2.5543,2.5629,2.6005,2.6432,2.5937,2.5996,2.6389,2.5848,2.6119,2.6777,2.685,2.6873,2.6808,2.6737,2.6206,2.5465,2.5088,2.4991,2.4998,2.4949,2.4943,2.4492,2.3299,2.2566,2.2399,2.185,2.1004,2.0142,2.004,1.9903,1.9712,1.9643,1.9513,1.9423,1.9625,1.9757,1.975,1.9738,1.9738,1.9701,1.9452,1.9305,1.9289,1.9246,1.949,1.9999,2.0041,1.9612,1.8967,1.9049,1.9113,1.9097,1.9209,1.9396,2.0003,2.2078,2.3823,2.4099,2.419,2.419,2.419,2.419,2.419,2.419,2.419,2.419,2.4612,2.6117,2.7934,2.8813,2.9003,2.8993,2.8975,2.8975,2.8975,2.8975,2.8975,2.8975,2.8975,2.8994,2.9049,2.914,2.9861,3.0944,3.221,3.2339,3.1935,3.1953,3.2423,3.313,3.285,3.2979,3.3081,3.3045,3.2955,3.2727,3.2315,3.1771,3.1145,3.1038,3.1123,3.0518,2.954,2.8352,2.7944,2.8271,2.8527,2.8919,2.9361,2.9653,2.9685,2.938,2.9273,2.87,2.5226,2.5576,2.5618,2.5912,2.6232,2.5828,2.59,2.6152,2.5836,2.6099,2.6835,2.7217,2.7115,2.6844,2.7073,2.6476,2.5389,2.5088,2.4974,2.4877,2.4666,2.4704,2.4658,2.3873,2.3492,2.3226,2.2466,2.1543,2.0636,2.0146,1.9824,1.9626,1.9504,1.9413,1.935,1.9619,1.9809,1.9809,1.9809,1.9809,1.9786,1.9458,1.9316,1.9286,1.9305,1.9583,1.9932,1.9987,1.9671,1.9175,1.9164,1.9286,1.9286,1.9286,1.9911,2.1161,2.3235,2.419,2.419,2.419,2.419,2.419,2.419,2.4392,2.452,2.4447,2.4337,2.575,2.7765,2.8751,2.8989,2.8994,2.8989,2.8975,2.8975,2.8994,2.8994,2.8975,2.8975,2.9049,2.9269,2.9324,2.914,3.0283,3.1861,3.3128,3.3201,3.2852,3.2687,3.3358,3.3504,3.2947,3.2598,3.2627,3.3123,3.3225,3.3041,3.2595,3.1685,3.1133,3.0975,3.0918,3.0064,2.9118,2.8207,2.776,2.8189,2.8606,2.9058,2.9515,3.006,3.0359,3.0154,2.9996,2.9312,2.5323,2.5519,2.558,2.5611,2.5687,2.5601,2.5712,2.5762,2.5661,2.6014,2.6745,2.7539,2.7196,2.6745,2.7142,2.6774,2.5168,2.5011,2.4917,2.4693,2.4459,2.4474,2.482,2.4765,2.4347,2.3899,2.3226,2.2293,2.1329,2.0437,1.9919,1.9702,1.9505,1.9393,1.9383,1.965,1.9797,1.9809,1.9809,1.9809,1.9806,1.9639,1.9596,1.9611,1.9825,1.9592,1.9562,1.9583,1.9612,1.9229,1.9285,1.9289,1.9323,1.9415,2.1106,2.3217,2.3969,2.419,2.419,2.419,2.419,2.4208,2.43,2.4593,2.5052,2.4924,2.5328,2.6704,2.8278,2.8879,2.8997,2.8998,2.8998,2.8975,2.8975,2.9012,2.9104,2.9122,2.9085,2.9067,2.9751,2.9879,3.0283,3.1139,3.2871,3.3458,3.355,3.3421,3.3256,3.3568,3.3178,3.2298,3.2109,3.2021,3.2727,3.3465,3.3176,3.2791,3.1579,3.085,3.0609,3.0293,2.948,2.8654,2.8271,2.8176,2.8334,2.8748,2.9324,2.9897,3.0612,3.099,3.1169,3.1045,3.0577,2.5293,2.5569,2.5552,2.59,2.6294,2.5851,2.5929,2.6359,2.5756,2.5669,2.5994,2.6653,2.6523,2.5852,2.6568,2.6014,2.4687,2.4766,2.4845,2.4524,2.4339,2.4339,2.462,2.4752,2.448,2.3995,2.389,2.2936,2.1692,2.1453,2.095,1.9756,1.9939,1.9913,1.9424,1.9694,1.9809,1.9809,1.9828,1.9847,1.9882,2.0033,2.011,2.0209,2.0788,2.048,1.9835,2.059,2.0949,2.0403,1.98,1.9534,1.9856,2.1657,2.3199,2.3804,2.419,2.419,2.419,2.419,2.419,2.4245,2.4722,2.5219,2.5384,2.5841,2.619,2.7034,2.8077,2.892,2.8975,2.8975,2.8975,2.8975,2.9049,2.931,2.9769,2.9916,2.9659,2.9586,3.0356,3.1531,3.2467,3.2184,3.3146,3.3678,3.3807,3.3807,3.3807,3.3807,3.2965,3.2021,3.2162,3.2162,3.2537,3.3291,3.3375,3.2944,3.1782,3.0882,3.0604,3.0101,2.9407,2.9022,2.8671,2.8728,2.9152,2.9514,3.0212,3.0685,3.1167,3.1613,3.189,3.1931,3.2078,2.5359,2.5544,2.5486,2.5668,2.5956,2.5717,2.579,2.6022,2.5703,2.5518,2.571,2.6334,2.62,2.5561,2.6227,2.5776,2.4501,2.4361,2.4321,2.4164,2.4207,2.441,2.4512,2.4682,2.4604,2.4343,2.4158,2.3226,2.2365,2.2019,2.1288,1.9774,2.0213,2.0005,1.9586,2.0,2.0149,1.9979,2.0217,2.0236,1.9931,1.9866,2.0205,2.0583,2.1293,2.1279,2.0719,2.1252,2.1808,2.1726,2.1156,2.0626,2.0825,2.2776,2.4025,2.419,2.419,2.419,2.419,2.419,2.419,2.4245,2.4962,2.5531,2.586,2.6392,2.7016,2.7677,2.8466,2.8975,2.8975,2.8975,2.8975,2.909,2.9347,2.9756,3.011,3.0215,3.0411,3.0503,3.1421,3.2449,3.3109,3.3164,3.3311,3.3788,3.3807,3.3807,3.3807,3.368,3.2759,3.2144,3.2316,3.2453,3.2623,3.3044,3.3477,3.2995,3.211,3.1391,3.0999,3.0323,2.9614,2.9647,2.9874,3.0105,3.0479,3.0812,3.0874,3.1198,3.1675,3.2236,3.2782,3.3059,3.343,2.5382,2.5418,2.536,2.5302,2.5283,2.5399,2.5484,2.5535,2.5519,2.5537,2.5657,2.6223,2.5984,2.5697,2.6128,2.5564,2.4657,2.4018,2.3962,2.4153,2.4412,2.4545,2.461,2.4727,2.4818,2.4891,2.4589,2.3765,2.3063,2.2659,2.2062,2.0474,2.0455,2.0521,2.0154,2.0469,2.0852,2.0545,2.0776,2.0739,2.022,1.9967,2.0252,2.0985,2.1658,2.1913,2.1657,2.1948,2.2401,2.3201,2.2905,2.258,2.2685,2.329,2.419,2.419,2.419,2.419,2.419,2.4226,2.4281,2.4447,2.5162,2.5952,2.6594,2.709,2.7732,2.8352,2.8975,2.8975,2.8975,2.8975,2.9067,2.931,2.9879,3.0312,3.0538,3.057,3.1146,3.1795,3.2339,3.3146,3.3513,3.3642,3.3752,3.3807,3.3807,3.3807,3.3807,3.3625,3.2872,3.2282,3.2384,3.284,3.3068,3.3981,3.4305,3.3612,3.2718,3.2062,3.1548,3.0954,3.0584,3.1094,3.1388,3.1533,3.1373,3.1212,3.133,3.1674,3.2192,3.2902,3.355,3.4213,3.4549,2.5109,2.5173,2.5109,2.5065,2.5069,2.5205,2.5348,2.5498,2.5545,2.555,2.5552,2.5639,2.5663,2.5543,2.5588,2.5457,2.4946,2.4374,2.4217,2.4555,2.4761,2.4745,2.4764,2.4808,2.4828,2.491,2.4889,2.4534,2.403,2.4088,2.3126,2.2063,2.1642,2.14,2.1126,2.1297,2.1343,2.1167,2.1173,2.0909,2.0633,2.0788,2.1151,2.1912,2.2482,2.2502,2.2189,2.25,2.3023,2.3455,2.4054,2.4233,2.4098,2.4171,2.4191,2.419,2.419,2.419,2.419,2.4263,2.4942,2.5805,2.6319,2.6722,2.7457,2.8117,2.8521,2.876,2.8975,2.8975,2.8975,2.8975,2.9397,2.9861,3.0411,3.1005,3.1783,3.2089,3.2089,3.2445,3.3062,3.355,3.3697,3.3807,3.3807,3.3807,3.3807,3.3807,3.3807,3.368,3.3332,3.284,3.2468,3.3014,3.3541,3.4774,3.5456,3.4627,3.3799,3.2967,3.2412,3.1811,3.1759,3.239,3.2578,3.2477,3.223,3.1759,3.1612,3.181,3.2637,3.3561,3.404,3.4475,3.5073,2.5034,2.5092,2.5011,2.4962,2.4924,2.5086,2.5232,2.5362,2.5481,2.5517,2.5506,2.5474,2.5428,2.5416,2.5466,2.5305,2.4855,2.4473,2.4316,2.4566,2.4812,2.4985,2.4966,2.4953,2.5,2.508,2.5194,2.4851,2.4091,2.4486,2.3873,2.2703,2.2337,2.2024,2.1463,2.1541,2.1387,2.1337,2.1104,2.0853,2.0482,2.0934,2.1749,2.2447,2.3209,2.3363,2.3253,2.3309,2.3747,2.4067,2.452,2.4752,2.4685,2.4461,2.419,2.419,2.419,2.419,2.4318,2.4538,2.5401,2.641,2.6943,2.7346,2.786,2.8429,2.8962,2.8975,2.8975,2.8975,2.8975,2.8975,2.9751,3.0907,3.1347,3.182,3.2452,3.2915,3.2989,3.2959,3.3374,3.3697,3.3752,3.3807,3.3807,3.3807,3.3807,3.3807,3.3807,3.3707,3.3569,3.364,3.3293,3.3527,3.416,3.5285,3.6003,3.5335,3.4554,3.3728,3.3188,3.2625,3.3135,3.3974,3.3858,3.2946,3.2841,3.2315,3.2144,3.2091,3.2945,3.374,3.4252,3.4752,3.5316,2.5019,2.5027,2.4971,2.4858,2.4785,2.4967,2.5081,2.5224,2.5418,2.552,2.5496,2.5453,2.5409,2.5389,2.5398,2.5227,2.4659,2.4602,2.4549,2.4573,2.4957,2.5232,2.5175,2.5118,2.5113,2.5184,2.522,2.4859,2.4464,2.4613,2.3995,2.3288,2.3125,2.2593,2.1852,2.2289,2.155,2.1463,2.1142,2.0978,2.0575,2.1113,2.2057,2.2715,2.3687,2.4135,2.4025,2.4043,2.4192,2.4385,2.4588,2.47,2.4716,2.4409,2.4209,2.419,2.419,2.419,2.4373,2.4944,2.5823,2.7218,2.7548,2.7805,2.8172,2.865,2.8975,2.8975,2.8975,2.8975,2.8975,2.8975,3.0063,3.1568,3.2284,3.264,3.2941,3.3309,3.3568,3.3642,3.3807,3.3807,3.3807,3.3807,3.3807,3.3807,3.3807,3.3807,3.3807,3.3807,3.3835,3.4274,3.4342,3.4284,3.4836,3.5717,3.603,3.5538,3.4764,3.3924,3.3655,3.3411,3.4137,3.4609,3.3345,3.252,3.265,3.2952,3.281,3.2951,3.3447,3.3887,3.4382,3.4911,3.547,2.4995,2.4826,2.4839,2.4716,2.4559,2.4764,2.4949,2.5136,2.5431,2.5547,2.5519,2.5492,2.5495,2.5487,2.5531,2.5508,2.5415,2.532,2.5206,2.5141,2.5253,2.5331,2.534,2.5182,2.5103,2.5196,2.5187,2.5157,2.4941,2.4854,2.4749,2.4251,2.3509,2.3107,2.3161,2.3113,2.3658,2.3841,2.3369,2.2682,2.2172,2.2419,2.2905,2.3464,2.3905,2.419,2.419,2.4209,2.4284,2.4445,2.4358,2.4461,2.4654,2.4409,2.4247,2.419,2.419,2.4208,2.4355,2.5182,2.6484,2.786,2.8172,2.8282,2.8594,2.8792,2.8975,2.8975,2.8975,2.8975,2.903,2.9159,3.0246,3.1659,3.2981,3.333,3.3632,3.3493,3.377,3.3807,3.3807,3.3807,3.3807,3.3807,3.3807,3.3807,3.3807,3.3825,3.399,3.4119,3.4926,3.5604,3.5593,3.5509,3.5628,3.6496,3.6036,3.5688,3.4925,3.4235,3.4137,3.4103,3.435,3.4366,3.3177,3.265,3.3067,3.3314,3.3387,3.363,3.3953,3.4235,3.4544,3.5052,3.5594,2.4634,2.4514,2.4606,2.4407,2.4136,2.4599,2.487,2.5053,2.5383,2.5538,2.5545,2.555,2.5522,2.5507,2.5544,2.5535,2.5542,2.5583,2.557,2.5349,2.5171,2.5152,2.5265,2.4977,2.4788,2.5186,2.5303,2.5299,2.5231,2.5041,2.4879,2.4701,2.4165,2.3602,2.3787,2.3562,2.3371,2.3131,2.2667,2.2405,2.2457,2.2563,2.2887,2.3678,2.4018,2.417,2.419,2.4209,2.4228,2.4321,2.4246,2.4284,2.4393,2.4377,2.4504,2.5595,2.559,2.5162,2.4557,2.5823,2.7365,2.8429,2.8686,2.8705,2.8938,2.8975,2.8975,2.8975,2.8975,2.9072,2.9622,3.0742,3.1898,3.2981,3.3476,3.3605,3.3807,3.3807,3.3807,3.3807,3.3807,3.3807,3.3807,3.3807,3.3825,3.3844,3.3899,3.3954,3.4412,3.4945,3.6064,3.7477,3.7191,3.6806,3.693,3.7272,3.6195,3.5661,3.5035,3.4528,3.4657,3.4721,3.4704,3.4609,3.3949,3.3626,3.3684,3.3547,3.3475,3.3903,3.4382,3.4754,3.5058,3.5274,3.569,2.4097,2.3994,2.4269,2.4118,2.378,2.4489,2.4823,2.4917,2.5322,2.5535,2.5583,2.5604,2.557,2.5508,2.5512,2.549,2.5486,2.5543,2.557,2.5329,2.5102,2.5143,2.5284,2.4974,2.4835,2.5162,2.5359,2.5216,2.5023,2.5026,2.4994,2.4828,2.4524,2.4129,2.3687,2.3715,2.379,2.3342,2.2895,2.2791,2.2935,2.2815,2.3198,2.3678,2.4054,2.419,2.419,2.419,2.4209,2.4209,2.4227,2.4228,2.4247,2.4283,2.4966,2.6113,2.6753,2.6478,2.5981,2.657,2.8044,2.8705,2.8975,2.8925,2.8957,2.8975,2.8975,2.8998,2.9377,2.9662,3.0538,3.254,3.3091,3.3513,3.3752,3.3788,3.3807,3.3807,3.3807,3.3807,3.3807,3.3807,3.3807,3.3807,3.3825,3.3862,3.3954,3.4156,3.4816,3.5661,3.6879,3.8224,3.7817,3.7385,3.7386,3.7271,3.6364,3.5599,3.4971,3.4783,3.4911,3.4657,3.4399,3.4284,3.4284,3.4544,3.456,3.4053,3.3598,3.4399,3.5038,3.5345,3.5597,3.583,3.6096,2.3368,2.3142,2.3759,2.3906,2.3717,2.447,2.4804,2.4855,2.5321,2.5565,2.5648,2.5621,2.5604,2.5517,2.549,2.5443,2.5409,2.5466,2.5473,2.5476,2.5468,2.5398,2.5399,2.526,2.5004,2.4739,2.488,2.4697,2.462,2.5081,2.5072,2.4962,2.4716,2.4524,2.436,2.4335,2.4469,2.4224,2.4031,2.3938,2.3915,2.3836,2.3946,2.404,2.417,2.419,2.419,2.419,2.419,2.419,2.419,2.419,2.419,2.419,2.5021,2.6739,2.7911,2.761,2.7177,2.7299,2.8099,2.8741,2.8975,2.8975,2.8975,2.8975,2.8975,2.9485,3.0389,3.135,3.2506,3.3678,3.3788,3.3807,3.3807,3.3807,3.3807,3.3807,3.3807,3.3807,3.3844,3.3899,3.4339,3.4449,3.4266,3.4284,3.5257,3.5495,3.5771,3.6541,3.7534,3.8342,3.8011,3.7697,3.7417,3.6886,3.6045,3.534,3.4688,3.4847,3.5098,3.4752,3.4496,3.4301,3.4447,3.4958,3.5434,3.5245,3.5167,3.5358,3.5712,3.6055,3.6477,3.6793,3.711,2.2995,2.2828,2.3094,2.327,2.3477,2.4264,2.4693,2.4936,2.5688,2.6158,2.6238,2.5808,2.5535,2.546,2.5434,2.539,2.5351,2.5428,2.5444,2.5269,2.5109,2.517,2.519,2.515,2.4787,2.4729,2.4504,2.4553,2.4966,2.513,2.5216,2.5115,2.4865,2.4639,2.4607,2.47,2.479,2.4756,2.4629,2.4403,2.4228,2.399,2.399,2.4208,2.419,2.419,2.419,2.419,2.419,2.4208,2.4226,2.4245,2.4279,2.4279,2.5601,2.7506,2.8654,2.8512,2.8205,2.8288,2.8705,2.8833,2.8975,2.8975,2.8975,2.8975,3.0283,3.1204,3.2065,3.2906,3.3395,3.3797,3.3807,3.3807,3.3807,3.3807,3.3807,3.3807,3.4027,3.411,3.4119,3.41,3.4669,3.5238,3.4981,3.4835,3.5917,3.6835,3.7037,3.7016,3.784,3.8201,3.7861,3.7487,3.721,3.6487,3.5698,3.5048,3.4399,3.4496,3.4752,3.5362,3.5115,3.48,3.4888,3.5713,3.6279,3.6498,3.6527,3.6371,3.6535,3.6776,3.7263,3.7736,3.8024,2.235,2.2378,2.2468,2.278,2.3264,2.4024,2.4634,2.5154,2.5926,2.6449,2.6612,2.5808,2.5376,2.532,2.5225,2.522,2.5318,2.5523,2.5558,2.5486,2.5366,2.5265,2.5246,2.5085,2.4845,2.4821,2.4476,2.4399,2.4755,2.513,2.5264,2.5258,2.5209,2.5013,2.467,2.4716,2.4818,2.4795,2.4892,2.4733,2.4672,2.473,2.4389,2.4606,2.4553,2.4313,2.4203,2.4113,2.419,2.4337,2.4447,2.4483,2.4511,2.4987,2.6413,2.7981,2.8975,2.8975,2.8975,2.8975,2.8975,2.8975,2.8975,2.8975,2.8975,2.9067,3.0228,3.3054,3.3658,3.3842,3.3921,3.3979,3.386,3.3807,3.3807,3.3807,3.3807,3.3844,3.4183,3.4458,3.4477,3.4669,3.5569,3.6248,3.645,3.6156,3.6431,3.7338,3.7894,3.7835,3.7657,3.7791,3.756,3.719,3.6764,3.5839,3.4955,3.4511,3.3987,3.3786,3.4087,3.4752,3.535,3.5071,3.5502,3.6582,3.7131,3.7401,3.7317,3.7178,3.7449,3.7821,3.8108,3.8565,3.8802,2.1323,2.1642,2.2,2.253,2.3212,2.379,2.4635,2.5515,2.5952,2.6282,2.6399,2.5621,2.5171,2.5082,2.4961,2.5038,2.5309,2.5833,2.5947,2.5683,2.5835,2.5974,2.568,2.5275,2.496,2.4552,2.4572,2.462,2.4361,2.5409,2.5563,2.5332,2.5365,2.5389,2.4832,2.4808,2.4888,2.5076,2.5621,2.5623,2.5576,2.5757,2.5406,2.4805,2.4835,2.4522,2.4024,2.4094,2.4245,2.4483,2.5144,2.5144,2.4756,2.576,2.7173,2.8735,2.8952,2.8975,2.8975,2.8975,2.8975,2.8975,2.8975,2.8975,2.8975,2.925,3.0356,3.3311,3.3807,3.4037,3.416,3.416,3.3921,3.3807,3.3807,3.3807,3.3807,3.4211,3.4633,3.4844,3.5064,3.543,3.6468,3.7312,3.779,3.7753,3.7422,3.7759,3.8444,3.8285,3.7808,3.7451,3.7228,3.6671,3.6096,3.5061,3.4235,3.3836,3.3633,3.3582,3.3531,3.3887,3.4448,3.5027,3.6195,3.7376,3.7877,3.8278,3.8261,3.8311,3.8599,3.892,3.9157,3.9292,3.9445,2.1087,2.1628,2.1715,2.2197,2.2968,2.3815,2.4664,2.5374,2.5858,2.637,2.6555,2.557,2.4913,2.4879,2.4912,2.5083,2.5584,2.5267,2.537,2.5976,2.6041,2.571,2.5453,2.5303,2.5118,2.4943,2.5107,2.5107,2.4774,2.5798,2.5817,2.5531,2.5366,2.5249,2.5483,2.562,2.5688,2.5818,2.5958,2.5897,2.5777,2.5796,2.5421,2.4368,2.4596,2.4393,2.388,2.4144,2.4502,2.4962,2.5731,2.5768,2.5673,2.665,2.7472,2.8651,2.8975,2.8975,2.8975,2.8975,2.8975,2.9012,2.9067,2.9067,2.8975,2.8975,3.0815,3.2871,3.3733,3.3979,3.3928,3.3947,3.3807,3.3807,3.3807,3.3807,3.3954,3.4669,3.5202,3.5257,3.5422,3.6211,3.7147,3.7753,3.8267,3.845,3.8083,3.8083,3.8603,3.8183,3.772,3.7248,3.6865,3.6222,3.547,3.4495,3.3802,3.3443,3.3443,3.3582,3.3531,3.3745,3.4366,3.5295,3.6779,3.8136,3.8654,3.9157,3.9394,3.9563,3.9546,3.9546,3.9631,3.9732,3.9851,2.0512,2.0911,2.1086,2.1532,2.2237,2.3267,2.4183,2.5026,2.6005,2.6728,2.6595,2.5614,2.5117,2.5129,2.5092,2.4982,2.5525,2.5748,2.5232,2.5893,2.5757,2.547,2.5298,2.5195,2.5024,2.5012,2.4998,2.4941,2.4867,2.6078,2.625,2.5834,2.5429,2.5916,2.6204,2.6223,2.6294,2.6638,2.7012,2.7081,2.6846,2.6506,2.5889,2.5049,2.4685,2.4478,2.4317,2.4504,2.4979,2.5697,2.6209,2.6465,2.6739,2.7291,2.7913,2.8725,2.8975,2.8975,2.8975,2.8975,2.9104,2.9452,2.9397,2.925,2.9292,2.9641,3.1256,3.2908,3.366,3.3807,3.3815,3.3807,3.3807,3.3807,3.3807,3.3807,3.4394,3.511,3.5789,3.5826,3.6229,3.7019,3.7661,3.8102,3.8615,3.8652,3.8652,3.8707,3.8658,3.815,3.7596,3.7135,3.6504,3.5812,3.5015,3.4005,3.3427,3.3055,3.3398,3.3941,3.4444,3.4807,3.5179,3.5786,3.7562,3.8975,3.9614,4.0003,3.9901,3.9901,3.9935,3.9969,4.007,4.0087,4.0087,1.963,1.9692,2.0093,2.0583,2.1181,2.2332,2.3423,2.4601,2.6522,2.701,2.6431,2.5931,2.5539,2.5558,2.5412,2.5188,2.5059,2.6095,2.5889,2.5461,2.5594,2.5315,2.5031,2.4879,2.4847,2.478,2.4757,2.4774,2.4785,2.5343,2.5863,2.6391,2.6395,2.6652,2.6695,2.6839,2.6934,2.7489,2.7758,2.7899,2.7837,2.7662,2.6806,2.598,2.5425,2.5159,2.5085,2.5312,2.5894,2.6557,2.7255,2.7163,2.7471,2.8205,2.87,2.8994,2.8975,2.8975,2.9012,2.9012,2.9457,2.9934,3.032,2.9843,2.9861,3.054,3.1843,3.3018,3.3807,3.3807,3.3807,3.3807,3.3807,3.3807,3.3807,3.4192,3.4816,3.5532,3.6285,3.6743,3.7202,3.7808,3.8248,3.8689,3.8707,3.8707,3.8707,3.8707,3.8546,3.8083,3.7542,3.6943,3.6298,3.5448,3.4592,3.3871,3.3531,3.3287,3.4142,3.4764,3.5267,3.5943,3.658,3.7472,3.8753,3.9698,3.9969,4.0087,4.0054,4.0087,4.0087,4.0087,4.0087,4.0087,4.0138,1.8977,1.9585,1.9748,2.0265,2.1119,2.2214,2.3659,2.5241,2.6183,2.6594,2.6903,2.5913,2.5556,2.5462,2.5132,2.539,2.564,2.5839,2.6058,2.5873,2.5483,2.5084,2.4884,2.4798,2.47,2.4632,2.4576,2.4572,2.4722,2.4951,2.5379,2.5999,2.6634,2.6953,2.7242,2.756,2.7698,2.7857,2.8041,2.8326,2.8275,2.7849,2.713,2.6523,2.5794,2.5601,2.5855,2.6063,2.6646,2.7402,2.7658,2.775,2.848,2.8755,2.8994,2.8975,2.8975,2.8994,2.9085,2.9525,3.0008,3.0522,3.1182,3.1659,3.1476,3.1568,3.232,3.3201,3.3788,3.3807,3.3807,3.3807,3.3954,3.4082,3.4302,3.4981,3.5605,3.6285,3.7,3.7404,3.7881,3.8193,3.8652,3.8707,3.8707,3.8707,3.8707,3.8707,3.8578,3.815,3.7578,3.702,3.619,3.5391,3.4847,3.417,3.3871,3.3764,3.4716,3.5554,3.6018,3.6804,3.7866,3.8768,3.9546,3.9868,4.0037,4.0087,4.0087,4.0087,4.0087,4.0087,4.0087,4.0087,4.0121,1.8313,1.8722,1.891,1.9462,2.0292,2.152,2.2881,2.4238,2.5547,2.6346,2.6469,2.5791,2.5528,2.5615,2.5328,2.5253,2.5494,2.5895,2.6131,2.5894,2.5282,2.5132,2.494,2.4692,2.4478,2.4424,2.4405,2.4405,2.467,2.519,2.5653,2.621,2.6733,2.7026,2.723,2.7493,2.7732,2.7867,2.8061,2.8389,2.8198,2.7802,2.7304,2.6969,2.6268,2.6194,2.665,2.6936,2.738,2.8117,2.8282,2.8466,2.8938,2.8975,2.8975,2.8975,2.8975,2.8975,2.9104,2.9751,3.0338,3.1072,3.1971,3.2467,3.2706,3.2742,3.3128,3.3605,3.3733,3.3807,3.3807,3.3862,3.4156,3.4449,3.5147,3.5862,3.6505,3.7165,3.7606,3.7973,3.8285,3.8542,3.8707,3.8707,3.8707,3.8707,3.8707,3.8707,3.8658,3.8465,3.7861,3.721,3.6274,3.5362,3.4894,3.4642,3.453,3.4658,3.5493,3.6252,3.6795,3.775,3.8907,3.9495,3.9935,4.0087,4.0087,4.0087,4.0087,4.0087,4.0087,4.0087,4.0087,4.0087,4.0171,1.7706,1.7422,1.7947,1.8559,1.9051,2.0431,2.1423,2.228,2.4683,2.5789,2.557,2.5445,2.5504,2.5517,2.5366,2.4915,2.5163,2.5587,2.5772,2.5835,2.4852,2.4551,2.4567,2.4536,2.4208,2.4171,2.4375,2.4727,2.4781,2.5461,2.6328,2.6675,2.75,2.7742,2.7473,2.7819,2.8082,2.8141,2.8495,2.889,2.8632,2.8204,2.7807,2.7938,2.7331,2.6809,2.7519,2.7842,2.7989,2.8668,2.8975,2.8938,2.8957,2.8975,2.8975,2.9127,2.9182,2.9127,2.9439,3.0118,3.1072,3.1806,3.2522,3.3018,3.3293,3.3366,3.3605,3.3678,3.3788,3.3807,3.3807,3.3862,3.41,3.5147,3.6211,3.667,3.7055,3.7617,3.8026,3.8302,3.8382,3.8609,3.8707,3.8707,3.8707,3.8707,3.8707,3.8707,3.8658,3.8627,3.8207,3.7468,3.6357,3.5515,3.5207,3.5011,3.5278,3.5629,3.6406,3.6937,3.7436,3.8606,3.9986,4.0087,4.0087,4.0087,4.0087,4.0087,4.0087,4.0087,4.0087,4.0087,4.0087,4.0121,4.0121,1.6686,1.7381,1.8327,1.8817,1.9029,2.0024,2.0777,2.1376,2.2845,2.4198,2.4993,2.483,2.4774,2.4959,2.5123,2.4813,2.4733,2.5333,2.5129,2.489,2.4224,2.4236,2.3903,2.4046,2.3852,2.4135,2.4584,2.5331,2.5999,2.6638,2.6933,2.6845,2.7807,2.8331,2.7994,2.8397,2.8669,2.8517,2.8787,2.9071,2.891,2.8861,2.8695,2.8732,2.8349,2.7995,2.8425,2.8631,2.8723,2.8975,2.8975,2.8975,2.8975,2.9012,2.8994,2.9108,2.9567,2.9696,3.0044,3.087,3.188,3.2357,3.2926,3.3421,3.3715,3.3788,3.3807,3.3807,3.3807,3.3807,3.3825,3.3899,3.4321,3.5789,3.7184,3.7386,3.7599,3.7927,3.8346,3.8427,3.8472,3.8479,3.8541,3.8683,3.8707,3.8707,3.8707,3.8707,3.8707,3.8645,3.8656,3.7882,3.6392,3.5588,3.5391,3.5492,3.5813,3.6413,3.7148,3.7646,3.8159,3.9123,4.0087,4.0087,4.0087,4.0087,4.0087,4.0087,4.0087,4.0087,4.0121,4.0121,4.0206,4.0257,4.0155,1.6021,1.6766,1.7995,1.8549,1.8788,2.0008,2.0649,2.0893,2.1995,2.2908,2.3573,2.3843,2.4207,2.4527,2.4767,2.4666,2.458,2.5445,2.5635,2.5167,2.4321,2.4488,2.4195,2.3723,2.366,2.393,2.4747,2.5683,2.6977,2.7414,2.7464,2.7342,2.8356,2.8796,2.8519,2.8851,2.9144,2.8945,2.9075,2.9121,2.9121,2.901,2.9143,2.9225,2.9211,2.892,2.8828,2.8975,2.8975,2.8975,2.8975,2.8975,2.9255,2.9787,2.9641,2.9586,2.9971,3.087,3.1292,3.188,3.2742,3.3036,3.3275,3.3752,3.377,3.3807,3.3807,3.3807,3.3807,3.3807,3.3807,3.3862,3.4917,3.6258,3.7426,3.8088,3.784,3.7668,3.7891,3.7931,3.7843,3.7586,3.7795,3.8319,3.8409,3.8707,3.8707,3.8707,3.8707,3.8891,3.8834,3.867,3.7475,3.6328,3.5985,3.6163,3.651,3.7148,3.7872,3.8497,3.9039,3.958,4.0087,4.0087,4.0087,4.0087,4.0087,4.0087,4.0087,4.0087,4.0138,4.0239,4.0307,4.0493,4.0493,1.5627,1.6008,1.7384,1.8066,1.8352,1.9924,2.0616,2.0632,2.1554,2.1903,2.193,2.2778,2.3772,2.4305,2.4594,2.4381,2.4594,2.5488,2.5942,2.5269,2.4775,2.4276,2.3987,2.3874,2.369,2.3939,2.4671,2.6034,2.7445,2.753,2.7548,2.7882,2.8257,2.8658,2.8425,2.8482,2.8799,2.9117,2.9289,2.9298,2.9198,2.9074,2.9359,2.9531,2.9565,2.9324,2.9108,2.8975,2.8975,2.8975,2.8975,2.8975,2.9219,2.9861,3.0503,3.0467,3.0925,3.2082,3.2926,3.2926,3.3311,3.355,3.3733,3.3807,3.3807,3.3807,3.3807,3.3807,3.3807,3.3807,3.3807,3.4174,3.5321,3.6544,3.761,3.8472,3.7986,3.7435,3.7384,3.7435,3.7149,3.6852,3.7103,3.7636,3.8247,3.8541,3.8707,3.8707,3.8799,3.9166,3.9347,3.9642,3.935,3.8251,3.7099,3.6823,3.7161,3.7787,3.8481,3.9225,3.98,3.9969,4.0087,4.0087,4.0087,4.0087,4.0087,4.0087,4.0087,4.0087,4.0104,4.024,4.0747,4.0899,4.095,1.5151,1.6401,1.7162,1.7706,1.821,1.9014,1.9869,2.0748,2.0715,2.1007,2.1559,2.1757,2.2304,2.2915,2.3762,2.3859,2.3806,2.5141,2.434,2.3187,2.4006,2.3665,2.3367,2.3535,2.3573,2.4122,2.4807,2.5592,2.7205,2.7185,2.7236,2.7882,2.7919,2.8433,2.9186,2.9195,2.9266,2.9528,2.9693,2.9794,2.9944,2.985,2.9713,2.9712,2.9572,2.9296,2.9108,2.9017,2.8975,2.8975,2.8975,2.8975,2.9342,2.9953,3.0889,3.1861,3.2302,3.2669,3.3311,3.3476,3.3678,3.3697,3.3807,3.3807,3.3807,3.3807,3.3807,3.3807,3.3807,3.3807,3.388,3.4302,3.5248,3.6589,3.7764,3.8079,3.7976,3.73,3.6866,3.6742,3.6502,3.6212,3.605,3.6925,3.8146,3.8427,3.8689,3.8707,3.8707,3.9203,3.9698,4.0365,4.0824,3.9905,3.8643,3.7752,3.7905,3.8481,3.8971,3.9495,3.9851,4.0003,4.0087,4.0087,4.0087,4.0087,4.0087,4.0087,4.0087,4.0087,4.0087,4.0273,4.0916,4.1525,4.1762]},{"header":{"parameterUnit":"m.s-1","parameterCategory":1,"la1":31.0,"la2":29.5877,"lo1":-88.7671,"lo2":-86.6584,"dy":0.0162,"dx":0.0185,"nx":115,"ny":88,"refTime":"2026-05-03T12:00:00:Z","depth":0,"parameterNumber":3,"parameterNumberName":"V-component_of_WINDS"},"data":[0.0,0.0,0.0,0.0,0.0,0.0,0.0,0.0,0.0,0.0,0.0,0.0,0.0,0.0,0.0,0.0,0.0,0.0,0.0,0.0,0.0,0.0,0.0,0.0,0.0,0.0,0.0,0.0,0.0,0.0,0.0,0.0,0.0,0.0,0.0,0.0,0.0,0.0,0.0,0.0,0.0,0.0,0.0,0.0,0.0,0.0,0.0,0.0,0.0,0.0,0.0,0.0,0.0,0.0,0.0,0.0,0.0,0.0,0.0,0.0,0.0,0.0,0.0,0.0,0.0,0.0,0.0,0.0,0.0,0.0,0.0,0.0,0.0,0.0,0.0,0.0,0.0,0.0,0.0,0.0,0.0,0.0,0.0,0.0,0.0,0.0,0.0,0.0,0.0,0.0,0.0,0.0,0.0,0.0,0.0,0.0,0.0,0.0,0.0,0.0,0.0,0.0,0.0,0.0,0.0,0.0,0.0,0.0,0.0,0.0,0.0,0.0,0.0,0.0,0.0,0.0,0.0,0.0,0.0,0.0,0.0,0.0,0.0,0.0,0.0,0.0,0.0,0.0,0.0,0.0,0.0,0.0,0.0,0.0,0.0,0.0,0.0,0.0,0.0,0.0,0.0,0.0,0.0,0.0,0.0,0.0,0.0,0.0,0.0,0.0,0.0,0.0,0.0,0.0,0.0,0.0,0.0,0.0,0.0,0.0,0.0,0.0,0.0,0.0,0.0,0.0,0.0,0.0,0.0,0.0,0.0,0.0,0.0,0.0,0.0,0.0,0.0,0.0,0.0,0.0,0.0,0.0,0.0,0.0,0.0,0.0,0.0,0.0,0.0,0.0,0.0,0.0,0.0,0.0,0.0,0.0,0.0,0.0,0.0,0.0,0.0,0.0,0.0,0.0,0.0,0.0,0.0,0.0,0.0,0.0,0.0,0.0,0.0,0.0,0.0,0.0,0.0,0.0,0.0,0.0,0.0,0.0,0.0,0.0,0.0,0.0,0.0,0.0,0.0,0.0,0.0,0.0,0.0,0.0,0.0,0.0,0.0,0.0,0.0,0.0,0.0,0.0,0.0,0.0,0.0,0.0,0.0,0.0,0.0,0.0,0.0,0.0,0.0,0.0,0.0,0.0,0.0,0.0,0.0,0.0,0.0,0.0,0.0,0.0,0.0,0.0,0.0,0.0,0.0,0.0,0.0,0.0,0.0,0.0,0.0,0.0,0.0,0.0,0.0,0.0,0.0,0.0,0.0,0.0,0.0,0.0,0.0,0.0,0.0,0.0,0.0,0.0,0.0,0.0,0.0,0.0,0.0,0.0,0.0,0.0,0.0,0.0,0.0,0.0,0.0,0.0,0.0,0.0,0.0,0.0,0.0,0.0,0.0,0.0,0.0,0.0,0.0,0.0,0.0,0.0,0.0,0.0,0.0,0.0,0.0,0.0,0.0,0.0,0.0,0.0,0.0,0.0,0.0,0.0,0.0,0.0,0.0,0.0,0.0,0.0,0.0,0.0,0.0,0.0,0.0,0.0,0.0,0.0,0.0,0.0,0.0,0.0,0.0,0.0,0.0,0.0,0.0,0.0,0.0,0.0,0.0,0.0,0.0,0.0,0.0,0.0,0.0,0.0,0.0,0.0,0.0,0.0,0.0,0.0,0.0,0.0,0.0,0.0,0.0,0.0,0.0,0.0,0.0,0.0,0.0,0.0,0.0,0.0,0.0,0.0,0.0,0.0,0.0,0.0,0.0,0.0,0.0,0.0,0.0,0.0,0.0,0.0,0.0,0.0,0.0,0.0,0.0,0.0,0.0,0.0,0.0,0.0,0.0,0.0,0.0,0.0,0.0,0.0,0.0,0.0,0.0,0.0,0.0,0.0,0.0,0.0,0.0,0.0,0.0,0.0,0.0,0.0,0.0,0.0,0.0,0.0,0.0,0.0,0.0,0.0,0.0,0.0,0.0,0.0,0.0,0.0,0.0,0.0,0.0,0.0,0.0,0.0,0.0,0.0,0.0,0.0,0.0,0.0,0.0,0.0,0.0,0.0,0.0,0.0,0.0,0.0,0.0,0.0,0.0,0.0,0.0,0.0,0.0,0.0,0.0,0.0,0.0,0.0,0.0,0.0,0.0,0.0,0.0,0.0,0.0,0.0,0.0,0.0,0.0,0.0,0.0,0.0,0.0,0.0,0.0,0.0,0.0,0.0,0.0,0.0,0.0,0.0,0.0,0.0,0.0,0.0,0.0,0.0,0.0,0.0,0.0,0.0,0.0,0.0,0.0,0.0,0.0,0.0,0.0,0.0,0.0,0.0,0.0,0.0,0.0,0.0,0.0,0.0,0.0,0.0,0.0,0.0,0.0,0.0,0.0,0.0,0.0,0.0,0.0,0.0,0.0,0.0,0.0,0.0,0.0,0.0,0.0,0.0,0.0,0.0,0.0,0.0,0.0,0.0,0.0,0.0,0.0,0.0,0.0,0.0,0.0,0.0,0.0,0.0,0.0,0.0,0.0,0.0,0.0,0.0,0.0,0.0,0.0,0.0,0.0,0.0,0.0,0.0,0.0,0.0,0.0,0.0,0.0,0.0,0.0,0.0,0.0,0.0,0.0,0.0,0.0,0.0,0.0,0.0,0.0,0.0,0.0,0.0,0.0,0.0,0.0,0.0,0.0,0.0,0.0,0.0,0.0,0.0,0.0,0.0,0.0,0.0,0.0,0.0,0.0,0.0,0.0,0.0,0.0,0.0,0.0,0.0,0.0,0.0,0.0,0.0,0.0,0.0,0.0,0.0,0.0,0.0,0.0,0.0,0.0,0.0,0.0,0.0,0.0,0.0,0.0,0.0,0.0,0.0,0.0,0.0,0.0,0.0,0.0,0.0,0.0,0.0,0.0,0.0,0.0,0.0,0.0,0.0,0.0,0.0,0.0,0.0,0.0,0.0,0.0,0.0,0.0,0.0,0.0,0.0,0.0,0.0,0.0,0.0,0.0,0.0,0.0,0.0,0.0,0.0,0.0,0.0,0.0,0.0,0.0,0.0,0.0,0.0,0.0,0.0,0.0,0.0,0.0,0.0,0.0,0.0,0.0,0.0,0.0,0.0,0.0,0.0,0.0,0.0,0.0,0.0,0.0,0.0,0.0,0.0,0.0,0.0,0.0,0.0,0.0,0.0,0.0,0.0,0.0,0.0,0.0,0.0,0.0,0.0,0.0,0.0,0.0,0.0,0.0,0.0,0.0,0.0,0.0,0.0,0.0,0.0,0.0,0.0,0.0,0.0,0.0,0.0,0.0,0.0,0.0,0.0,0.0,0.0,0.0,0.0,0.0,0.0,0.0,0.0,0.0,0.0,0.0,0.0,0.0,0.0,0.0,0.0,0.0,0.0,0.0,0.0,0.0,0.0,0.0,0.0,0.0,0.0,0.0,0.0,0.0,0.0,0.0,0.0,0.0,0.0,0.0,0.0,0.0,0.0,0.0,0.0,0.0,0.0,0.0,0.0,0.0,0.0,0.0,0.0,0.0,0.0,0.0,0.0,0.0,0.0,0.0,0.0,0.0,0.0,0.0,0.0,0.0,0.0,0.0,0.0,0.0,0.0,0.0,0.0,0.0,0.0,0.0,0.0,0.0,0.0,0.0,0.0,0.0,0.0,0.0,0.0,0.0,0.0,0.0,0.0,0.0,0.0,0.0,0.0,0.0,0.0,0.0,0.0,0.0,0.0,0.0,0.0,0.0,0.0,0.0,0.0,0.0,0.0,0.0,0.0,0.0,0.0,0.0,0.0,0.0,0.0,0.0,0.0,0.0,0.0,0.0,0.0,0.0,0.0,0.0,0.0,0.0,0.0,0.0,0.0,0.0,0.0,0.0,0.0,0.0,0.0,0.0,0.0,0.0,0.0,0.0,0.0,0.0,0.0,0.0,0.0,0.0,0.0,0.0,0.0,0.0,0.0,0.0,0.0,0.0,0.0,0.0,0.0,0.0,0.0,0.0,0.0,0.0,0.0,0.0,0.0,0.0,0.0,0.0,0.0,0.0,0.0,0.0,0.0,0.0,0.0,0.0,0.0,0.0,0.0,0.0,0.0,0.0,0.0,0.0,0.0,0.0,0.0,0.0,0.0,0.0,0.0,0.0,0.0,0.0,0.0,0.0,0.0,0.0,0.0,0.0,0.0,0.0,0.0,0.0,0.0,0.0,0.0,0.0,0.0,0.0,0.0,0.0,0.0,0.0,0.0,0.0,0.0,0.0,0.0,0.0,0.0,0.0,0.0,0.0,0.0,0.4505,0.0,0.0,0.0,0.0,0.0,0.0,0.0,0.0,0.0,0.0,0.0,0.0,0.0,0.0,0.0,0.0,0.0,0.0,0.0,0.0,0.0,0.0,0.0,0.0,0.0,0.0,0.0,0.0,0.0,0.0,0.0,0.0,0.0,0.0,0.0,0.0,0.0,0.0,0.0,0.0,0.0,0.0,0.0,0.0,0.0,0.0,0.0,0.0,0.0,0.0,0.0,0.0,0.0,0.0,0.0,0.0,0.0,0.0,0.0,0.0,0.0,0.0,0.0,0.0,0.0,0.0,0.0,0.0,0.0,0.0,0.0,0.0,0.0,0.0,0.0,0.0,0.0,0.0,0.0,0.0,0.0,0.0,0.0,0.0,0.0,0.0,0.0,0.0,0.0,0.0,0.0,0.0,0.0,0.0,0.0,0.0,0.0,0.0,0.0,0.0,0.0,0.0,0.0,0.0,0.0,0.0,0.0,0.0,0.0,0.0,0.488,0.4435,0.4511,0.4612,0.469,0.0,0.0,0.0,0.0,0.0,0.0,0.0,0.0,0.0,0.0,0.0,0.0,0.0,0.0,0.0,0.0,0.0,0.0,0.0,0.0,0.0,0.0,0.0,0.0,0.0,0.0,0.0,0.0,0.0,0.0,0.0,0.0,0.0,0.0,0.0,0.0,0.0,0.0,0.0,0.0,0.0,0.0,0.0,0.0,0.0,0.0,0.0,0.0,0.0,0.0,0.0,0.0,0.0,0.0,0.0,0.0,0.0,0.0,0.0,0.0,0.0,0.0,0.0,0.0,0.0,0.0,0.0,0.0,0.0,0.0,0.0,0.0,0.0,0.0,0.0,0.0,0.0,0.0,0.0,0.0,0.0,0.0,0.0,0.0,0.0,0.0,0.0,0.0,0.0,0.0,0.0,0.0,0.0,0.0,0.0,0.0,0.0,0.0,0.0,0.0,0.0,0.0,0.0,0.0,0.0,0.0,0.0,0.0,0.0,0.0,0.0,0.0,0.4981,0.5141,0.5137,0.0,0.0,0.0,0.0,0.0,0.0,0.0,0.0,0.0,0.0,0.0,0.0,0.0,0.0,0.0,0.0,0.0,0.0,0.0,0.0,0.0,0.0,0.0,0.0,0.0,0.0,0.0,0.0,0.0,0.0,0.0,0.0,0.0,0.0,0.0,0.0,0.0,0.0,0.0,0.0,0.0,0.0,0.0,0.0,0.0,0.0,0.0,0.0,0.0,0.0,0.0,0.0,0.0,0.0,0.0,0.0,0.0,0.0,0.0,0.0,0.0,0.0,0.0,0.0,0.0,0.0,0.0,0.0,0.0,0.0,0.0,0.0,0.0,0.0,0.0,0.0,0.0,0.0,0.0,0.0,0.0,0.0,0.0,0.0,0.0,0.0,0.0,0.0,0.0,0.0,0.0,0.0,0.0,0.0,0.0,0.0,0.0,0.0,0.0,0.0,0.0,0.0,0.0,0.0,0.0,0.0,0.0,0.0,0.0,0.0,0.47,0.5046,0.5776,0.0,0.6164,0.0,0.0,0.0,0.0,0.0,0.0,0.0,0.0,0.0,0.0,0.0,0.0,0.0,0.0,0.0,0.0,0.0,0.0,0.0,0.0,0.0,0.0,0.0,0.0,0.0,0.0,0.0,0.0,0.0,0.0,0.0,0.0,0.0,0.0,0.0,0.0,0.0,0.0,0.0,0.0,0.0,0.0,0.0,0.0,0.0,0.0,0.0,0.0,0.0,0.0,0.0,0.0,0.0,0.0,0.0,0.0,0.0,0.0,0.0,0.0,0.0,0.0,0.0,0.0,0.0,0.0,0.0,0.0,0.0,0.0,0.0,0.0,0.0,0.0,0.0,0.0,0.0,0.0,0.0,0.0,0.0,0.0,0.0,0.0,0.0,0.0,0.0,0.0,0.0,0.0,0.0,0.0,0.0,0.0,0.0,0.0,0.0,0.0,0.0,0.0,0.0,0.0,0.0,0.0,0.0,0.0,0.0,0.0,0.0,0.0,0.0,0.4429,0.6171,0.6855,0.0,0.0,0.0,0.0,0.0,0.0,0.0,0.0,0.0,0.0,0.0,0.0,0.0,0.0,0.0,0.0,0.0,0.0,0.0,0.0,0.0,0.0,0.0,0.0,0.0,0.0,0.0,0.0,0.0,0.0,0.0,0.0,0.0,0.0,0.0,0.0,0.0,0.0,0.0,0.0,0.0,0.0,0.0,0.0,0.0,0.0,0.0,0.0,0.0,0.0,0.0,0.0,0.0,0.0,0.0,0.0,0.0,0.0,0.0,0.0,0.0,0.0,0.0,0.0,0.0,0.0,0.0,0.0,0.0,0.0,0.0,0.0,0.0,0.0,0.0,0.0,0.0,0.0,0.0,0.0,0.0,0.0,0.0,0.0,0.0,0.0,0.0,0.0,0.0,0.0,0.0,0.0,0.0,0.0,0.0,0.0,0.0,0.0,0.0,0.0,0.0,0.0,0.0,0.0,0.0,0.0,0.0,0.0,0.0,0.0,0.7198,0.0,0.5057,0.712,0.7723,0.6362,0.0,0.0,0.0,0.0,0.0,0.0,0.0,0.0,0.0,0.0,0.0,0.0,0.0,0.0,0.0,0.0,0.0,0.0,0.0,0.0,0.0,0.0,0.0,0.0,0.0,0.0,0.0,0.0,0.0,0.0,0.0,0.0,0.0,0.0,0.0,0.0,0.0,0.0,0.0,0.0,0.0,0.0,0.0,0.0,0.0,0.0,0.0,0.0,0.0,0.0,0.0,0.0,0.0,0.0,0.0,0.0,0.0,0.0,0.0,0.0,0.0,0.0,0.0,0.0,0.0,0.0,0.0,0.0,0.0,0.0,0.0,0.0,0.0,0.0,0.0,0.0,0.0,0.0,0.0,0.0,0.0,0.0,0.0,0.0,0.0,0.0,0.0,0.0,0.0,0.0,0.0,0.0,0.0,0.0,0.0,0.0,0.0,0.0,0.0,0.0,0.0,0.0,0.0,0.0,0.0,0.0,0.0,0.0,0.0,0.4365,0.5496,0.7069,0.898,0.8847,0.0,0.0,0.0,0.0,0.0,0.0,0.0,0.0,0.0,0.0,0.0,0.0,0.0,0.0,0.0,0.0,0.0,0.0,0.0,0.0,0.0,0.0,0.0,0.0,0.0,0.0,0.0,0.0,0.0,0.0,0.0,0.0,0.0,0.0,0.0,0.0,0.0,0.0,0.0,0.0,0.0,0.0,0.0,0.0,0.0,0.0,0.0,0.0,0.0,0.0,0.0,0.0,0.0,0.0,0.0,0.0,0.0,0.0,0.0,0.0,0.0,0.0,0.0,0.0,0.0,0.0,0.0,0.0,0.0,0.0,0.0,0.0,0.0,0.0,0.0,0.0,0.0,0.0,0.0,0.0,0.0,0.0,0.0,0.0,0.0,0.0,0.0,0.0,0.0,0.0,0.0,0.0,0.0,0.0,0.0,0.0,0.0,0.0,0.0,0.0,0.0,0.0,0.0,0.0,0.0,0.0,0.0,0.0,0.0,0.4513,0.6374,0.7473,0.7855,0.7258,0.7111,0.0,0.0,0.0,0.0,0.0,0.0,0.0,0.0,0.0,0.0,0.0,0.0,0.0,0.0,0.0,0.0,0.0,0.0,0.0,0.0,0.0,0.0,0.0,0.0,0.0,0.0,0.0,0.0,0.0,0.0,0.0,0.0,0.0,0.0,0.0,0.0,0.0,0.0,0.0,0.0,0.0,0.0,0.0,0.0,0.0,0.0,0.0,0.0,0.0,0.0,0.0,0.0,0.0,0.0,0.0,0.0,0.0,0.0,0.0,0.0,0.0,0.0,0.0,0.0,0.0,0.0,0.0,0.0,0.0,0.0,0.0,0.0,0.0,0.0,0.0,0.0,0.0,0.0,0.0,0.0,0.0,0.0,0.0,0.0,0.0,0.0,0.0,0.0,0.0,0.0,0.0,0.0,0.0,0.0,0.0,0.0,0.0,0.0,0.0,0.0,0.0,0.0,0.0,0.0,0.0,0.0,0.0,0.0,0.0,0.4574,0.0,0.7702,0.0,0.6477,0.6285,0.0,0.0,0.0,0.0,0.0,0.0,0.0,0.0,0.0,0.0,0.0,0.0,0.0,0.0,0.0,0.0,0.0,0.0,0.0,0.0,0.0,0.0,0.0,0.0,0.0,0.0,0.0,0.0,0.0,0.0,0.0,0.0,0.0,0.0,0.0,0.0,0.0,0.0,0.0,0.0,0.0,0.0,0.0,0.0,0.0,0.0,0.0,0.0,0.0,0.0,0.0,0.0,0.0,0.0,0.0,0.0,0.0,0.0,0.0,0.0,0.0,0.0,0.0,0.0,0.0,0.0,0.0,0.0,0.0,0.0,0.0,0.0,0.0,0.0,0.0,0.0,0.0,0.0,0.0,0.0,0.0,0.0,0.0,0.0,0.0,0.0,0.0,0.0,0.0,0.0,0.0,0.0,0.0,0.0,0.0,0.0,0.0,0.0,0.0,0.0,0.0,0.0,0.0,0.0,0.0,0.0,0.0,0.0,0.0,0.3261,0.4685,0.5841,0.6419,0.6972,0.6602,0.0,0.0,0.0,0.0,0.0,0.0,0.0,0.0,0.0,0.0,0.0,0.0,0.0,0.0,0.0,0.0,0.0,0.0,0.0,0.0,0.0,0.0,0.0,0.0,0.0,0.0,0.0,0.0,0.0,0.0,0.0,0.0,0.0,0.0,0.0,0.0,0.0,0.0,0.0,0.0,0.0,0.0,0.0,0.0,0.0,0.0,0.0,0.0,0.0,0.0,0.0,0.0,0.0,0.0,0.0,0.0,0.0,0.0,0.0,0.0,0.0,0.0,0.0,0.0,0.0,0.0,0.0,0.0,0.0,0.0,0.0,0.0,0.0,0.0,0.0,0.0,0.0,0.0,0.0,0.0,0.0,0.0,0.0,0.0,0.0,0.0,0.0,0.0,0.0,0.0,0.0,0.0,0.0,0.0,0.0,0.0,0.0,0.0,0.0,0.0,0.0,0.0,0.0,0.0,0.0,0.0,0.0,0.0,0.0,0.2893,0.5055,0.6412,0.684,0.6138,0.585,0.0,0.0,0.0,0.0,0.0,0.0,0.0,0.0,0.0,0.0,0.0,0.0,0.0,0.0,0.0,0.0,0.0,0.0,0.0,0.0,0.0,0.0,0.0,0.0,0.0,0.0,0.0,0.0,0.0,0.0,0.0,0.0,0.0,0.0,0.0,0.0,0.0,0.0,0.0,0.0,0.0,0.0,0.0,0.0,0.0,0.0,0.0,0.0,0.0,0.0,0.0,0.0,0.0,0.0,0.0,0.0,0.0,0.0,0.0,0.0,0.0,0.0,0.0,0.0,0.0,0.0,0.0,0.0,0.0,0.0,0.0,0.0,0.0,0.0,0.0,0.0,0.0,0.0,0.0,0.0,0.0,0.0,0.0,0.0,0.0,0.0,0.0,0.0,0.0,0.0,0.0,0.0,0.0,0.0,0.0,0.0,0.0,0.0,0.0,0.0,0.0,0.0,0.0,0.0,0.0,0.0,0.0,0.0,0.0,0.2758,0.4515,0.5967,0.7034,0.6286,0.6009,0.6301,0.0,0.0,0.0,0.0,0.0,0.0,0.0,0.0,0.0,0.0,0.0,0.0,0.0,0.0,0.0,0.0,0.0,0.0,0.0,0.0,0.0,0.0,0.0,0.0,0.0,0.0,0.0,0.0,0.0,0.0,0.0,0.0,0.0,0.0,0.0,0.0,0.0,0.0,0.0,0.0,0.0,0.0,0.0,0.0,0.0,0.0,0.0,0.0,0.0,0.0,0.0,0.0,0.0,0.0,0.0,0.0,0.0,0.0,0.0,0.0,0.0,0.0,0.0,0.0,0.0,0.0,0.0,0.0,0.0,0.0,0.0,0.0,0.0,0.0,0.0,0.0,0.0,0.0,0.0,0.0,0.0,0.0,0.0,0.0,0.0,0.0,0.0,0.0,0.0,0.0,0.0,0.0,0.0,0.0,0.0,0.0,0.0,0.0,0.0,0.0,0.0,0.0,0.0,0.0,0.0,0.0,0.0,0.0,0.288,0.3353,0.475,0.7071,0.7293,0.6952,0.0,0.0,0.0,0.0,0.0,0.0,0.0,0.0,0.0,0.0,0.0,0.0,0.0,0.0,0.0,0.0,0.0,0.0,0.0,0.0,0.0,0.0,0.0,0.0,0.0,0.0,0.0,0.0,0.0,0.0,0.0,0.0,0.0,0.0,0.0,0.0,0.0,0.0,0.0,0.0,0.0,0.0,0.0,0.0,0.0,0.0,0.0,0.0,0.0,0.0,0.0,0.0,0.0,0.0,0.0,0.0,0.0,0.0,0.0,0.0,0.0,0.0,0.0,0.0,0.0,0.0,0.0,0.0,0.0,0.0,0.0,0.0,0.0,0.0,0.0,0.0,0.0,0.0,0.0,0.0,0.0,0.0,0.0,0.0,0.0,0.0,0.0,0.0,0.0,0.0,0.0,0.0,0.0,0.0,0.0,0.0,0.0,0.0,0.0,0.0,0.0,0.0,0.0,0.0,0.0,0.0,0.0,0.0,0.0,0.3081,0.3988,0.5752,0.8345,0.848,0.8212,0.0,0.0,0.0,0.0,0.0,0.0,0.0,0.0,0.0,0.0,0.0,0.0,0.0,0.0,0.0,0.0,0.0,0.0,0.0,0.0,0.0,0.0,0.0,0.0,0.0,0.0,0.0,0.0,0.0,0.0,0.0,0.0,0.0,0.0,0.0,0.0,0.0,0.0,0.0,0.0,0.0,0.0,0.0,0.0,0.0,0.0,0.0,0.0,0.0,0.0,0.0,0.0,0.0,0.0,0.0,0.0,0.0,0.0,0.0,0.0,0.0,0.0,0.0,0.0,0.0,0.0,0.0,0.0,0.0,0.0,0.0,0.0,0.0,0.0,0.0,0.0,0.0,0.0,0.0,0.0,0.0,0.0,0.0,0.0,0.0,0.0,0.0,0.0,0.0,0.0,0.0,0.0,0.0,0.0,0.0,0.0,0.0,0.0,0.0,0.0,0.0,0.0,0.0,0.0,0.0,0.0,0.0,0.0,0.2296,0.4527,0.5283,0.6866,0.9439,0.9718,0.9222,0.0,0.0,0.0,0.0,0.0,0.0,0.0,0.0,0.0,0.0,0.0,0.0,0.0,0.0,0.0,0.0,0.0,0.0,0.0,0.0,0.0,0.0,0.0,0.0,0.0,0.0,0.0,0.0,0.0,0.0,0.0,0.0,0.0,0.0,0.0,0.0,0.0,0.0,0.0,0.0,0.0,0.0,0.0,0.0,0.0,0.0,0.0,0.0,0.0,0.0,0.0,0.0,0.0,0.0,0.0,0.0,0.0,0.0,0.0,0.0,0.0,0.0,0.0,0.0,0.0,0.0,0.0,0.0,0.0,0.0,0.0,0.0,0.0,0.0,0.0,0.0,0.0,0.0,0.0,0.0,0.0,0.0,0.0,0.0,0.0,0.0,0.0,0.0,0.0,0.0,0.0,0.0,0.0,0.0,0.0,0.0,0.0,0.0,0.0,0.0,0.0,0.0,0.0,0.0,0.0,0.0,0.0,0.0,0.2885,0.6179,0.668,0.7911,1.005,1.0633,0.9931,0.0,0.0,0.0,0.0,0.0,0.0,0.0,0.0,0.0,0.0,0.0,0.0,0.0,0.0,0.0,0.0,0.0,0.0,0.0,0.0,0.0,0.0,0.0,0.0,0.0,0.0,0.0,0.0,0.0,0.0,0.0,0.0,0.0,0.0,0.0,0.0,0.0,0.0,0.0,0.0,0.0,0.0,0.0,0.0,0.0,0.0,0.0,0.0,0.0,0.0,0.0,0.0,0.0,0.0,0.0,0.0,0.0,0.0,0.0,0.0,0.0,0.0,0.0,0.0,0.0,0.0,0.0,0.0,0.0,0.0,0.0,0.0,0.0,0.0,0.0,0.0,0.0,0.0,0.0,0.0,0.0,0.0,0.0,0.0,0.0,0.0,0.0,0.0,0.0,0.0,0.0,0.0,0.0,0.0,0.0,0.0,0.0,0.0,0.0,0.0,0.0,0.0,0.0,0.0,0.0,0.0,0.0,0.0,0.222,0.4701,0.6516,0.8206,0.9843,0.9708,0.9544,0.0,0.0,0.0,0.0,0.0,0.0,0.0,0.0,0.0,0.0,0.0,0.0,0.0,0.0,0.0,0.0,0.0,0.0,0.0,0.0,0.0,0.0,0.0,0.0,0.0,0.0,0.0,0.0,0.0,0.0,0.0,0.0,0.0,0.0,0.0,0.0,0.0,0.0,0.0,0.0,0.0,0.0,0.0,0.0,0.0,0.0,0.0,0.0,0.3353,0.0,0.0,0.0,0.0,0.0,0.0,0.0,0.0,0.0,0.0,0.0,0.0,0.0,0.0,0.0,0.0,0.0,0.0,0.0,0.0,0.0,0.0,0.0,0.0,0.0,0.0,0.0,0.0,0.0,0.0,0.0,0.0,0.0,0.0,0.0,0.0,0.0,0.0,0.0,0.0,0.0,0.0,0.0,0.0,0.0,0.0,0.0,0.0,0.0,0.0,0.0,0.0,0.0,0.0,0.0,0.0,0.0,0.0,0.0,0.2148,0.4258,0.6459,0.8301,0.9717,0.9813,0.9756,0.0,0.0,0.0,0.0,0.0,0.0,0.0,0.0,0.0,0.0,0.0,0.0,0.0,0.0,0.0,0.0,0.0,0.0,0.0,0.0,0.0,0.0,0.0,0.0,0.0,0.0,0.0,0.0,0.0,0.0,0.0,0.0,0.0,0.0,0.0,0.0,0.0,0.0,0.0,0.0,0.0,0.0,0.0,0.0,0.0,0.0,0.0,0.0,0.0,0.0,0.0,0.0,0.0,0.0,0.0,0.0,0.0,0.0,0.0,0.0,0.0,0.0,0.0,0.0,0.0,0.0,0.0,0.0,0.0,0.0,0.0,0.0,0.0,0.0,0.0,0.0,0.0,0.0,0.0,0.0,0.0,0.0,0.0,0.0,0.0,0.0,0.0,0.0,0.0,0.0,0.0,0.0,0.0,0.0,0.0,0.0,0.0,0.0,0.0,0.0,0.0,0.0,0.0,0.0,0.0,0.0,0.0,-0.0369,0.2198,0.4129,0.6468,0.8387,0.9805,1.0306,1.0246,0.9569,0.0,0.0,0.0,0.0,0.0,0.0,0.0,0.0,0.0,0.0,0.0,0.0,0.0,0.0,0.0,0.0,0.0,0.0,0.0,0.0,0.0,0.0,0.0,0.0,0.0,0.0,0.0,0.0,0.0,0.0,0.0,0.0,0.0,0.0,0.0,0.0,0.0,0.0,0.3425,0.4402,0.0,0.0,0.0,0.0,0.0,0.0,0.0,0.0,0.5734,0.0,0.0,0.0,0.0,0.0,0.0,0.0,0.0,0.0,0.0,0.0,0.0,0.0,0.0,0.0,0.0,0.0,0.0,0.0,0.0,0.0,0.0,0.0,0.0,0.0,0.0,0.0,0.0,0.0,0.0,0.0,0.0,0.0,0.0,0.0,0.0,0.0,0.0,0.0,0.0,0.0,0.0,0.0,0.0,0.0,0.0,0.0,0.0,0.0,0.0,0.0,0.0,0.0,0.0,0.0,0.0,-0.3451,-0.0446,0.1908,0.3562,0.6467,0.8711,1.0076,1.0633,1.0829,1.0572,0.0,0.0,0.0,0.0,0.0,0.0,0.0,0.0,0.0,0.0,0.0,0.0,0.0,0.0,0.0,0.0,0.0,0.0,0.0,0.0,0.0,0.0,0.0,0.0,0.0,0.0,0.0,0.0,0.0,0.0,0.0,0.0,0.0,0.0,0.0,0.0,0.0,0.0,0.0,0.4772,0.5095,0.0,0.0,0.0,0.0,0.0,0.0,0.0,0.0,0.6272,0.0,0.0,0.0,0.0,0.0,0.0,0.0,0.0,0.0,0.0,0.0,0.0,0.0,0.0,0.0,0.0,0.0,0.0,0.0,0.0,0.0,0.0,0.0,0.0,0.0,0.0,0.0,0.0,0.0,0.0,0.0,0.0,0.0,0.0,0.0,0.0,0.0,0.0,0.0,0.0,0.0,0.0,0.0,0.0,0.0,0.0,0.0,0.0,0.0,0.0,0.0,0.0,0.0,0.0,0.0,-0.2735,-0.0227,0.197,0.3832,0.6617,0.8843,1.0403,1.0886,1.107,0.0,0.0,0.0,0.0,0.0,0.0,0.0,0.0,0.0,0.0,0.0,0.0,0.0,0.0,0.0,0.0,0.0,0.0,0.0,0.0,0.0,0.0,0.0,0.0,0.0,0.0,0.0,0.0,0.0,0.0,0.0,0.0,0.0,0.0,0.0,0.0,0.0,0.0,0.0,0.0,0.5387,0.5977,0.5811,0.0,0.0,0.0,0.0,0.0,0.0,0.5945,0.6572,0.0,0.0,0.0,0.0,0.0,0.0,0.0,0.0,0.0,0.0,0.0,0.0,0.0,0.0,0.0,0.0,0.0,0.0,0.0,0.0,0.0,0.0,0.0,0.0,0.0,0.0,0.0,0.0,0.0,0.0,0.0,0.0,0.0,0.0,0.0,0.0,0.0,0.0,0.0,0.0,0.0,0.0,0.0,0.0,0.0,0.0,0.0,0.0,0.0,0.0,0.0,0.0,0.0,0.0,0.0,-0.2289,0.0027,0.2414,0.4838,0.7035,0.9015,1.0708,1.095,1.1075,0.0,0.0,0.0,0.0,0.0,0.0,0.0,0.0,0.0,0.0,0.0,0.0,0.0,0.0,0.0,0.0,0.0,0.0,0.0,0.0,0.0,0.0,0.0,0.0,0.0,0.0,0.0,0.0,0.0,0.0,0.0,0.0,0.0,0.0,0.0,0.0,0.0,0.0,0.0,0.0,0.0,0.6852,0.6689,0.6704,0.0,0.0,0.0,0.0,0.7237,0.7282,0.0,0.0,0.0,0.0,0.0,0.0,0.0,0.0,0.0,0.0,0.0,0.0,0.0,0.0,0.0,0.0,0.0,0.0,0.0,0.0,0.0,0.0,0.0,0.0,0.0,0.0,0.0,0.0,0.0,0.0,0.0,0.0,0.0,0.0,0.0,0.0,0.0,0.0,0.0,0.0,0.0,0.0,0.0,0.0,0.0,0.0,0.0,0.0,0.0,0.0,0.0,0.0,0.0,0.0,0.0,0.0,-0.2442,0.0202,0.344,0.7037,0.8032,0.929,1.0991,1.0684,1.0732,0.0,0.0,0.0,0.0,0.0,0.0,0.0,0.0,0.0,0.0,0.0,0.0,0.0,0.0,0.0,0.0,0.0,0.0,0.0,0.0,0.0,0.0,0.0,0.0,0.0,0.0,0.0,0.0,0.0,0.0,0.0,0.0,0.0,0.0,0.0,0.0,0.0,0.0,0.0,0.0,0.0,0.7041,0.7481,0.7549,0.7264,0.0,0.0,0.0,0.8316,0.8452,0.0,0.0,0.0,0.0,0.0,0.0,0.0,0.0,0.0,0.0,0.0,0.0,0.0,0.0,0.0,0.0,0.0,0.0,0.0,0.0,0.0,0.0,0.0,0.0,0.0,0.0,0.0,0.0,0.0,0.0,0.0,0.0,0.0,0.0,0.0,0.0,0.0,0.0,0.0,0.0,0.0,0.0,0.0,0.0,0.0,0.0,0.0,0.0,0.0,0.0,0.0,0.0,0.0,0.0,0.0,-0.2276,-0.2285,0.0164,0.3465,0.7426,0.8227,0.9391,1.1166,1.0639,1.0379,0.0,0.0,0.0,0.0,0.0,0.0,0.0,0.0,0.0,0.0,0.0,0.0,0.0,0.0,0.0,0.0,0.0,0.0,0.0,0.0,0.0,0.0,0.0,0.0,0.0,0.0,0.0,0.0,0.0,0.0,0.0,0.0,0.0,0.0,0.0,0.0,0.0,0.0,0.0,0.0,0.0,0.0,0.7627,0.7695,0.0,0.0,0.0,0.8042,0.8361,0.0,0.0,0.0,0.0,0.0,0.0,0.0,0.0,0.0,0.0,0.0,0.0,0.0,0.0,0.0,0.0,0.0,0.0,0.0,0.0,0.0,0.0,0.0,0.0,0.0,0.0,0.0,0.0,0.0,0.0,0.0,0.0,0.0,0.0,0.0,0.0,0.0,0.0,0.0,0.0,0.0,0.0,0.0,0.0,0.0,0.0,0.0,0.0,0.0,0.0,0.0,0.0,0.0,0.0,0.0,0.0,0.0,-0.216,0.0116,0.3375,0.7429,0.8233,0.9453,1.1209,1.0765,0.0,0.0,0.0,0.0,0.0,0.0,0.0,0.0,0.0,0.0,0.0,0.0,0.0,0.0,0.0,0.0,0.0,0.0,0.0,0.0,0.0,0.0,0.0,0.0,0.0,0.0,0.0,0.0343,0.0,0.0,0.0,0.0,0.0,0.0,0.0,0.0,0.0,0.0,0.0,0.0,0.0,0.0,0.7373,0.7656,0.8065,0.8117,0.0,0.0,0.9136,0.9104,1.0065,1.0355,0.0,0.0,0.0,0.0,0.0,0.0,0.0,0.0,0.0,0.0,0.0,0.0,0.0,0.0,0.0,0.0,0.0,0.0,0.0,0.0,0.0,0.0,0.0,0.0,0.0,0.0,0.0,0.0,0.0,0.0,0.0,0.0,0.0,0.0,0.0,0.0,0.0,0.0,0.0,0.0,0.0,0.0,0.0,0.0,0.0,0.0,0.0,0.0,0.0,0.0,0.0,0.0,0.0,0.0,0.0,-0.2124,0.0116,0.3344,0.7429,0.8206,0.9391,1.1224,1.1132,1.0751,0.0,0.0,0.0,0.0,0.0,0.0,0.0,0.0,0.0,0.0,0.0,0.0,0.0,0.0,0.0,0.0,0.0,0.0,0.0,0.0,0.0,0.0,0.0,0.0,0.0,0.0,0.0,0.0,0.0,0.0,0.0,0.0,0.0,0.0,0.0,0.0,0.0,0.0,0.0,0.0,0.0,0.7666,0.7695,0.9092,1.0163,0.0,0.0,1.0639,1.1426,1.1607,1.1274,0.9999,0.0,0.0,0.0,0.0,0.0,0.0,0.0,0.0,0.0,0.0,0.0,0.0,0.0,0.0,0.0,0.0,0.0,0.0,0.0,0.0,0.0,0.0,0.0,0.0,0.0,0.0,0.0,0.0,0.0,0.0,0.0,0.0,0.0,0.0,0.0,0.0,0.0,0.0,0.0,0.0,0.0,0.0,0.0,0.0,0.0,0.0,0.0,0.0,0.0,0.0,0.0,0.0,0.0,-0.2118,-0.2156,0.0116,0.3344,0.739,0.8233,0.9351,1.102,1.0961,1.0402,0.0,0.0,0.0,0.0,0.0,0.0,0.0,0.0,0.0,0.0,0.0,0.0,0.0,0.0,0.0,0.0,0.0,0.0,0.0,0.0,0.0,0.0,0.0,0.0,0.0,0.0,0.0,0.0,0.4714,0.4806,0.4012,0.0,0.0,0.0,0.0,0.0,0.0,0.0,0.0,0.0,0.0,0.789,0.8415,0.9531,0.0,0.0,1.2589,1.3491,1.1584,1.2097,1.1919,0.9754,0.7608,0.0,0.0,0.0,0.0,0.0,0.0,0.0,0.0,0.0,0.0,0.0,0.0,0.0,0.0,0.0,0.0,0.0,0.0,0.0,0.0,0.0,0.0,0.0,0.0,0.0,0.0,0.0,0.0,0.0,0.0,0.0,0.0,0.0,0.0,0.0,0.0,0.0,0.0,0.0,0.0,0.0,0.0,0.0,0.0,0.0,0.0,0.0,0.0,0.0,0.0,0.0,0.0,-0.2078,-0.2178,0.0116,0.3344,0.7508,0.8244,0.9286,1.0733,1.0987,1.0574,0.0,0.0,0.0,0.0,0.0,0.0,0.0,0.0,0.0,0.0,0.0,0.0,0.0,0.0,0.0,0.0,0.0,0.0,0.0,0.0,0.0,0.0,0.0,0.0,0.0,0.0,0.0,0.0,0.4495,0.441,0.3264,0.0,0.0,0.0,0.0,0.0,0.0,0.0,0.0,0.0,0.0,0.8467,0.8926,1.0019,1.0883,1.1257,1.34,1.4193,1.1795,1.218,1.2015,0.9918,0.0,0.0,0.0,0.0,0.0,0.0,0.0,0.0,0.0,0.0,0.0,0.0,0.0,0.0,0.0,0.0,0.0,0.0,0.0,0.0,0.0,0.0,0.0,0.0,0.0,0.0,0.0,0.0,0.0,0.0,0.1961,0.0,0.0,0.0,0.0,0.0,0.0,0.0,0.0,0.0,0.0,0.0,0.0,0.0,0.0,0.0,0.0,0.0,0.0,0.0,0.0,0.0,0.0,0.0,-0.2154,0.0145,0.3339,0.7459,0.8272,0.9249,1.0556,1.1365,1.1555,1.1073,0.0,0.0,0.0,0.0,0.0,0.0,0.0,0.0,0.0,0.0,0.0,0.0,0.0,0.0,0.0,0.0,0.0,0.0,0.0,0.0,0.0,0.0,0.0,0.0,0.0,0.0,0.5009,0.4607,0.3968,0.0,0.0,0.0,0.0,0.0,0.0,0.0,0.0,0.0,0.0,0.8828,0.9481,0.9126,1.0584,1.2006,1.2963,1.2341,1.1895,1.2328,1.1989,1.1412,0.0,0.0,0.0,0.0,0.0,0.0,0.0,0.0,0.0,0.0,0.0,0.0,0.0,0.0,0.0,0.0,0.0,0.0,0.0,0.0,0.0,0.0,0.0,0.0,0.0,0.0,0.0,0.1095,0.1125,0.0,0.0,0.0,0.0,0.0,0.0,0.0,0.0,0.0,0.0,0.0,0.0374,0.1533,0.0,0.0,0.0,0.0,0.0,0.0,0.0,0.0,0.0,0.0,0.0,0.0,-0.0982,-0.0386,0.088,0.3514,0.739,0.8503,0.9515,1.0579,1.1379,1.1158,0.9769,0.0,0.0,0.0,0.0,0.0,0.0,0.0,0.0,0.0,0.0,0.0,0.0,0.0,0.0,0.0,0.0,0.0,0.0,0.0,0.0,0.0,0.0,0.0,0.0,0.0,0.4573,0.0,0.0,0.0,0.0,0.0,0.0,0.0,0.0,0.0,0.0,0.0,0.6927,0.8357,0.8456,0.8971,1.0612,1.083,1.1356,0.0,0.0,0.0,0.0,0.0,0.0,0.0,0.0,0.0,0.0,0.0,0.0,0.0,0.0,0.9509,0.7058,0.6447,0.6529,0.7149,0.0,0.0,0.0,0.0,0.0,0.0,0.0,0.0,0.0,0.0,0.0,0.0,0.0,0.0,0.0972,0.0,0.1444,0.0,0.0,0.0,0.0,0.0,0.0,0.0,0.0,0.0597,0.0373,0.0082,0.1858,0.2169,0.0,0.0397,-0.0209,0.0,0.0,0.0,0.0,0.0,0.0,0.0,0.0,-0.0286,0.0628,0.1571,0.379,0.7342,0.8497,0.9552,1.0681,1.1421,1.1161,0.9835,0.89,0.7847,0.0,0.0,0.0,0.0,0.0,0.0,0.0,0.0,0.0,0.0,0.0,0.0,0.0,0.0,0.0,0.0,0.0,0.0,0.0,0.0,0.0,0.0,0.0,0.4615,0.0,0.0,0.0,0.0,0.0,0.0,0.0,0.0,0.0,0.6794,0.7012,0.7763,0.9575,0.9119,0.9287,1.0987,0.0,0.0,0.0,0.0,0.0,0.0,0.0,1.3081,1.1327,1.166,1.1741,1.0389,0.8602,0.8203,1.0783,0.0,0.0,0.8561,0.8121,0.8345,0.8527,0.844,0.8412,0.8662,0.89,0.8607,0.0,0.0,0.0,0.0,0.0,0.0,0.0,0.0,0.102,0.1147,0.0,0.1697,0.0,0.0,0.0,0.0,0.0,0.0,0.0,0.0,0.0,0.0,0.0,0.1797,0.265,0.2578,0.0928,0.0082,-0.0025,0.0024,0.0,0.0,0.0,0.0,0.0,0.0,0.005,0.0919,0.2092,0.4258,0.7312,0.828,0.9433,1.0849,1.1445,1.1605,1.1259,1.0256,0.9513,0.9012,0.7131,0.0,0.0,0.0,0.0,0.0,0.0,0.0,0.0,0.0,0.0,0.0,0.0,0.0,0.0,0.0,0.0,0.0,0.0,0.0,0.0,0.4203,0.0,0.0,0.0,0.0,0.0,0.0,0.0,0.0,0.0,0.0,0.976,0.9136,0.9094,1.0925,0.0,0.0,0.0,0.0,1.321,1.3261,1.4224,1.4412,1.2843,1.2077,1.1992,1.2904,0.0,0.0,1.2803,1.2165,1.1812,1.2695,1.29,1.2373,1.0664,1.0326,1.0227,0.9814,0.9535,0.9216,0.9253,1.0254,1.0558,0.1164,0.0,0.0,0.0,0.0,0.1463,0.0906,0.0227,0.1651,0.2259,0.2193,0.2093,0.0,0.0,0.0,0.0,0.0,0.0,0.016,0.0,0.0,0.0,0.0,0.1178,0.2039,0.2678,0.2171,0.1265,0.0062,0.0611,0.0614,-0.0,0.0,0.0,0.0,0.0,0.0317,0.1246,0.3343,0.5157,0.6631,0.8261,0.9703,1.0873,1.108,1.1104,1.1038,1.0717,1.0308,0.973,0.9562,0.0,0.0,0.0,0.0,0.0,0.0,0.0,0.0,0.0,0.0,0.0,0.0,0.0,0.0,0.0,0.0,0.0,0.0,0.0,0.5127,0.6294,0.627,0.0,0.0,0.0,0.0,0.0,0.0,0.0,0.0,0.0,0.9935,0.9205,0.879,0.0,0.0,1.0731,1.1445,1.248,1.3521,1.4287,0.0,0.0,0.0,1.3898,1.3093,1.4078,1.3716,1.3027,1.2145,1.2292,1.2635,1.2861,1.3369,1.3418,1.2439,1.2143,1.2091,1.1994,1.2086,1.2301,1.2628,1.3308,1.3716,0.128,0.11,0.1265,0.1227,0.1097,0.1098,0.068,0.0068,0.1161,0.209,0.285,0.2574,0.2361,0.2103,0.1274,0.0,0.0,0.0,0.0,0.0,0.0,0.0,0.0,0.0874,0.1804,0.2653,0.2696,0.2147,0.107,0.1605,0.1598,0.1063,0.0,0.0,0.0,0.0716,0.1313,0.1896,0.4247,0.5768,0.6339,0.8442,0.983,1.0432,1.0473,1.0617,1.0897,1.0897,1.0717,1.0381,1.0943,1.0375,0.0,0.0,0.0,0.0,0.0,0.0,0.0,0.0,0.0,0.0,0.0,0.4199,0.0,0.0,0.0,0.0,0.3848,0.5068,0.6152,0.6499,0.0,0.0,0.0,0.0,0.0,0.0,0.0,0.3251,0.5068,0.7372,0.9916,0.9805,0.9731,1.0444,1.0151,1.0554,1.2295,0.0,1.3899,1.5894,1.6284,1.6269,1.6081,1.5137,1.4556,1.4896,1.4428,1.391,1.3271,1.3281,1.3496,1.3848,1.4297,1.4482,1.3975,1.3748,1.3631,1.3567,1.3652,1.389,1.4433,1.5091,1.5574,0.0633,0.2214,0.0539,-0.0212,-0.0293,-0.0293,-0.0188,0.0,-0.0039,0.1143,0.3071,0.3041,0.2937,0.2619,0.0977,0.0,0.0,0.0,0.0,0.0,0.0,0.0,0.0,0.0896,0.1829,0.2752,0.2725,0.2723,0.271,0.2705,0.2681,0.2625,0.1014,0.0149,0.0168,0.173,0.2561,0.2611,0.4759,0.6106,0.6525,0.8682,0.9779,0.9792,0.9913,1.0241,1.0821,1.0873,1.0897,1.092,1.1437,1.146,1.0819,0.0,0.0,0.0,0.0,0.0,0.0,0.0,0.0,0.0,0.0,0.0,0.0,0.0,0.0,0.0,0.5575,0.0,0.611,0.5468,0.0,0.0,0.0,0.4975,0.4157,0.4516,0.496,0.537,0.0,0.0,1.0099,0.0,1.1529,1.2253,1.0562,1.0165,1.2708,1.3307,1.4575,1.757,1.6991,1.6041,1.5835,1.5939,1.5936,1.5425,1.5088,1.4932,1.5146,1.4736,1.4609,1.5156,1.54,1.5381,1.54,1.498,1.4851,1.4785,1.4523,1.456,1.5311,1.5997,1.6469,-0.1162,-0.0778,-0.1185,-0.1913,-0.2751,-0.2751,-0.1709,-0.0039,-0.0234,0.1049,0.3222,0.3247,0.3142,0.2987,0.2339,0.1321,0.0,0.0,0.0,0.0,0.0,0.0,0.0,0.1161,0.2121,0.2978,0.3008,0.2924,0.2714,0.2787,0.2719,0.2466,0.2029,0.1461,0.073,0.1109,0.1703,0.2432,0.4233,0.5888,0.7346,0.8492,0.9198,0.9504,1.0236,1.0635,1.0508,1.0777,1.0897,1.0897,1.1038,1.1062,1.0897,0.9288,0.0,0.0,0.0,0.0,0.0,0.0,0.0,0.0,0.0,0.4877,0.4321,0.0,0.5236,0.0,0.4365,0.5886,0.627,0.5575,0.0,0.0,0.5691,0.5344,0.3831,0.4793,0.5848,0.6506,0.6659,0.8068,1.1796,1.2383,1.2537,1.2718,1.1915,1.1492,1.2038,1.417,1.6193,1.7392,1.7402,1.7134,1.6795,1.6748,1.6426,1.5535,1.5322,1.5303,1.54,1.5254,1.5186,1.5371,1.542,1.542,1.542,1.5312,1.5531,1.6161,1.6154,1.6147,1.6896,1.7573,1.7967,-0.3215,-0.3337,-0.3337,-0.3824,-0.4559,-0.39,-0.2844,-0.1537,-0.0624,0.0541,0.1914,0.2962,0.3392,0.3323,0.3171,0.1961,0.0,0.0,0.0,0.0,0.0,0.0,0.0,0.1225,0.2351,0.3296,0.3164,0.3041,0.2968,0.3005,0.2917,0.2822,0.2754,0.2353,0.1735,0.1526,0.1903,0.2884,0.4562,0.6084,0.7385,0.7997,0.8499,0.8898,0.9602,0.9883,0.9596,0.9859,0.9958,0.9882,1.0241,1.0594,1.0873,1.0798,0.8618,0.0,0.0,0.0,0.0,0.0,0.0,0.0,0.0,0.0,0.0,0.0,0.643,0.0,0.5636,0.6353,0.6592,0.71,0.7186,0.6568,0.6766,0.646,0.5215,0.6168,0.714,0.7741,0.8859,1.0444,1.2609,1.2891,1.2891,1.2881,1.2598,1.2344,1.2348,1.4071,1.5687,1.6488,1.6631,1.6592,1.6439,1.6297,1.6026,1.5526,1.542,1.542,1.542,1.542,1.542,1.542,1.542,1.542,1.542,1.542,1.5748,1.6585,1.7146,1.7534,1.795,1.8178,1.8178,-0.5129,-0.531,-0.531,-0.5484,-0.5707,-0.4384,-0.3725,-0.3452,-0.1385,-0.0268,0.0133,0.2237,0.3283,0.3571,0.3257,0.1984,0.0,0.0,0.0,0.0,0.0,0.0,0.0,0.1079,0.2293,0.3535,0.33,0.321,0.3314,0.3171,0.319,0.3253,0.3131,0.2917,0.2712,0.2342,0.2586,0.3494,0.5134,0.6299,0.694,0.7429,0.785,0.8162,0.851,0.866,0.8578,0.8759,0.8779,0.8592,0.9279,0.9964,1.0601,1.098,0.9432,0.0,0.4327,0.0,0.0,0.0,0.0,0.0,0.0,0.0,0.0,0.6341,0.6816,0.7773,0.7958,0.7803,0.7197,0.9043,0.9731,0.8347,0.809,0.7828,0.7314,0.7795,0.8331,0.876,1.1042,1.2659,1.2871,1.2891,1.2891,1.2891,1.2939,1.291,1.2939,1.3686,1.4617,1.5303,1.542,1.5555,1.5535,1.5449,1.5468,1.541,1.542,1.542,1.542,1.542,1.542,1.542,1.542,1.542,1.542,1.542,1.5748,1.6641,1.7313,1.7918,1.8447,1.8394,1.834,-0.6052,-0.5313,-0.5318,-0.5356,-0.5404,-0.5096,-0.4434,-0.3554,-0.3123,-0.1825,0.0,0.0491,0.1746,0.3385,0.1528,0.045,0.0,0.0,0.0,0.0,0.0,0.0,0.0,0.0222,0.1458,0.351,0.3564,0.3436,0.331,0.3259,0.3181,0.2994,0.2951,0.2862,0.2716,0.0,0.0,0.0,0.4726,0.5623,0.6155,0.7148,0.7619,0.7495,0.7511,0.0,0.8338,0.8586,0.8615,0.8372,0.8404,0.0,0.0,0.0,0.0,0.0,0.0,0.0,0.0,0.0,0.0,0.0,0.6717,0.6204,0.5944,0.6193,0.7061,0.8603,0.9385,0.9473,0.8701,0.96,0.9864,0.8833,0.8626,0.8566,0.8441,0.834,0.837,0.8786,1.025,1.1665,1.2715,1.2891,1.2891,1.293,1.3174,1.3232,1.2959,1.3828,1.4697,1.5283,1.542,1.542,1.542,1.542,1.542,1.542,1.542,1.542,1.542,1.542,1.542,1.542,1.542,1.542,1.542,1.542,1.5633,1.6436,1.6255,1.6518,1.8274,1.9032,1.9475,-0.7554,0.0,-0.6399,-0.6284,0.0,-0.5867,-0.5432,-0.4817,-0.3953,-0.2937,-0.1697,-0.0536,0.0672,0.1749,0.0539,0.0,0.0,0.0,0.0,0.0,0.0,0.0,0.0,0.0,0.0939,0.2732,0.3315,0.3544,0.3427,0.345,0.3374,0.3242,0.3242,0.3164,0.3008,0.3227,0.3469,0.3653,0.4977,0.5828,0.6228,0.7167,0.7706,0.7804,0.0,0.0,0.0,0.0,0.0,0.0,0.0,0.0,0.0,0.0,0.0,0.7671,0.728,0.6475,0.5264,0.6255,0.7358,0.823,0.7763,0.7063,0.6168,0.707,0.8223,0.9502,1.0067,1.006,0.9483,0.9954,0.9888,0.8933,0.8804,0.8804,0.8791,0.8619,0.8779,0.9422,1.0102,1.1124,1.2686,1.2891,1.2978,1.3174,1.3428,1.3652,1.375,1.4248,1.4853,1.5322,1.542,1.542,1.542,1.542,1.542,1.542,1.542,1.542,1.542,1.542,1.542,1.542,1.542,1.542,1.542,1.542,1.5526,1.5864,1.6083,1.6358,1.7468,1.8167,1.8927,-0.9064,-0.7774,-0.7632,-0.7402,-0.7095,-0.6668,-0.6363,-0.6045,0.0,0.0,0.0,-0.1526,-0.0404,0.0,0.0,0.0,0.0,0.0,0.0,0.0,0.0,0.0,0.0,0.0,0.0626,0.1828,0.304,0.3581,0.3578,0.3578,0.3667,0.3711,0.3667,0.3503,0.3382,0.4007,0.4197,0.4024,0.5348,0.6149,0.6402,0.7027,0.7613,0.8116,0.8915,0.9074,0.8571,0.8697,0.8697,0.8532,0.7839,0.7379,0.7232,0.7449,0.7685,0.79,0.7929,0.7234,0.5719,0.7499,0.8765,0.896,0.8546,0.7908,0.692,0.8019,0.9035,0.9836,1.0127,1.0207,0.9978,0.9974,0.9695,0.886,0.8804,0.8804,0.8804,0.8804,0.9152,1.0079,1.0328,1.0981,1.2627,1.2959,1.3115,1.3477,1.3779,1.4102,1.459,1.4814,1.5029,1.5342,1.542,1.542,1.542,1.542,1.542,1.542,1.542,1.542,1.542,1.542,1.542,1.542,1.542,1.542,1.542,1.542,1.542,1.542,1.6036,1.6652,1.6595,1.6978,1.7961,-0.988,-0.8675,-0.8091,-0.7795,-0.7756,-0.7709,-0.7037,-0.5944,-0.4799,-0.4133,-0.3818,-0.3327,-0.1961,0.0,0.0,0.0,0.0,0.0,0.0,0.0,0.0,0.0,0.0,0.0,0.0627,0.183,0.3001,0.3592,0.3581,0.3578,0.384,0.4176,0.384,0.35,0.3396,0.4311,0.4718,0.4525,0.5432,0.5956,0.5989,0.6366,0.6842,0.7462,0.8976,0.9333,0.8397,0.8376,0.8372,0.8329,0.7906,0.7526,0.7214,0.7264,0.7744,0.8705,0.8828,0.8374,0.7444,0.835,0.8916,0.8821,0.8765,0.8693,0.8655,0.7999,0.7784,0.8234,0.947,1.0381,1.0391,0.9601,0.901,0.8817,0.8804,0.8804,0.8804,0.8804,0.9278,1.0486,1.0702,1.1225,1.2597,1.3184,1.3457,1.374,1.4228,1.4775,1.5117,1.5303,1.5342,1.54,1.542,1.542,1.542,1.542,1.542,1.542,1.542,1.542,1.542,1.542,1.542,1.542,1.542,1.542,1.542,1.542,1.542,1.542,1.5642,1.5864,1.6312,1.6539,1.7302,-1.0462,-0.9159,-0.8456,-0.8076,-0.7875,-0.7481,-0.6798,-0.5906,-0.5056,-0.4376,-0.3914,-0.3835,-0.3136,-0.1907,-0.06,0.0,0.0046,0.1362,0.1258,0.0,0.0,0.0,0.0,0.0,0.0627,0.1828,0.3001,0.3588,0.3578,0.3578,0.388,0.4347,0.4176,0.401,0.3929,0.4541,0.4843,0.4812,0.6117,0.672,0.6476,0.7434,0.7919,0.7884,0.9194,0.9629,0.8992,0.911,0.9241,0.9282,0.8912,0.853,0.8112,0.7703,0.8128,0.9587,0.9697,0.953,0.9129,0.9114,0.8896,0.8372,0.8309,0.8197,0.795,0.8057,0.8047,0.7968,0.8915,0.9602,0.9802,0.9235,0.8804,0.8804,0.8804,0.8804,0.8804,0.8804,0.9323,1.0557,1.0787,1.1334,1.2725,1.3242,1.3711,1.4111,1.4736,1.5205,1.5381,1.542,1.542,1.542,1.542,1.542,1.542,1.542,1.542,1.542,1.542,1.542,1.542,1.542,1.542,1.542,1.542,1.542,1.542,1.542,1.542,1.542,1.542,1.5584,1.5816,1.5931,1.6845,-1.1051,-0.968,-0.8811,-0.8237,-0.7781,-0.7057,-0.641,-0.5822,-0.5132,-0.4535,-0.406,-0.3672,-0.362,-0.3527,-0.1128,0.0,0.0,0.2493,0.259,0.0899,0.0269,0.0,0.0,0.0,0.0627,0.183,0.3046,0.3588,0.3581,0.3578,0.388,0.4391,0.4648,0.4696,0.443,0.4927,0.5132,0.5122,0.6862,0.7583,0.7139,0.829,0.8807,0.8696,0.93,0.9684,0.9641,0.9882,1.0034,1.009,0.9776,0.9446,0.9093,0.8417,0.8701,1.0078,1.0088,0.9935,0.9898,0.9319,0.8659,0.7953,0.7919,0.7655,0.7147,0.7814,0.8126,0.7852,0.8401,0.8903,0.9091,0.8913,0.8804,0.8804,0.8804,0.8804,0.8804,0.8804,0.9316,1.0517,1.0887,1.1437,1.2634,1.3418,1.4062,1.4678,1.5022,1.5148,1.5352,1.542,1.542,1.542,1.542,1.542,1.542,1.542,1.542,1.542,1.542,1.542,1.542,1.542,1.542,1.542,1.542,1.542,1.542,1.542,1.542,1.542,1.542,1.5468,1.5748,1.5968,1.6574,-1.1853,-1.0562,-0.9304,-0.837,-0.7688,-0.6935,-0.6182,-0.5537,-0.4805,-0.4498,-0.4287,-0.2745,-0.2934,-0.3886,-0.126,0.0,0.032,0.2532,0.3416,0.2951,0.0986,0.0,0.0,0.0,0.0627,0.183,0.3046,0.3592,0.3578,0.3626,0.388,0.4478,0.548,0.5432,0.4648,0.5497,0.5791,0.5315,0.7464,0.8246,0.7577,0.7743,0.8383,0.9453,0.9223,0.9393,0.9982,1.0078,1.01,1.008,0.9808,0.9722,0.9874,0.9266,0.9307,1.0157,0.9399,0.8861,0.8827,0.8431,0.8129,0.7953,0.7893,0.7643,0.7083,0.7118,0.7154,0.7311,0.8199,0.8797,0.8862,0.8784,0.8804,0.8804,0.8804,0.8804,0.8811,0.8804,0.9309,1.0669,1.117,1.1783,1.2774,1.3715,1.4598,1.4869,1.4545,1.4628,1.5294,1.542,1.542,1.542,1.542,1.542,1.542,1.542,1.542,1.542,1.542,1.542,1.542,1.542,1.542,1.542,1.542,1.542,1.542,1.542,1.542,1.541,1.5468,1.5642,1.6255,1.681,1.7523,-1.2015,-1.072,-0.9762,-0.8725,-0.7605,-0.647,-0.5882,-0.5673,-0.486,-0.449,-0.4415,-0.3733,-0.2862,-0.1821,-0.0546,0.092,0.2634,0.2597,0.2922,0.3407,0.1858,0.0716,0.0,0.0,0.0627,0.183,0.3046,0.3588,0.367,0.3924,0.4351,0.4913,0.5437,0.5389,0.5,0.5787,0.5922,0.5389,0.7209,0.8221,0.8331,0.8893,0.921,0.9285,0.9524,0.9726,0.9805,1.0008,1.0169,1.0226,1.0076,1.0086,1.02,0.993,0.9639,0.9372,0.8958,0.8594,0.8333,0.8095,0.778,0.7405,0.7531,0.757,0.7419,0.7482,0.7689,0.8083,0.8524,0.8804,0.8804,0.8804,0.8804,0.8804,0.8804,0.8811,0.8804,0.8958,0.9578,1.0959,1.1502,1.2086,1.2716,1.3116,1.3449,1.3819,1.3666,1.3965,1.5118,1.542,1.542,1.542,1.542,1.542,1.542,1.542,1.542,1.542,1.542,1.542,1.542,1.542,1.542,1.542,1.542,1.542,1.542,1.542,1.542,1.5546,1.5921,1.6368,1.7578,1.7688,1.7895,-1.1859,-1.0485,-0.9592,-0.8501,-0.7343,-0.6249,-0.5668,-0.5356,-0.4356,-0.4098,-0.4501,-0.4511,-0.2852,0.0,0.0,0.1669,0.4062,0.304,0.2812,0.3431,0.2372,0.1163,0.0,0.0,0.0627,0.183,0.3046,0.3592,0.367,0.4132,0.4561,0.486,0.513,0.5308,0.5346,0.5916,0.6007,0.5739,0.711,0.8089,0.8529,0.9446,0.98,0.943,0.9908,1.0108,0.9832,1.0089,1.024,1.0293,1.0322,1.0322,1.0322,1.0322,0.9677,0.8423,0.8398,0.8259,0.7841,0.769,0.7504,0.7224,0.7375,0.7607,0.7749,0.7829,0.8147,0.8684,0.8804,0.8804,0.8804,0.8804,0.8804,0.8804,0.8804,0.8831,0.8931,0.9302,1.0126,1.1126,1.1999,1.2612,1.3027,1.2522,1.2066,1.2879,1.2879,1.3122,1.4392,1.4874,1.5118,1.5352,1.542,1.542,1.542,1.542,1.542,1.542,1.542,1.542,1.542,1.542,1.542,1.542,1.542,1.542,1.542,1.542,1.5761,1.6103,1.6743,1.7743,1.8911,1.8643,1.875,-1.1532,-0.9688,-0.833,-0.7337,-0.6637,-0.648,-0.5723,-0.4591,-0.3125,-0.319,-0.4228,-0.4284,-0.2753,0.0,0.0,0.1616,0.4148,0.3979,0.3736,0.3541,0.2375,0.1163,0.0,0.0,0.0672,0.183,0.3001,0.3592,0.3626,0.4092,0.4156,0.3792,0.4769,0.5308,0.5394,0.5916,0.6179,0.6221,0.7202,0.7878,0.8036,0.8827,0.9545,1.007,1.0282,1.0262,1.0234,1.0283,1.0302,1.0273,1.0322,1.0322,1.0322,1.0235,0.9222,0.7474,0.7614,0.7655,0.7189,0.7125,0.7224,0.7488,0.7587,0.7682,0.809,0.8076,0.825,0.8758,0.8804,0.8804,0.8804,0.8804,0.8824,0.8844,0.8838,0.8971,0.9198,1.0151,1.0724,1.1107,1.2431,1.346,1.3909,1.2066,1.1663,1.2274,1.2266,1.2205,1.294,1.3726,1.451,1.5177,1.542,1.542,1.542,1.542,1.542,1.5439,1.5459,1.5439,1.542,1.542,1.542,1.542,1.542,1.542,1.542,1.5751,1.6361,1.7143,1.8514,1.9609,2.0013,1.9912,1.998,-1.1329,-0.8919,-0.7036,-0.614,-0.5873,-0.5449,-0.4974,-0.449,-0.3931,-0.2858,-0.1738,0.0,-0.101,0.0,0.0,0.1024,0.2765,0.359,0.3972,0.3718,0.2463,0.1163,0.0269,0.1528,0.2062,0.1966,0.2998,0.3585,0.3626,0.3796,0.3818,0.384,0.4765,0.5308,0.5437,0.5916,0.6179,0.6227,0.6647,0.716,0.7829,0.8283,0.8926,0.9725,1.0118,1.0322,1.0322,1.0322,1.0322,1.0322,1.0322,1.0322,1.0157,0.8933,0.7874,0.7147,0.7196,0.7238,0.7047,0.7201,0.7388,0.7589,0.7896,0.809,0.8303,0.8424,0.8584,0.8751,0.8804,0.8804,0.8804,0.8804,0.8851,0.9022,0.923,0.9392,0.9697,1.0494,1.1238,1.1482,1.2772,1.3578,1.2813,1.1593,1.0863,1.1303,1.124,1.1233,1.1608,1.2552,1.3899,1.5059,1.542,1.5508,1.582,1.5557,1.543,1.5508,1.5557,1.5586,1.5586,1.5547,1.5537,1.5488,1.5469,1.6078,1.6307,1.698,1.7515,1.8625,2.0041,2.044,2.088,2.0903,2.0932,-1.0124,-0.7935,-0.6185,-0.5542,-0.5555,-0.5132,-0.4764,-0.4501,-0.4452,-0.2807,0.0,0.0,0.0,0.0,0.1006,0.1864,0.2709,0.3592,0.4014,0.3853,0.2465,0.1572,0.1515,0.285,0.3191,0.2598,0.3176,0.3578,0.3578,0.3578,0.3612,0.3683,0.4557,0.513,0.5346,0.5916,0.6264,0.6435,0.6477,0.6901,0.753,0.769,0.8136,0.8999,0.9832,1.0322,1.0283,1.0079,1.0079,1.0235,1.0157,1.0118,1.0079,0.8203,0.6972,0.6985,0.7114,0.7114,0.7088,0.7395,0.7722,0.7969,0.8252,0.8454,0.851,0.8697,0.8791,0.8804,0.8804,0.8804,0.8891,0.9145,0.9323,0.9326,0.9555,0.9786,0.9885,1.0739,1.156,1.2177,1.2402,1.2472,1.2189,1.1288,1.0744,1.0618,1.0618,1.0618,1.0814,1.1817,1.3432,1.4961,1.5131,1.5413,1.5702,1.5635,1.5795,1.5882,1.6045,1.5986,1.5879,1.5801,1.5752,1.5644,1.6018,1.6817,1.7512,1.8217,1.9089,2.0087,2.0605,2.1044,2.1533,2.2039,2.1898,-0.797,-0.6637,-0.576,-0.5559,-0.5686,-0.5639,-0.5266,-0.4567,-0.4284,-0.2475,0.0,0.0,0.0,0.0,0.2751,0.431,0.4257,0.4095,0.4059,0.3868,0.2532,0.2401,0.3147,0.3446,0.3608,0.3423,0.3581,0.3578,0.3578,0.3622,0.3622,0.3751,0.4264,0.4908,0.5351,0.5873,0.6392,0.6725,0.6768,0.6894,0.7007,0.7058,0.7432,0.8077,0.9318,1.0056,1.0157,0.9628,0.9667,1.0079,0.9795,0.9755,0.9843,0.8162,0.6972,0.7061,0.7288,0.7315,0.7208,0.7642,0.817,0.8537,0.853,0.8524,0.8717,0.8791,0.8804,0.8804,0.8804,0.8804,0.8971,0.9753,1.008,0.9464,0.9748,1.0033,1.0221,1.0823,1.1929,1.2929,1.2143,1.1226,1.1648,1.1226,1.0618,1.0618,1.0658,1.0595,1.0778,1.1751,1.3241,1.462,1.4946,1.4872,1.5285,1.5745,1.6069,1.6348,1.6553,1.6621,1.6455,1.6367,1.6465,1.6498,1.7521,1.8297,1.925,1.9872,1.9885,2.0656,2.1093,2.1431,2.1752,2.2152,2.2563,-0.7676,-0.6069,-0.5195,-0.4871,-0.493,-0.4942,-0.473,-0.4228,-0.2413,-0.0851,0.0,0.0,0.0,0.0,0.3114,0.4522,0.4474,0.4344,0.4297,0.3974,0.2986,0.2422,0.2603,0.3532,0.3935,0.3731,0.3626,0.3578,0.3578,0.3622,0.384,0.436,0.4787,0.5308,0.5873,0.5744,0.5867,0.6301,0.6039,0.6039,0.6428,0.6839,0.7301,0.7829,0.8002,0.8357,0.9159,0.9677,0.9873,0.9755,0.9597,0.9399,0.899,0.7799,0.7014,0.7018,0.7368,0.7829,0.819,0.8223,0.8397,0.8704,0.8711,0.8711,0.8784,0.8804,0.8804,0.8804,0.8804,0.8804,0.8998,0.9866,1.023,0.9598,1.0089,1.0361,1.0443,1.0643,1.1552,1.2724,1.1725,1.0933,1.0989,1.0688,1.0651,1.0678,1.0799,1.0808,1.0923,1.2176,1.386,1.4982,1.458,1.4262,1.4806,1.5397,1.5848,1.6487,1.6871,1.7054,1.6982,1.6992,1.71,1.7938,1.8973,1.9836,2.0767,2.11,2.1001,2.0876,2.1151,2.1483,2.1729,2.2063,2.231,-0.7382,-0.5305,-0.4141,-0.3984,-0.4445,-0.4511,-0.3828,-0.2695,-0.084,0.0,0.0,0.0,0.121,0.0874,0.3218,0.4538,0.4539,0.4739,0.4793,0.4577,0.3822,0.3131,0.2837,0.3599,0.4,0.3852,0.3704,0.3629,0.3622,0.3796,0.414,0.457,0.5265,0.5787,0.6136,0.583,0.583,0.6093,0.583,0.583,0.6221,0.6732,0.7154,0.7489,0.7447,0.7746,0.8439,0.9239,0.9567,0.9279,0.9191,0.9039,0.8635,0.7641,0.6972,0.7078,0.7497,0.8019,0.8691,0.8611,0.8604,0.8771,0.8804,0.8804,0.8804,0.8804,0.8804,0.8804,0.8804,0.8978,0.9486,1.012,1.0382,1.0116,1.0325,1.0555,1.0618,1.0618,1.0919,1.1663,1.1178,1.0681,1.0624,1.0745,1.0728,1.0795,1.0989,1.1122,1.1193,1.2167,1.3264,1.3956,1.3535,1.367,1.4388,1.4992,1.5575,1.6383,1.7148,1.7369,1.7432,1.7635,1.7829,1.95,2.0715,2.0842,2.1655,2.1655,2.1572,2.1491,2.1175,2.1365,2.1553,2.1616,2.1928,-0.6998,-0.4421,-0.2734,-0.2577,-0.3442,-0.3778,-0.2701,-0.0619,-0.0449,0.0,0.0,0.3116,0.3175,0.1525,0.3624,0.467,0.4664,0.5113,0.537,0.5295,0.4856,0.4459,0.4239,0.4195,0.4098,0.3839,0.3792,0.3704,0.3622,0.4089,0.443,0.4735,0.5615,0.6227,0.6264,0.6179,0.6002,0.605,0.605,0.605,0.6136,0.6732,0.7021,0.7063,0.7587,0.7908,0.7979,0.8437,0.8684,0.8643,0.8602,0.8513,0.839,0.7558,0.6972,0.7068,0.7582,0.818,0.8665,0.8778,0.8771,0.8798,0.8804,0.8804,0.8804,0.8804,0.8804,0.8824,0.8965,0.9223,0.9813,1.0445,1.0485,1.0555,1.0555,1.0618,1.0618,1.0618,1.0744,1.0744,1.0618,1.0618,1.0575,1.0788,1.1009,1.1236,1.1369,1.1363,1.1383,1.1826,1.1891,1.2386,1.3143,1.3265,1.4011,1.4487,1.5118,1.5965,1.6977,1.762,1.7764,1.7968,1.8654,2.0386,2.1865,2.2051,2.2002,2.1939,2.1553,2.1037,2.0974,2.1164,2.1239,2.1239,2.1827,-0.6132,-0.4274,-0.168,0.0738,0.2196,0.0057,-0.1419,-0.173,-0.2774,-0.1941,0.0058,0.2349,0.3419,0.347,0.4235,0.468,0.472,0.5218,0.5483,0.5542,0.5932,0.5701,0.5206,0.4899,0.4489,0.4,0.3853,0.3704,0.3642,0.4168,0.4778,0.5513,0.5959,0.6435,0.6641,0.5953,0.5572,0.5524,0.5567,0.5567,0.5696,0.6556,0.6979,0.7021,0.7196,0.7433,0.7577,0.7743,0.7924,0.8051,0.7648,0.7433,0.7474,0.7182,0.7012,0.7231,0.7981,0.8612,0.8712,0.8804,0.8804,0.8804,0.8804,0.8804,0.8804,0.8804,0.8804,0.8958,0.9506,0.9211,0.7923,0.9144,1.0338,1.0618,1.0618,1.0618,1.0618,1.0618,1.0618,1.0618,1.0624,1.0645,1.0678,1.0868,1.1263,1.1724,1.177,1.1623,1.163,1.1881,1.2222,1.3272,1.3829,1.3534,1.3519,1.3988,1.4657,1.55,1.6627,1.7891,1.792,1.7969,1.8977,2.0398,2.2051,2.2628,2.2187,2.1889,2.1302,2.0655,2.0475,2.0497,2.0764,2.088,2.1726,-0.4505,-0.235,0.0615,0.2723,0.392,0.2772,0.0961,-0.1428,-0.3516,-0.361,-0.1465,0.1248,0.3209,0.4432,0.4713,0.4728,0.4591,0.5218,0.5651,0.6145,0.7015,0.6735,0.5806,0.5293,0.4833,0.4148,0.3961,0.3799,0.3871,0.442,0.5173,0.5813,0.6337,0.6732,0.6852,0.5905,0.5308,0.5308,0.5308,0.5308,0.5394,0.6416,0.6888,0.6972,0.6979,0.7128,0.7255,0.7275,0.7453,0.765,0.7356,0.6972,0.6972,0.6972,0.7198,0.7702,0.8457,0.8804,0.8804,0.8804,0.8804,0.8804,0.8804,0.8878,0.8925,0.8898,0.8858,0.9372,1.0174,0.9481,0.8518,0.9491,1.0408,1.0618,1.0618,1.0624,1.0624,1.0618,1.0618,1.0645,1.0725,1.0745,1.0678,1.1022,1.1597,1.2058,1.2084,1.1957,1.1897,1.2224,1.2945,1.4155,1.4942,1.4783,1.3636,1.3593,1.4624,1.5547,1.7204,1.8339,1.8337,1.8395,1.9617,2.0962,2.2237,2.2884,2.2322,2.1753,2.1112,2.0571,2.0085,2.0094,2.0435,2.0906,2.1789,-0.2327,0.0668,0.3368,0.3713,0.2983,0.4399,0.31,0.0,-0.2867,-0.4178,-0.3343,-0.0,0.22,0.4057,0.442,0.4721,0.4494,0.5202,0.5982,0.6848,0.7771,0.7658,0.6131,0.5774,0.5231,0.4483,0.4148,0.3931,0.4098,0.4812,0.5571,0.6165,0.6764,0.6963,0.6816,0.5867,0.5351,0.5308,0.5308,0.5308,0.5539,0.6428,0.7036,0.6993,0.6972,0.6986,0.7072,0.7128,0.7332,0.7672,0.7258,0.7021,0.6985,0.7018,0.7682,0.845,0.8724,0.8804,0.8804,0.8804,0.8804,0.8811,0.8844,0.8951,0.9118,0.9072,0.9218,0.9719,1.0362,1.0368,1.0268,1.0555,1.0555,1.0618,1.0618,1.0631,1.0665,1.0672,1.0658,1.0651,1.0828,1.0875,1.1022,1.1411,1.1964,1.2178,1.2211,1.2164,1.2104,1.2218,1.3658,1.5579,1.6009,1.6228,1.4657,1.3098,1.4511,1.5816,1.7958,1.9184,1.8942,1.9299,2.0451,2.169,2.269,2.2715,2.2137,2.1565,2.1111,2.074,2.0454,2.0414,2.0533,2.1138,2.1911,0.011,0.3593,0.4219,0.4392,0.4282,0.4558,0.3414,0.1208,-0.1519,-0.3436,-0.3653,-0.1572,0.0058,0.1185,0.3498,0.4646,0.4298,0.5039,0.6195,0.7498,0.8321,0.8262,0.7176,0.6632,0.5877,0.51,0.4428,0.3993,0.4069,0.5101,0.6156,0.6754,0.7061,0.7248,0.6878,0.5927,0.5308,0.5308,0.5313,0.5318,0.556,0.6606,0.722,0.7057,0.7057,0.7052,0.7121,0.7443,0.7367,0.6976,0.6866,0.6917,0.7178,0.7882,0.8444,0.8664,0.8804,0.8804,0.8804,0.8804,0.8804,0.8824,0.8998,0.9117,0.9176,0.9406,0.9532,0.984,1.0288,1.0598,1.0618,1.0618,1.0618,1.0618,1.0645,1.0668,1.0835,1.0889,1.0795,1.0768,1.1049,1.1476,1.1817,1.1794,1.2064,1.2258,1.2305,1.2305,1.2305,1.2305,1.4163,1.6228,1.5948,1.5948,1.5259,1.4046,1.5122,1.6696,1.8815,2.0151,1.9969,2.0303,2.1562,2.227,2.2908,2.2648,2.2067,2.2139,2.185,2.1386,2.0924,2.0924,2.1107,2.1538,2.1739,0.1274,0.4389,0.4494,0.4584,0.4635,0.4535,0.3567,0.1649,-0.101,-0.3077,-0.3842,-0.242,-0.1258,-0.0502,0.2064,0.3222,0.3334,0.446,0.5951,0.7272,0.8041,0.8049,0.767,0.6961,0.6192,0.5341,0.4587,0.4148,0.4398,0.5337,0.6458,0.7344,0.7507,0.7281,0.6888,0.5924,0.5399,0.5353,0.537,0.5375,0.5527,0.6551,0.7304,0.7289,0.7332,0.7431,0.749,0.7682,0.7456,0.6955,0.662,0.6802,0.7426,0.8234,0.8744,0.8804,0.8804,0.8804,0.8804,0.8804,0.8804,0.8824,0.9024,0.923,0.9412,0.9606,0.9833,1.0074,1.0361,1.0618,1.0618,1.0618,1.0618,1.0588,1.0681,1.0757,1.0811,1.0923,1.1069,1.1102,1.1436,1.181,1.2051,1.2071,1.2124,1.2298,1.2305,1.2305,1.2305,1.2592,1.4585,1.5939,1.5587,1.5392,1.5213,1.5234,1.6057,1.7821,1.9968,2.0975,2.1206,2.1829,2.2621,2.3059,2.334,2.2686,2.2246,2.2386,2.2534,2.1947,2.1567,2.1539,2.1493,2.1675,2.1606,0.1552,0.4311,0.4529,0.4632,0.4629,0.4536,0.3638,0.1898,-0.0668,-0.274,-0.4064,-0.293,-0.2388,-0.1515,0.0513,0.1452,0.2103,0.3109,0.4875,0.6528,0.7463,0.7563,0.7348,0.6799,0.6303,0.5575,0.4724,0.4351,0.4692,0.5597,0.6798,0.7757,0.7699,0.752,0.7038,0.6063,0.549,0.5505,0.547,0.546,0.5655,0.6681,0.7572,0.7898,0.7936,0.7922,0.7882,0.788,0.7713,0.7149,0.6352,0.6635,0.748,0.842,0.8804,0.8804,0.8804,0.8804,0.8804,0.8818,0.8838,0.8898,0.9158,0.9446,0.9679,0.986,1.0094,1.0389,1.0618,1.0618,1.0618,1.0618,1.0651,1.0668,1.0875,1.0883,1.0889,1.0976,1.1336,1.1494,1.177,1.2064,1.2198,1.2245,1.2285,1.2305,1.2305,1.2305,1.2305,1.2739,1.4378,1.5658,1.5446,1.445,1.4122,1.5486,1.6363,1.8727,2.0944,2.1728,2.2399,2.3538,2.4111,2.3644,2.3546,2.3121,2.3109,2.352,2.3395,2.2593,2.2332,2.2298,2.2101,2.1796,2.1484,0.0657,0.3314,0.471,0.5328,0.5214,0.4728,0.3619,0.2119,0.0279,-0.1955,-0.4219,-0.4176,-0.3893,-0.3193,-0.0949,0.0778,0.1635,0.2401,0.3242,0.4996,0.6288,0.7095,0.681,0.6647,0.6421,0.6095,0.512,0.4492,0.4834,0.5839,0.7126,0.8194,0.8092,0.7789,0.7274,0.6359,0.5619,0.5672,0.5574,0.5505,0.5916,0.7413,0.8599,0.8853,0.8686,0.8357,0.8076,0.8078,0.7703,0.656,0.6445,0.6607,0.7081,0.8088,0.8685,0.8804,0.8804,0.8804,0.8804,0.8831,0.9078,0.9392,0.9579,0.9726,0.9993,1.0234,1.0381,1.0468,1.0618,1.0618,1.0618,1.0618,1.0772,1.0868,1.1069,1.1208,1.1411,1.16,1.16,1.1649,1.1952,1.2211,1.2265,1.2305,1.2305,1.2305,1.2305,1.2305,1.2305,1.2592,1.3382,1.445,1.5313,1.4099,1.2959,1.485,1.6533,1.9392,2.1429,2.2446,2.3441,2.5078,2.5489,2.3967,2.4107,2.4696,2.4731,2.4701,2.4477,2.3862,2.3495,2.3066,2.2424,2.1858,2.1074,0.0492,0.3025,0.4805,0.5706,0.5869,0.4933,0.3602,0.2107,0.0612,-0.1226,-0.3019,-0.4092,-0.4484,-0.4082,-0.3183,-0.116,0.0651,0.0962,0.1381,0.2636,0.4599,0.6114,0.6109,0.6164,0.5887,0.5445,0.4783,0.4494,0.4628,0.5935,0.7356,0.8376,0.8352,0.8016,0.7495,0.6432,0.5831,0.5717,0.5606,0.5636,0.6018,0.8141,0.9344,0.9298,0.9026,0.8677,0.8521,0.8484,0.8061,0.7186,0.6742,0.6632,0.702,0.783,0.8804,0.8804,0.8804,0.8804,0.8851,0.8931,0.9245,0.9613,0.9806,0.9953,1.014,1.0347,1.0541,1.0618,1.0618,1.0618,1.0618,1.0618,1.0828,1.1249,1.141,1.1424,1.1571,1.1899,1.1925,1.1834,1.2065,1.2265,1.2285,1.2305,1.2305,1.2305,1.2305,1.2305,1.2305,1.2519,1.2886,1.3506,1.439,1.3887,1.3198,1.4796,1.6884,1.9687,2.1697,2.275,2.3564,2.4696,2.4074,2.2594,2.3597,2.5625,2.5314,2.4908,2.5001,2.4847,2.3936,2.308,2.2456,2.1821,2.1011,0.0218,0.3073,0.491,0.614,0.6583,0.5592,0.4197,0.254,0.0777,-0.0613,-0.1895,-0.3577,-0.448,-0.4249,-0.34,-0.1819,0.0646,0.0591,0.0321,0.0912,0.2019,0.3602,0.478,0.5167,0.4995,0.4838,0.4959,0.4664,0.4755,0.5909,0.7222,0.8076,0.8303,0.8223,0.7685,0.6655,0.5976,0.5701,0.5616,0.5917,0.7135,0.8691,0.9763,0.9467,0.9034,0.8784,0.8744,0.8751,0.8389,0.7747,0.7283,0.6966,0.6912,0.799,0.8752,0.8804,0.8804,0.8804,0.8871,0.9017,0.9399,0.9907,1.0027,1.012,1.0254,1.0428,1.0618,1.0618,1.0618,1.0618,1.0618,1.0618,1.0942,1.149,1.175,1.1799,1.1827,1.1959,1.2218,1.2245,1.2305,1.2305,1.2305,1.2305,1.2305,1.2305,1.2305,1.2305,1.2305,1.2305,1.2566,1.29,1.3269,1.3418,1.3722,1.4977,1.7282,2.0004,2.1618,2.2774,2.3239,2.3722,2.2702,2.2048,2.4449,2.61,2.5624,2.4944,2.4612,2.416,2.3638,2.3073,2.2328,2.1603,2.0789,-0.0491,0.3103,0.545,0.6912,0.745,0.7101,0.5932,0.3981,0.1388,-0.0,-0.0668,-0.313,-0.4438,-0.3752,-0.1673,0.1002,0.2391,0.1604,0.066,0.0878,-0.0165,0.0166,0.1883,0.2925,0.3808,0.4216,0.5124,0.5175,0.4961,0.591,0.6864,0.7588,0.8152,0.841,0.8259,0.6901,0.6339,0.6333,0.6207,0.7043,0.8622,0.9516,0.9722,0.9599,0.9176,0.8804,0.8804,0.8752,0.848,0.7943,0.8268,0.783,0.7128,0.799,0.8646,0.8804,0.8804,0.8811,0.8864,0.9103,0.9639,1.014,1.0254,1.0294,1.0408,1.0551,1.0618,1.0618,1.0618,1.0618,1.0638,1.0685,1.1009,1.1523,1.2004,1.2131,1.2158,1.2025,1.2291,1.2305,1.2305,1.2305,1.2305,1.2305,1.2305,1.2305,1.2305,1.2311,1.2371,1.2418,1.2712,1.3135,1.3219,1.3276,1.4214,1.5492,1.7673,2.0294,2.1507,2.2553,2.2702,2.2787,2.2414,2.2531,2.4774,2.5624,2.4693,2.4093,2.3925,2.3548,2.301,2.2553,2.2113,2.1375,2.0654,0.3902,0.4488,0.6421,0.7871,0.8666,0.7521,0.649,0.5382,0.3511,0.1562,-0.0334,-0.3137,-0.3644,-0.2007,-0.039,0.1618,0.3646,0.3028,0.1676,0.0332,-0.1484,-0.2477,-0.1545,0.0381,0.2169,0.3652,0.4519,0.486,0.4904,0.5437,0.6376,0.7317,0.7793,0.8184,0.8423,0.7035,0.6426,0.6415,0.6822,0.7879,0.9016,0.9577,0.9715,0.9747,0.9099,0.8857,0.8804,0.8752,0.8699,0.8374,0.8705,0.854,0.8103,0.8453,0.8798,0.8813,0.9125,0.9158,0.8938,0.9399,0.996,1.0347,1.0441,1.0448,1.0604,1.0618,1.0618,1.0618,1.0618,1.0581,1.0782,1.1189,1.161,1.2004,1.2184,1.2231,1.2305,1.2305,1.2305,1.2305,1.2305,1.2305,1.2305,1.2305,1.2311,1.2318,1.2338,1.2358,1.2525,1.2719,1.3126,1.3641,1.3628,1.3487,1.464,1.6013,1.8145,2.0382,2.1364,2.2103,2.1973,2.1907,2.1897,2.2048,2.3224,2.3655,2.3368,2.3599,2.3768,2.3084,2.2328,2.1928,2.1589,2.1195,2.0605,0.8063,0.688,0.7594,0.8659,0.9547,0.7545,0.6593,0.6386,0.4522,0.2571,0.0391,-0.2015,-0.1956,-0.0111,0.0891,0.2623,0.4379,0.4504,0.28,0.0387,-0.1645,-0.3087,-0.2713,-0.1145,0.1193,0.2756,0.4073,0.4446,0.4638,0.5035,0.5828,0.6944,0.7498,0.784,0.7811,0.7137,0.6374,0.6309,0.6945,0.7959,0.8976,0.9276,0.9372,0.9327,0.9113,0.8804,0.8804,0.8804,0.8752,0.8752,0.8758,0.8699,0.8646,0.8718,0.878,0.8991,0.9408,0.9768,0.9649,0.9802,1.0207,1.0448,1.0618,1.0528,1.0611,1.0618,1.0618,1.0555,0.9192,0.9709,1.0889,1.1844,1.2044,1.2198,1.2285,1.2298,1.2305,1.2305,1.2305,1.2305,1.2305,1.2305,1.2305,1.2305,1.2311,1.2325,1.2358,1.2432,1.2672,1.2979,1.3514,1.4102,1.4517,1.4444,1.539,1.6887,1.893,2.045,2.1431,2.1735,2.1603,2.1973,2.2339,2.2478,2.2478,2.2113,2.2124,2.2861,2.3526,2.2339,2.1471,2.1343,2.1073,2.0791,2.084,0.998,1.0303,0.912,0.9117,0.9703,0.754,0.6588,0.6312,0.3671,0.2462,0.1681,0.0447,-0.0279,0.0724,0.2623,0.3916,0.448,0.449,0.3128,0.1614,0.0167,-0.1609,-0.1887,-0.0827,0.0873,0.2273,0.3718,0.4355,0.4341,0.4535,0.5101,0.5706,0.6912,0.7498,0.7564,0.7036,0.6556,0.6491,0.6891,0.7605,0.8586,0.8971,0.9013,0.8928,0.8857,0.8804,0.8804,0.8804,0.8804,0.8804,0.8804,0.8804,0.8804,0.8804,0.8799,0.9272,0.9884,1.0254,1.0297,1.0139,1.0227,1.0461,1.0618,1.0618,1.0618,1.0618,1.0618,1.0586,0.9291,0.9212,1.0876,1.2258,1.2298,1.2305,1.2305,1.2305,1.2305,1.2305,1.2305,1.2305,1.2318,1.2338,1.2498,1.2538,1.2472,1.2478,1.2832,1.2919,1.3019,1.33,1.394,1.4622,1.5357,1.5711,1.6366,1.7891,1.9571,2.0817,2.1886,2.1669,2.1298,2.1821,2.2188,2.2489,2.2264,2.1527,2.1081,2.1917,2.2189,2.1245,2.0722,2.1027,2.1273,2.135,2.1426,1.1528,1.1382,1.083,1.0543,1.0269,0.8178,0.6848,0.5987,0.4472,0.3154,0.218,0.1635,0.1898,0.2901,0.3574,0.4477,0.447,0.4484,0.335,0.2044,0.0657,0.0549,0.0495,0.0549,0.1353,0.3091,0.4211,0.4495,0.4402,0.4488,0.456,0.5281,0.6431,0.7182,0.7289,0.6966,0.6642,0.6691,0.7004,0.7753,0.8639,0.9389,0.9389,0.8811,0.8804,0.8804,0.8804,0.8804,0.8804,0.8811,0.8818,0.8824,0.8957,0.8957,0.9381,0.974,1.0358,1.0519,1.0616,1.0506,1.0448,1.0494,1.0618,1.0618,1.0618,1.0618,1.1022,1.0821,1.0341,1.0533,1.1417,1.2218,1.2305,1.2305,1.2305,1.2305,1.2305,1.2305,1.2385,1.2499,1.2418,1.2412,1.2619,1.2826,1.2732,1.2679,1.3073,1.3407,1.348,1.3932,1.462,1.5144,1.5876,1.669,1.7253,1.8691,2.0197,2.1268,2.2339,2.2188,2.1821,2.0934,2.1308,2.1745,2.2119,2.1565,2.1263,2.1392,2.1302,2.1105,2.1094,2.134,2.1514,2.1787,2.1953,1.2969,1.2404,1.2199,1.1607,1.0602,0.8803,0.7473,0.6564,0.5688,0.4426,0.2973,0.3283,0.3962,0.475,0.5132,0.4959,0.4864,0.4615,0.3934,0.2847,0.2052,0.2321,0.2709,0.2914,0.2776,0.4209,0.4481,0.4467,0.4365,0.4488,0.4512,0.4967,0.5936,0.6937,0.7074,0.6912,0.6534,0.647,0.6786,0.768,0.8495,0.9369,0.9916,0.92,0.9119,0.909,0.9049,0.8956,0.8804,0.8858,0.8898,0.8911,0.9286,0.9843,1.0538,1.0601,1.0618,1.0618,1.0618,1.0618,1.0618,1.0618,1.0618,1.0618,1.0618,1.0651,1.1002,1.2031,1.2084,1.215,1.1929,1.17,1.2157,1.2305,1.2305,1.2305,1.2305,1.2318,1.2526,1.2627,1.2634,1.2619,1.2946,1.3193,1.3267,1.316,1.326,1.3682,1.398,1.4524,1.5502,1.6041,1.6527,1.7342,1.823,1.9866,2.142,2.2092,2.2925,2.322,2.2776,2.1821,2.1031,2.1492,2.1649,2.1441,2.1546,2.1703,2.1654,2.1465,2.1621,2.1836,2.2002,2.2266,2.2402,1.4247,1.3721,1.3024,1.2043,1.0762,0.9311,0.8483,0.7862,0.6832,0.5706,0.4714,0.5621,0.5927,0.5964,0.605,0.5896,0.5495,0.508,0.4575,0.3896,0.2886,0.2501,0.2869,0.344,0.3842,0.4164,0.4388,0.4452,0.435,0.448,0.4507,0.5096,0.6207,0.7041,0.6712,0.6647,0.6263,0.5732,0.5974,0.6926,0.8126,0.9121,0.9625,0.9771,0.9533,0.9475,0.9463,0.9008,0.8824,0.8911,0.9152,0.9152,0.9133,1.2634,1.3033,1.0815,1.0681,1.0618,1.0618,1.0618,1.0618,1.0618,1.0618,1.0618,1.0618,1.0719,1.1049,1.2124,1.2305,1.1471,1.1099,1.1099,1.1929,1.2305,1.2305,1.2305,1.2305,1.2452,1.2605,1.2768,1.2849,1.2983,1.3273,1.3581,1.3754,1.3741,1.3621,1.3837,1.4183,1.4985,1.5951,1.6772,1.7261,1.8284,1.9395,2.1171,2.2553,2.3147,2.3441,2.3514,2.3588,2.3073,2.2371,2.1675,2.1748,2.2016,2.2089,2.21,2.209,2.2119,2.2285,2.2471,2.2607,2.2685,2.2773,1.4697,1.3779,1.3569,1.2686,1.1451,1.0853,0.9965,0.8737,0.7537,0.6697,0.6437,0.6672,0.6559,0.6376,0.6327,0.637,0.6379,0.5026,0.4588,0.4639,0.4008,0.3842,0.3974,0.4291,0.4769,0.4848,0.4824,0.4824,0.5097,0.4956,0.496,0.5485,0.6678,0.718,0.7067,0.6865,0.6524,0.5901,0.5993,0.6577,0.7942,0.9009,0.9695,0.9969,0.9875,0.9855,0.9769,0.9207,0.8918,0.9024,0.9365,0.9379,0.9855,1.3215,1.3622,1.1358,1.0618,1.0618,1.0618,1.0618,1.0618,1.0631,1.0651,1.0651,1.0618,1.0618,1.1216,1.1964,1.2278,1.17,1.1848,1.1855,1.2305,1.2305,1.2305,1.2305,1.2358,1.2619,1.2812,1.2832,1.2893,1.318,1.352,1.3741,1.3928,1.3995,1.3861,1.3861,1.4146,1.5137,1.6108,1.7172,1.798,1.9158,2.0478,2.2081,2.3231,2.3745,2.3745,2.3514,2.3588,2.3519,2.2531,2.1312,2.199,2.2689,2.2656,2.2607,2.2744,2.2842,2.2832,2.2832,2.2881,2.2939,2.3008,1.5457,1.471,1.4492,1.3784,1.2774,1.1983,1.0894,0.9795,0.8701,0.8172,0.8004,0.7466,0.7143,0.7028,0.7018,0.7046,0.7561,0.6839,0.5478,0.5563,0.5358,0.5298,0.5262,0.5183,0.5605,0.566,0.5542,0.5529,0.5855,0.5543,0.594,0.6741,0.7472,0.7615,0.739,0.7027,0.6434,0.5723,0.5557,0.6252,0.7635,0.874,0.9615,1.0057,1.0225,1.0264,0.9886,0.9468,0.9092,0.9289,0.9539,0.9633,1.0668,1.1585,1.2647,1.117,1.0618,1.0618,1.0618,1.0618,1.0665,1.0792,1.0772,1.0719,1.0661,1.0788,1.1376,1.1977,1.2251,1.2305,1.2224,1.2305,1.2305,1.2305,1.2305,1.2305,1.2518,1.2779,1.3026,1.3039,1.3186,1.3474,1.3707,1.3868,1.4055,1.4068,1.4068,1.4088,1.4166,1.522,1.6347,1.7415,1.87,1.9953,2.1247,2.2829,2.3734,2.4348,2.4043,2.3546,2.3015,2.2821,2.1876,2.1291,2.2125,2.2843,2.2987,2.3096,2.3037,2.3037,2.3057,2.3076,2.3135,2.3144,2.3144,1.6471,1.6305,1.584,1.5231,1.4422,1.2764,1.1806,1.1341,1.0581,0.9964,0.9555,0.8614,0.8114,0.812,0.8564,0.8796,0.8751,0.8922,0.7977,0.7001,0.65,0.6488,0.6415,0.6376,0.6426,0.6524,0.646,0.6234,0.6583,0.6613,0.7233,0.8005,0.8386,0.8085,0.7592,0.7066,0.628,0.5468,0.5207,0.5994,0.7264,0.8655,0.9493,1.0038,1.0272,1.0357,1.0071,0.9653,0.9489,0.9666,0.992,0.9886,1.0067,1.0335,1.0517,1.0624,1.0618,1.0618,1.0631,1.0631,1.0722,1.0895,1.1035,1.0862,1.0868,1.1116,1.159,1.2017,1.2305,1.2305,1.2305,1.2305,1.2305,1.2305,1.2305,1.2445,1.2672,1.2933,1.3206,1.3373,1.354,1.3761,1.3921,1.4082,1.4088,1.4088,1.4088,1.4088,1.4412,1.5387,1.6519,1.7819,1.9097,2.0672,2.2038,2.3062,2.3588,2.3963,2.3906,2.3449,2.2902,2.2459,2.198,2.1853,2.2487,2.292,2.3076,2.3144,2.3125,2.3144,2.3144,2.3144,2.3144,2.3144,2.3057,1.7162,1.6434,1.6207,1.562,1.4651,1.3948,1.3591,1.3351,1.1589,1.061,1.0733,0.9495,0.8987,0.9017,0.99,0.9937,0.9778,0.9469,0.8909,0.8158,0.7427,0.6898,0.6668,0.6761,0.6966,0.7063,0.7047,0.6988,0.7382,0.7569,0.7638,0.7949,0.8976,0.8434,0.7812,0.732,0.6267,0.5415,0.5071,0.5763,0.705,0.8514,0.9275,0.9588,1.0031,1.0149,1.025,0.9874,0.9764,0.9973,1.0067,1.01,1.0436,1.0537,1.0624,1.0618,1.0618,1.0624,1.0658,1.0819,1.0922,1.1109,1.1349,1.1523,1.1456,1.149,1.1764,1.2084,1.2298,1.2305,1.2305,1.2305,1.2358,1.2405,1.2485,1.2732,1.2959,1.3206,1.3467,1.3614,1.3788,1.3901,1.4068,1.4088,1.4088,1.4088,1.4088,1.4088,1.4328,1.522,1.6437,1.7658,1.9344,2.0847,2.1669,2.2616,2.3062,2.3423,2.3416,2.3533,2.3502,2.2998,2.2416,2.2383,2.2832,2.3018,2.3115,2.3144,2.3144,2.3144,2.3144,2.3144,2.3144,2.3144,2.3047,1.784,1.7382,1.7177,1.6549,1.5712,1.486,1.4647,1.442,1.2668,1.1799,1.1372,1.0617,1.012,0.9897,1.0041,1.0331,1.1019,1.1125,1.0558,0.9489,0.8459,0.8166,0.7804,0.7549,0.7777,0.7818,0.7812,0.7812,0.8135,0.8367,0.8521,0.8579,0.9467,0.8847,0.8131,0.7495,0.6722,0.586,0.5391,0.5647,0.6705,0.7841,0.8088,0.8958,0.9431,1.0186,1.0363,0.9937,1.0033,1.0234,1.0294,1.0361,1.0604,1.0618,1.0618,1.0618,1.0618,1.0618,1.0665,1.0828,1.1042,1.1309,1.1637,1.1817,1.1904,1.1917,1.2058,1.2231,1.2278,1.2305,1.2305,1.2325,1.2432,1.2538,1.2792,1.3053,1.3287,1.3527,1.3687,1.3821,1.3935,1.4028,1.4088,1.4088,1.4088,1.4088,1.4088,1.4088,1.4166,1.4573,1.5876,1.7253,1.9186,2.0934,2.1593,2.2069,2.2531,2.294,2.327,2.343,2.3668,2.3474,2.2804,2.2803,2.3057,2.3144,2.3144,2.3144,2.3144,2.3144,2.3144,2.3144,2.3144,2.3144,2.296,1.8416,1.8765,1.8263,1.7612,1.7079,1.5466,1.4931,1.5099,1.3965,1.2928,1.1991,1.1798,1.1288,1.0766,1.0313,1.0833,1.1801,1.241,1.1881,1.0966,1.023,0.9671,0.9247,0.9052,0.8811,0.8798,0.8751,0.8514,0.8775,0.9079,0.9323,0.9512,0.9873,0.9417,0.8203,0.778,0.6937,0.5789,0.541,0.542,0.5825,0.6059,0.6228,0.8077,0.9411,1.0493,1.022,1.0134,1.0187,1.0434,1.0618,1.0604,1.0611,1.0618,1.0618,1.0601,1.0621,1.0601,1.0715,1.0962,1.1309,1.1577,1.1837,1.2017,1.2118,1.2144,1.2231,1.2258,1.2298,1.2305,1.2305,1.2325,1.2412,1.2792,1.318,1.3347,1.3487,1.3599,1.3559,1.3658,1.3781,1.3957,1.4088,1.4088,1.4088,1.4088,1.4088,1.4088,1.4166,1.425,1.534,1.6878,1.9027,2.0712,2.1155,2.1665,2.1937,2.2372,2.2749,2.2857,2.2829,2.2968,2.3086,2.3144,2.3144,2.3144,2.3144,2.3144,2.3144,2.3144,2.3144,2.3144,2.3144,2.3164,2.3047,1.8695,1.8803,1.7854,1.7394,1.7133,1.5928,1.5165,1.4829,1.4414,1.3552,1.2597,1.191,1.1618,1.1638,1.1516,1.1902,1.2331,1.347,1.2804,1.1739,1.104,1.0727,1.0269,0.9776,0.9577,0.9446,0.9314,0.9095,0.9079,0.9499,1.0003,1.0238,1.0397,0.9686,0.8093,0.7742,0.7082,0.5802,0.5335,0.5191,0.5423,0.5675,0.6099,0.7699,0.9074,1.0397,1.0416,1.0421,1.0454,1.0618,1.0618,1.0618,1.0618,1.0631,1.0624,1.0595,1.0762,1.0808,1.0935,1.1236,1.1603,1.1777,1.1984,1.2164,1.2271,1.2298,1.2305,1.2305,1.2305,1.2305,1.2311,1.2338,1.2492,1.3026,1.3534,1.3607,1.3592,1.343,1.3297,1.3419,1.3529,1.3626,1.3743,1.3984,1.4088,1.4088,1.4088,1.4088,1.4088,1.4257,1.4839,1.6472,1.9045,2.0547,2.0847,2.1326,2.1625,2.1879,2.221,2.2175,2.2031,2.2588,2.3144,2.3144,2.3144,2.3144,2.3144,2.3144,2.3144,2.3144,2.3164,2.3164,2.3213,2.3242,2.3184,1.8758,1.8702,1.7995,1.768,1.7368,1.5915,1.5141,1.4971,1.4148,1.3561,1.3269,1.2611,1.2334,1.2565,1.2824,1.2977,1.3138,1.4323,1.3774,1.2685,1.1797,1.1354,1.0963,1.0438,1.0043,0.9851,0.9811,0.9666,0.9421,0.9708,1.02,1.0359,1.0321,0.9775,0.8178,0.7933,0.7199,0.5757,0.5389,0.5135,0.5135,0.5311,0.5863,0.7354,0.9,1.0312,1.0564,1.0618,1.0618,1.0618,1.0618,1.0618,1.0648,1.0842,1.0788,1.0768,1.0909,1.1236,1.139,1.1603,1.1917,1.2024,1.2111,1.2285,1.2291,1.2305,1.2305,1.2305,1.2305,1.2305,1.2305,1.2325,1.2623,1.3107,1.3437,1.3675,1.2845,1.2058,1.2129,1.2324,1.2023,1.1402,1.1917,1.3194,1.3413,1.4088,1.4088,1.4088,1.4088,1.4155,1.481,1.6117,1.8684,1.9827,1.9844,2.0564,2.1292,2.1556,2.1865,2.2227,2.2539,2.2852,2.3144,2.3144,2.3144,2.3144,2.3144,2.3144,2.3144,2.3144,2.3174,2.3115,2.3271,2.3379,2.3379,1.8706,1.8743,1.8399,1.8145,1.78,1.599,1.5186,1.5197,1.3931,1.3488,1.3703,1.3551,1.3313,1.3196,1.3563,1.3864,1.4199,1.4642,1.4232,1.3507,1.3104,1.2369,1.1635,1.1006,1.0609,1.0285,1.0156,1.0059,0.9854,1.002,1.0027,1.008,1.0076,0.9938,0.8962,0.8234,0.7448,0.6455,0.5826,0.5364,0.5148,0.5061,0.5973,0.75,0.918,1.0456,1.0595,1.0618,1.0618,1.0618,1.0618,1.0618,1.0635,1.0868,1.1102,1.1089,1.1256,1.1677,1.1984,1.1984,1.2124,1.2211,1.2278,1.2305,1.2305,1.2305,1.2305,1.2305,1.2305,1.2305,1.2305,1.2438,1.2769,1.3121,1.3503,1.3529,1.2343,1.1089,1.0985,1.1089,1.039,0.9616,1.0115,1.1506,1.2983,1.3743,1.4088,1.4088,1.4122,1.4255,1.4613,1.6117,1.8349,1.8967,1.921,2.0306,2.1455,2.1816,2.2217,2.2646,2.2978,2.3076,2.3144,2.3144,2.3144,2.3144,2.3144,2.3144,2.3144,2.3144,2.3154,2.3232,2.3525,2.3613,2.3643,1.8794,1.9459,1.8977,1.8496,1.7973,1.712,1.6089,1.5005,1.505,1.4641,1.4067,1.3794,1.3468,1.2965,1.3997,1.4407,1.4304,1.4735,1.4053,1.3118,1.3375,1.2983,1.2424,1.167,1.137,1.1121,1.0786,1.0275,1.0443,1.0164,0.9913,1.008,1.0093,0.9929,0.9342,0.8717,0.8116,0.7021,0.6379,0.5994,0.5415,0.56,0.6383,0.7892,0.9608,1.0302,1.0595,1.0561,1.0618,1.0618,1.0618,1.0618,1.0752,1.0902,1.1243,1.1597,1.1757,1.1891,1.2124,1.2184,1.2258,1.2265,1.2305,1.2305,1.2305,1.2305,1.2305,1.2305,1.2305,1.2305,1.2331,1.2485,1.2742,1.3227,1.3652,1.3112,1.2248,1.0784,0.9792,0.9417,0.8848,0.8111,0.7663,0.9722,1.2671,1.3419,1.4082,1.4088,1.4088,1.4269,1.4449,1.6309,1.8176,1.9141,1.9796,2.0926,2.1885,2.2217,2.25,2.2803,2.3008,2.3096,2.3144,2.3144,2.3144,2.3144,2.3144,2.3144,2.3144,2.3144,2.3144,2.3252,2.3623,2.3975,2.4111]}]]